[[{"header":{"parameterUnit":"m.s-1","parameterCategory":1,"la1":31.0,"la2":29.5877,"lo1":-88.7671,"lo2":-86.6584,"dy":0.0162,"dx":0.0185,"nx":115,"ny":88,"refTime":"2026-04-16T00:00:00:Z","depth":0,"parameterNumber":2,"parameterNumberName":"U-component_of_WINDS"},"data":[0.0,0.0,0.0,0.0,0.0,0.0,0.0,0.0,0.0,0.0,0.0,0.0,0.0,0.0,0.0,0.0,0.0,0.0,0.0,0.0,0.0,0.0,0.0,0.0,0.0,0.0,0.0,0.0,0.0,0.0,0.0,0.0,0.0,0.0,0.0,0.0,0.0,0.0,0.0,0.0,0.0,0.0,0.0,0.0,0.0,0.0,0.0,0.0,0.0,0.0,0.0,0.0,0.0,0.0,0.0,0.0,0.0,0.0,0.0,0.0,0.0,0.0,0.0,0.0,0.0,0.0,0.0,0.0,0.0,0.0,0.0,0.0,0.0,0.0,0.0,0.0,0.0,0.0,0.0,0.0,0.0,0.0,0.0,0.0,0.0,0.0,0.0,0.0,0.0,0.0,0.0,0.0,0.0,0.0,0.0,0.0,0.0,0.0,0.0,0.0,0.0,0.0,0.0,0.0,0.0,0.0,0.0,0.0,0.0,0.0,0.0,0.0,0.0,0.0,0.0,0.0,0.0,0.0,0.0,0.0,0.0,0.0,0.0,0.0,0.0,0.0,0.0,0.0,0.0,0.0,0.0,0.0,0.0,0.0,0.0,0.0,0.0,0.0,0.0,0.0,0.0,0.0,0.0,0.0,0.0,0.0,0.0,0.0,0.0,0.0,0.0,0.0,0.0,0.0,0.0,0.0,0.0,0.0,0.0,0.0,0.0,0.0,0.0,0.0,0.0,0.0,0.0,0.0,0.0,0.0,0.0,0.0,0.0,0.0,0.0,0.0,0.0,0.0,0.0,0.0,0.0,0.0,0.0,0.0,0.0,0.0,0.0,0.0,0.0,0.0,0.0,0.0,0.0,0.0,0.0,0.0,0.0,0.0,0.0,0.0,0.0,0.0,0.0,0.0,0.0,0.0,0.0,0.0,0.0,0.0,0.0,0.0,0.0,0.0,0.0,0.0,0.0,0.0,0.0,0.0,0.0,0.0,0.0,0.0,0.0,0.0,0.0,0.0,0.0,0.0,0.0,0.0,0.0,0.0,0.0,0.0,0.0,0.0,0.0,0.0,0.0,0.0,0.0,0.0,0.0,0.0,0.0,0.0,0.0,0.0,0.0,0.0,0.0,0.0,0.0,0.0,0.0,0.0,0.0,0.0,0.0,0.0,0.0,0.0,0.0,0.0,0.0,0.0,0.0,0.0,0.0,0.0,0.0,0.0,0.0,0.0,0.0,0.0,0.0,0.0,0.0,0.0,0.0,0.0,0.0,0.0,0.0,0.0,0.0,0.0,0.0,0.0,0.0,0.0,0.0,0.0,0.0,0.0,0.0,0.0,0.0,0.0,0.0,0.0,0.0,0.0,0.0,0.0,0.0,0.0,0.0,0.0,0.0,0.0,0.0,0.0,0.0,0.0,0.0,0.0,0.0,0.0,0.0,0.0,0.0,0.0,0.0,0.0,0.0,0.0,0.0,0.0,0.0,0.0,0.0,0.0,0.0,0.0,0.0,0.0,0.0,0.0,0.0,0.0,0.0,0.0,0.0,0.0,0.0,0.0,0.0,0.0,0.0,0.0,0.0,0.0,0.0,0.0,0.0,0.0,0.0,0.0,0.0,0.0,0.0,0.0,0.0,0.0,0.0,0.0,0.0,0.0,0.0,0.0,0.0,0.0,0.0,0.0,0.0,0.0,0.0,0.0,0.0,0.0,0.0,0.0,0.0,0.0,0.0,0.0,0.0,0.0,0.0,0.0,0.0,0.0,0.0,0.0,0.0,0.0,0.0,0.0,0.0,0.0,0.0,0.0,0.0,0.0,0.0,0.0,0.0,0.0,0.0,0.0,0.0,0.0,0.0,0.0,0.0,0.0,0.0,0.0,0.0,0.0,0.0,0.0,0.0,0.0,0.0,0.0,0.0,0.0,0.0,0.0,0.0,0.0,0.0,0.0,0.0,0.0,0.0,0.0,0.0,0.0,0.0,0.0,0.0,0.0,0.0,0.0,0.0,0.0,0.0,0.0,0.0,0.0,0.0,0.0,0.0,0.0,0.0,0.0,0.0,0.0,0.0,0.0,0.0,0.0,0.0,0.0,0.0,0.0,0.0,0.0,0.0,0.0,0.0,0.0,0.0,0.0,0.0,0.0,0.0,0.0,0.0,0.0,0.0,0.0,0.0,0.0,0.0,0.0,0.0,0.0,0.0,0.0,0.0,0.0,0.0,0.0,0.0,0.0,0.0,0.0,0.0,0.0,0.0,0.0,0.0,0.0,0.0,0.0,0.0,0.0,0.0,0.0,0.0,0.0,0.0,0.0,0.0,0.0,0.0,0.0,0.0,0.0,0.0,0.0,0.0,0.0,0.0,0.0,0.0,0.0,0.0,0.0,0.0,0.0,0.0,0.0,0.0,0.0,0.0,0.0,0.0,0.0,0.0,0.0,0.0,0.0,0.0,0.0,0.0,0.0,0.0,0.0,0.0,0.0,0.0,0.0,0.0,0.0,0.0,0.0,0.0,0.0,0.0,0.0,0.0,0.0,0.0,0.0,0.0,0.0,0.0,0.0,0.0,0.0,0.0,0.0,0.0,0.0,0.0,0.0,0.0,0.0,0.0,0.0,0.0,0.0,0.0,0.0,0.0,0.0,0.0,0.0,0.0,0.0,0.0,0.0,0.0,0.0,0.0,0.0,0.0,0.0,0.0,0.0,0.0,0.0,0.0,0.0,0.0,0.0,0.0,0.0,0.0,0.0,0.0,0.0,0.0,0.0,0.0,0.0,0.0,0.0,0.0,0.0,0.0,0.0,0.0,0.0,0.0,0.0,0.0,0.0,0.0,0.0,0.0,0.0,0.0,0.0,0.0,0.0,0.0,0.0,0.0,0.0,0.0,0.0,0.0,0.0,0.0,0.0,0.0,0.0,0.0,0.0,0.0,0.0,0.0,0.0,0.0,0.0,0.0,0.0,0.0,0.0,0.0,0.0,0.0,0.0,0.0,0.0,0.0,0.0,0.0,0.0,0.0,0.0,0.0,0.0,0.0,0.0,0.0,0.0,0.0,0.0,0.0,0.0,0.0,0.0,0.0,0.0,0.0,0.0,0.0,0.0,0.0,0.0,0.0,0.0,0.0,0.0,0.0,0.0,0.0,0.0,0.0,0.0,0.0,0.0,0.0,0.0,0.0,0.0,0.0,0.0,0.0,0.0,0.0,0.0,0.0,0.0,0.0,0.0,0.0,0.0,0.0,0.0,0.0,0.0,0.0,0.0,0.0,0.0,0.0,0.0,0.0,0.0,0.0,0.0,0.0,0.0,0.0,0.0,0.0,0.0,0.0,0.0,0.0,0.0,0.0,0.0,0.0,0.0,0.0,0.0,0.0,0.0,0.0,0.0,0.0,0.0,0.0,0.0,0.0,0.0,0.0,0.0,0.0,0.0,0.0,0.0,0.0,0.0,0.0,0.0,0.0,0.0,0.0,0.0,0.0,0.0,0.0,0.0,0.0,0.0,0.0,0.0,0.0,0.0,0.0,0.0,0.0,0.0,0.0,0.0,0.0,0.0,0.0,0.0,0.0,0.0,0.0,0.0,0.0,0.0,0.0,0.0,0.0,0.0,0.0,0.0,0.0,0.0,0.0,0.0,0.0,0.0,0.0,0.0,0.0,0.0,0.0,0.0,0.0,0.0,0.0,0.0,0.0,0.0,0.0,0.0,0.0,0.0,0.0,0.0,0.0,0.0,0.0,0.0,0.0,0.0,0.0,0.0,0.0,0.0,0.0,0.0,0.0,0.0,0.0,0.0,0.0,0.0,0.0,0.0,0.0,0.0,0.0,0.0,0.0,0.0,0.0,0.0,0.0,0.0,0.0,0.0,0.0,0.0,0.0,0.0,0.0,0.0,0.0,0.0,0.0,0.0,0.0,0.0,0.0,0.0,0.0,0.0,0.0,0.0,0.0,0.0,0.0,0.0,0.0,0.0,0.0,0.0,0.0,0.0,0.0,0.0,0.0,0.0,0.0,0.0,0.0,0.0,0.0,0.0,0.0,0.0,0.0,0.0,0.0,0.0,0.0,0.0,0.0,0.0,0.0,0.0,0.0,0.0,0.0,0.0,0.0,0.0,0.0,0.0,0.0,0.0,0.0,0.0,0.0,0.0,0.0,0.0,0.0,0.0,0.0,0.0,0.0,0.0,0.0,0.0,0.0,0.0,0.0,0.0,0.0,0.0,0.0,0.0,0.0,0.0,0.0,0.0,0.0,0.0,0.0,0.0,0.0,0.0,0.0,0.0,0.0,0.0,-4.5743,0.0,0.0,0.0,0.0,0.0,0.0,0.0,0.0,0.0,0.0,0.0,0.0,0.0,0.0,0.0,0.0,0.0,0.0,0.0,0.0,0.0,0.0,0.0,0.0,0.0,0.0,0.0,0.0,0.0,0.0,0.0,0.0,0.0,0.0,0.0,0.0,0.0,0.0,0.0,0.0,0.0,0.0,0.0,0.0,0.0,0.0,0.0,0.0,0.0,0.0,0.0,0.0,0.0,0.0,0.0,0.0,0.0,0.0,0.0,0.0,0.0,0.0,0.0,0.0,0.0,0.0,0.0,0.0,0.0,0.0,0.0,0.0,0.0,0.0,0.0,0.0,0.0,0.0,0.0,0.0,0.0,0.0,0.0,0.0,0.0,0.0,0.0,0.0,0.0,0.0,0.0,0.0,0.0,0.0,0.0,0.0,0.0,0.0,0.0,0.0,0.0,0.0,0.0,0.0,0.0,0.0,0.0,0.0,0.0,0.0,-4.8688,-4.9998,-4.8657,-4.7482,-4.6532,0.0,0.0,0.0,0.0,0.0,0.0,0.0,0.0,0.0,0.0,0.0,0.0,0.0,0.0,0.0,0.0,0.0,0.0,0.0,0.0,0.0,0.0,0.0,0.0,0.0,0.0,0.0,0.0,0.0,0.0,0.0,0.0,0.0,0.0,0.0,0.0,0.0,0.0,0.0,0.0,0.0,0.0,0.0,0.0,0.0,0.0,0.0,0.0,0.0,0.0,0.0,0.0,0.0,0.0,0.0,0.0,0.0,0.0,0.0,0.0,0.0,0.0,0.0,0.0,0.0,0.0,0.0,0.0,0.0,0.0,0.0,0.0,0.0,0.0,0.0,0.0,0.0,0.0,0.0,0.0,0.0,0.0,0.0,0.0,0.0,0.0,0.0,0.0,0.0,0.0,0.0,0.0,0.0,0.0,0.0,0.0,0.0,0.0,0.0,0.0,0.0,0.0,0.0,0.0,0.0,0.0,0.0,0.0,0.0,0.0,0.0,0.0,-4.9555,-4.8005,-4.6554,0.0,0.0,0.0,0.0,0.0,0.0,0.0,0.0,0.0,0.0,0.0,0.0,0.0,0.0,0.0,0.0,0.0,0.0,0.0,0.0,0.0,0.0,0.0,0.0,0.0,0.0,0.0,0.0,0.0,0.0,0.0,0.0,0.0,0.0,0.0,0.0,0.0,0.0,0.0,0.0,0.0,0.0,0.0,0.0,0.0,0.0,0.0,0.0,0.0,0.0,0.0,0.0,0.0,0.0,0.0,0.0,0.0,0.0,0.0,0.0,0.0,0.0,0.0,0.0,0.0,0.0,0.0,0.0,0.0,0.0,0.0,0.0,0.0,0.0,0.0,0.0,0.0,0.0,0.0,0.0,0.0,0.0,0.0,0.0,0.0,0.0,0.0,0.0,0.0,0.0,0.0,0.0,0.0,0.0,0.0,0.0,0.0,0.0,0.0,0.0,0.0,0.0,0.0,0.0,0.0,0.0,0.0,0.0,0.0,0.0,-4.9426,-5.1115,-5.0137,0.0,-4.5077,0.0,0.0,0.0,0.0,0.0,0.0,0.0,0.0,0.0,0.0,0.0,0.0,0.0,0.0,0.0,0.0,0.0,0.0,0.0,0.0,0.0,0.0,0.0,0.0,0.0,0.0,0.0,0.0,0.0,0.0,0.0,0.0,0.0,0.0,0.0,0.0,0.0,0.0,0.0,0.0,0.0,0.0,0.0,0.0,0.0,0.0,0.0,0.0,0.0,0.0,0.0,0.0,0.0,0.0,0.0,0.0,0.0,0.0,0.0,0.0,0.0,0.0,0.0,0.0,0.0,0.0,0.0,0.0,0.0,0.0,0.0,0.0,0.0,0.0,0.0,0.0,0.0,0.0,0.0,0.0,0.0,0.0,0.0,0.0,0.0,0.0,0.0,0.0,0.0,0.0,0.0,0.0,0.0,0.0,0.0,0.0,0.0,0.0,0.0,0.0,0.0,0.0,0.0,0.0,0.0,0.0,0.0,0.0,0.0,0.0,-4.9989,-5.116,-4.9232,-4.7038,0.0,0.0,0.0,0.0,0.0,0.0,0.0,0.0,0.0,0.0,0.0,0.0,0.0,0.0,0.0,0.0,0.0,0.0,0.0,0.0,0.0,0.0,0.0,0.0,0.0,0.0,0.0,0.0,0.0,0.0,0.0,0.0,0.0,0.0,0.0,0.0,0.0,0.0,0.0,0.0,0.0,0.0,0.0,0.0,0.0,0.0,0.0,0.0,0.0,0.0,0.0,0.0,0.0,0.0,0.0,0.0,0.0,0.0,0.0,0.0,0.0,0.0,0.0,0.0,0.0,0.0,0.0,0.0,0.0,0.0,0.0,0.0,0.0,0.0,0.0,0.0,0.0,0.0,0.0,0.0,0.0,0.0,0.0,0.0,0.0,0.0,0.0,0.0,0.0,0.0,0.0,0.0,0.0,0.0,0.0,0.0,0.0,0.0,0.0,0.0,0.0,0.0,0.0,0.0,0.0,0.0,0.0,0.0,0.0,0.0,-4.9979,-5.0629,-5.1057,-4.9207,-4.7011,-4.4645,0.0,0.0,0.0,0.0,0.0,0.0,0.0,0.0,0.0,0.0,0.0,0.0,0.0,0.0,0.0,0.0,0.0,0.0,0.0,0.0,0.0,0.0,0.0,0.0,0.0,0.0,0.0,0.0,0.0,0.0,0.0,0.0,0.0,0.0,0.0,0.0,0.0,0.0,0.0,0.0,0.0,0.0,0.0,0.0,0.0,0.0,0.0,0.0,0.0,0.0,0.0,0.0,0.0,0.0,0.0,0.0,0.0,0.0,0.0,0.0,0.0,0.0,0.0,0.0,0.0,0.0,0.0,0.0,0.0,0.0,0.0,0.0,0.0,0.0,0.0,0.0,0.0,0.0,0.0,0.0,0.0,0.0,0.0,0.0,0.0,0.0,0.0,0.0,0.0,0.0,0.0,0.0,0.0,0.0,0.0,0.0,0.0,0.0,0.0,0.0,0.0,0.0,0.0,0.0,0.0,0.0,0.0,0.0,-4.9975,-5.0819,-5.1199,-5.1106,-5.084,-4.8783,0.0,0.0,0.0,0.0,0.0,0.0,0.0,0.0,0.0,0.0,0.0,0.0,0.0,0.0,0.0,0.0,0.0,0.0,0.0,0.0,0.0,0.0,0.0,0.0,0.0,0.0,0.0,0.0,0.0,0.0,0.0,0.0,0.0,0.0,0.0,0.0,0.0,0.0,0.0,0.0,0.0,0.0,0.0,0.0,0.0,0.0,0.0,0.0,0.0,0.0,0.0,0.0,0.0,0.0,0.0,0.0,0.0,0.0,0.0,0.0,0.0,0.0,0.0,0.0,0.0,0.0,0.0,0.0,0.0,0.0,0.0,0.0,0.0,0.0,0.0,0.0,0.0,0.0,0.0,0.0,0.0,0.0,0.0,0.0,0.0,0.0,0.0,0.0,0.0,0.0,0.0,0.0,0.0,0.0,0.0,0.0,0.0,0.0,0.0,0.0,0.0,0.0,0.0,0.0,0.0,0.0,0.0,0.0,0.0,-4.933,-5.0565,-5.1213,-5.1117,-4.9414,-4.7484,0.0,0.0,0.0,0.0,0.0,0.0,0.0,0.0,0.0,0.0,0.0,0.0,0.0,0.0,0.0,0.0,0.0,0.0,0.0,0.0,0.0,0.0,0.0,0.0,0.0,0.0,0.0,0.0,0.0,0.0,0.0,0.0,0.0,0.0,0.0,0.0,0.0,0.0,0.0,0.0,0.0,0.0,0.0,0.0,0.0,0.0,0.0,0.0,0.0,0.0,0.0,0.0,0.0,0.0,0.0,0.0,0.0,0.0,0.0,0.0,0.0,0.0,0.0,0.0,0.0,0.0,0.0,0.0,0.0,0.0,0.0,0.0,0.0,0.0,0.0,0.0,0.0,0.0,0.0,0.0,0.0,0.0,0.0,0.0,0.0,0.0,0.0,0.0,0.0,0.0,0.0,0.0,0.0,0.0,0.0,0.0,0.0,0.0,0.0,0.0,0.0,0.0,0.0,0.0,0.0,0.0,0.0,0.0,0.0,-4.9682,0.0,-5.1472,-5.1113,-4.9059,-4.7241,0.0,0.0,0.0,0.0,0.0,0.0,0.0,0.0,0.0,0.0,0.0,0.0,0.0,0.0,0.0,0.0,0.0,0.0,0.0,0.0,0.0,0.0,0.0,0.0,0.0,0.0,0.0,0.0,0.0,0.0,0.0,0.0,0.0,0.0,0.0,0.0,0.0,0.0,0.0,0.0,0.0,0.0,0.0,0.0,0.0,0.0,0.0,0.0,0.0,0.0,0.0,0.0,0.0,0.0,0.0,0.0,0.0,0.0,0.0,0.0,0.0,0.0,0.0,0.0,0.0,0.0,0.0,0.0,0.0,0.0,0.0,0.0,0.0,0.0,0.0,0.0,0.0,0.0,0.0,0.0,0.0,0.0,0.0,0.0,0.0,0.0,0.0,0.0,0.0,0.0,0.0,0.0,0.0,0.0,0.0,0.0,0.0,0.0,0.0,0.0,0.0,0.0,0.0,0.0,0.0,0.0,0.0,0.0,-4.8808,-5.1224,-5.2011,-5.1978,-5.1124,-5.0054,-4.8337,0.0,0.0,0.0,0.0,0.0,0.0,0.0,0.0,0.0,0.0,0.0,0.0,0.0,0.0,0.0,0.0,0.0,0.0,0.0,0.0,0.0,0.0,0.0,0.0,0.0,0.0,0.0,0.0,0.0,0.0,0.0,0.0,0.0,0.0,0.0,0.0,0.0,0.0,0.0,0.0,0.0,0.0,0.0,0.0,0.0,0.0,0.0,0.0,0.0,0.0,0.0,0.0,0.0,0.0,0.0,0.0,0.0,0.0,0.0,0.0,0.0,0.0,0.0,0.0,0.0,0.0,0.0,0.0,0.0,0.0,0.0,0.0,0.0,0.0,0.0,0.0,0.0,0.0,0.0,0.0,0.0,0.0,0.0,0.0,0.0,0.0,0.0,0.0,0.0,0.0,0.0,0.0,0.0,0.0,0.0,0.0,0.0,0.0,0.0,0.0,0.0,0.0,0.0,0.0,0.0,0.0,0.0,0.0,0.0,-4.9529,-5.0896,-5.171,-5.1841,-4.9814,-4.8304,0.0,0.0,0.0,0.0,0.0,0.0,0.0,0.0,0.0,0.0,0.0,0.0,0.0,0.0,0.0,0.0,0.0,0.0,0.0,0.0,0.0,0.0,0.0,0.0,0.0,0.0,0.0,0.0,0.0,0.0,0.0,0.0,0.0,0.0,0.0,0.0,0.0,0.0,0.0,0.0,0.0,0.0,0.0,0.0,0.0,0.0,0.0,0.0,0.0,0.0,0.0,0.0,0.0,0.0,0.0,0.0,0.0,0.0,0.0,0.0,0.0,0.0,0.0,0.0,0.0,0.0,0.0,0.0,0.0,0.0,0.0,0.0,0.0,0.0,0.0,0.0,0.0,0.0,0.0,0.0,0.0,0.0,0.0,0.0,0.0,0.0,0.0,0.0,0.0,0.0,0.0,0.0,0.0,0.0,0.0,0.0,0.0,0.0,0.0,0.0,0.0,0.0,0.0,0.0,0.0,0.0,0.0,0.0,0.0,-5.0084,-5.1082,-5.1822,-5.224,-4.9981,-4.8523,-4.7972,0.0,0.0,0.0,0.0,0.0,0.0,0.0,0.0,0.0,0.0,0.0,0.0,0.0,0.0,0.0,0.0,0.0,0.0,0.0,0.0,0.0,0.0,0.0,0.0,0.0,0.0,0.0,0.0,0.0,0.0,0.0,0.0,0.0,0.0,0.0,0.0,0.0,0.0,0.0,0.0,0.0,0.0,0.0,0.0,0.0,0.0,0.0,0.0,0.0,0.0,0.0,0.0,0.0,0.0,0.0,0.0,0.0,0.0,0.0,0.0,0.0,0.0,0.0,0.0,0.0,0.0,0.0,0.0,0.0,0.0,0.0,0.0,0.0,0.0,0.0,0.0,0.0,0.0,0.0,0.0,0.0,0.0,0.0,0.0,0.0,0.0,0.0,0.0,0.0,0.0,0.0,0.0,0.0,0.0,0.0,0.0,0.0,0.0,0.0,0.0,0.0,0.0,0.0,0.0,0.0,0.0,0.0,0.0,-5.2451,-5.2455,-5.2441,-5.2424,-5.0576,-4.9028,0.0,0.0,0.0,0.0,0.0,0.0,0.0,0.0,0.0,0.0,0.0,0.0,0.0,0.0,0.0,0.0,0.0,0.0,0.0,0.0,0.0,0.0,0.0,0.0,0.0,0.0,0.0,0.0,0.0,0.0,0.0,0.0,0.0,0.0,0.0,0.0,0.0,0.0,0.0,0.0,0.0,0.0,0.0,0.0,0.0,0.0,0.0,0.0,0.0,0.0,0.0,0.0,0.0,0.0,0.0,0.0,0.0,0.0,0.0,0.0,0.0,0.0,0.0,0.0,0.0,0.0,0.0,0.0,0.0,0.0,0.0,0.0,0.0,0.0,0.0,0.0,0.0,0.0,0.0,0.0,0.0,0.0,0.0,0.0,0.0,0.0,0.0,0.0,0.0,0.0,0.0,0.0,0.0,0.0,0.0,0.0,0.0,0.0,0.0,0.0,0.0,0.0,0.0,0.0,0.0,0.0,0.0,0.0,0.0,-5.3268,-5.3876,-5.4412,-5.484,-5.2015,-5.0202,0.0,0.0,0.0,0.0,0.0,0.0,0.0,0.0,0.0,0.0,0.0,0.0,0.0,0.0,0.0,0.0,0.0,0.0,0.0,0.0,0.0,0.0,0.0,0.0,0.0,0.0,0.0,0.0,0.0,0.0,0.0,0.0,0.0,0.0,0.0,0.0,0.0,0.0,0.0,0.0,0.0,0.0,0.0,0.0,0.0,0.0,0.0,0.0,0.0,0.0,0.0,0.0,0.0,0.0,0.0,0.0,0.0,0.0,0.0,0.0,0.0,0.0,0.0,0.0,0.0,0.0,0.0,0.0,0.0,0.0,0.0,0.0,0.0,0.0,0.0,0.0,0.0,0.0,0.0,0.0,0.0,0.0,0.0,0.0,0.0,0.0,0.0,0.0,0.0,0.0,0.0,0.0,0.0,0.0,0.0,0.0,0.0,0.0,0.0,0.0,0.0,0.0,0.0,0.0,0.0,0.0,0.0,0.0,-5.1977,-5.4154,-5.4928,-5.5678,-5.6425,-5.3502,-5.1346,0.0,0.0,0.0,0.0,0.0,0.0,0.0,0.0,0.0,0.0,0.0,0.0,0.0,0.0,0.0,0.0,0.0,0.0,0.0,0.0,0.0,0.0,0.0,0.0,0.0,0.0,0.0,0.0,0.0,0.0,0.0,0.0,0.0,0.0,0.0,0.0,0.0,0.0,0.0,0.0,0.0,0.0,0.0,0.0,0.0,0.0,0.0,0.0,0.0,0.0,0.0,0.0,0.0,0.0,0.0,0.0,0.0,0.0,0.0,0.0,0.0,0.0,0.0,0.0,0.0,0.0,0.0,0.0,0.0,0.0,0.0,0.0,0.0,0.0,0.0,0.0,0.0,0.0,0.0,0.0,0.0,0.0,0.0,0.0,0.0,0.0,0.0,0.0,0.0,0.0,0.0,0.0,0.0,0.0,0.0,0.0,0.0,0.0,0.0,0.0,0.0,0.0,0.0,0.0,0.0,0.0,0.0,0.0,-5.321,-5.4871,-5.5625,-5.6374,-5.7072,-5.4737,-5.2295,0.0,0.0,0.0,0.0,0.0,0.0,0.0,0.0,0.0,0.0,0.0,0.0,0.0,0.0,0.0,0.0,0.0,0.0,0.0,0.0,0.0,0.0,0.0,0.0,0.0,0.0,0.0,0.0,0.0,0.0,0.0,0.0,0.0,0.0,0.0,0.0,0.0,0.0,0.0,0.0,0.0,0.0,0.0,0.0,0.0,0.0,0.0,0.0,0.0,0.0,0.0,0.0,0.0,0.0,0.0,0.0,0.0,0.0,0.0,0.0,0.0,0.0,0.0,0.0,0.0,0.0,0.0,0.0,0.0,0.0,0.0,0.0,0.0,0.0,0.0,0.0,0.0,0.0,0.0,0.0,0.0,0.0,0.0,0.0,0.0,0.0,0.0,0.0,0.0,0.0,0.0,0.0,0.0,0.0,0.0,0.0,0.0,0.0,0.0,0.0,0.0,0.0,0.0,0.0,0.0,0.0,0.0,0.0,-5.3122,-5.4777,-5.5592,-5.6384,-5.7178,-5.4737,-5.2314,0.0,0.0,0.0,0.0,0.0,0.0,0.0,0.0,0.0,0.0,0.0,0.0,0.0,0.0,0.0,0.0,0.0,0.0,0.0,0.0,0.0,0.0,0.0,0.0,0.0,0.0,0.0,0.0,0.0,0.0,0.0,0.0,0.0,0.0,0.0,0.0,0.0,0.0,0.0,0.0,0.0,0.0,0.0,0.0,0.0,0.0,0.0,0.0,-5.051,0.0,0.0,0.0,0.0,0.0,0.0,0.0,0.0,0.0,0.0,0.0,0.0,0.0,0.0,0.0,0.0,0.0,0.0,0.0,0.0,0.0,0.0,0.0,0.0,0.0,0.0,0.0,0.0,0.0,0.0,0.0,0.0,0.0,0.0,0.0,0.0,0.0,0.0,0.0,0.0,0.0,0.0,0.0,0.0,0.0,0.0,0.0,0.0,0.0,0.0,0.0,0.0,0.0,0.0,0.0,0.0,0.0,0.0,0.0,-5.3898,-5.4793,-5.5584,-5.6191,-5.6522,-5.4892,-5.2852,0.0,0.0,0.0,0.0,0.0,0.0,0.0,0.0,0.0,0.0,0.0,0.0,0.0,0.0,0.0,0.0,0.0,0.0,0.0,0.0,0.0,0.0,0.0,0.0,0.0,0.0,0.0,0.0,0.0,0.0,0.0,0.0,0.0,0.0,0.0,0.0,0.0,0.0,0.0,0.0,0.0,0.0,0.0,0.0,0.0,0.0,0.0,0.0,0.0,0.0,0.0,0.0,0.0,0.0,0.0,0.0,0.0,0.0,0.0,0.0,0.0,0.0,0.0,0.0,0.0,0.0,0.0,0.0,0.0,0.0,0.0,0.0,0.0,0.0,0.0,0.0,0.0,0.0,0.0,0.0,0.0,0.0,0.0,0.0,0.0,0.0,0.0,0.0,0.0,0.0,0.0,0.0,0.0,0.0,0.0,0.0,0.0,0.0,0.0,0.0,0.0,0.0,0.0,0.0,0.0,0.0,0.0,-5.3042,-5.461,-5.5017,-5.5642,-5.5959,-5.5876,-5.5143,-5.353,-5.1025,0.0,0.0,0.0,0.0,0.0,0.0,0.0,0.0,0.0,0.0,0.0,0.0,0.0,0.0,0.0,0.0,0.0,0.0,0.0,0.0,0.0,0.0,0.0,0.0,0.0,0.0,0.0,0.0,0.0,0.0,0.0,0.0,0.0,0.0,0.0,0.0,0.0,0.0,-4.6834,-4.8846,0.0,0.0,0.0,0.0,0.0,0.0,0.0,0.0,-5.0104,0.0,0.0,0.0,0.0,0.0,0.0,0.0,0.0,0.0,0.0,0.0,0.0,0.0,0.0,0.0,0.0,0.0,0.0,0.0,0.0,0.0,0.0,0.0,0.0,0.0,0.0,0.0,0.0,0.0,0.0,0.0,0.0,0.0,0.0,0.0,0.0,0.0,0.0,0.0,0.0,0.0,0.0,0.0,0.0,0.0,0.0,0.0,0.0,0.0,0.0,0.0,0.0,0.0,0.0,0.0,0.0,-5.2925,-5.2813,-5.3712,-5.575,-5.5935,-5.5959,-5.5895,-5.5489,-5.3654,-5.029,0.0,0.0,0.0,0.0,0.0,0.0,0.0,0.0,0.0,0.0,0.0,0.0,0.0,0.0,0.0,0.0,0.0,0.0,0.0,0.0,0.0,0.0,0.0,0.0,0.0,0.0,0.0,0.0,0.0,0.0,0.0,0.0,0.0,0.0,0.0,0.0,0.0,0.0,0.0,-5.0967,-5.2168,0.0,0.0,0.0,0.0,0.0,0.0,0.0,0.0,-4.9921,0.0,0.0,0.0,0.0,0.0,0.0,0.0,0.0,0.0,0.0,0.0,0.0,0.0,0.0,0.0,0.0,0.0,0.0,0.0,0.0,0.0,0.0,0.0,0.0,0.0,0.0,0.0,0.0,0.0,0.0,0.0,0.0,0.0,0.0,0.0,0.0,0.0,0.0,0.0,0.0,0.0,0.0,0.0,0.0,0.0,0.0,0.0,0.0,0.0,0.0,0.0,0.0,0.0,0.0,0.0,-5.2148,-5.3151,-5.4384,-5.5935,-5.6003,-5.5959,-5.5876,-5.4767,-5.2827,0.0,0.0,0.0,0.0,0.0,0.0,0.0,0.0,0.0,0.0,0.0,0.0,0.0,0.0,0.0,0.0,0.0,0.0,0.0,0.0,0.0,0.0,0.0,0.0,0.0,0.0,0.0,0.0,0.0,0.0,0.0,0.0,0.0,0.0,0.0,0.0,0.0,0.0,0.0,0.0,-5.2119,-5.3276,-5.3722,0.0,0.0,0.0,0.0,0.0,0.0,-4.9969,-4.9633,0.0,0.0,0.0,0.0,0.0,0.0,0.0,0.0,0.0,0.0,0.0,0.0,0.0,0.0,0.0,0.0,0.0,0.0,0.0,0.0,0.0,0.0,0.0,0.0,0.0,0.0,0.0,0.0,0.0,0.0,0.0,0.0,0.0,0.0,0.0,0.0,0.0,0.0,0.0,0.0,0.0,0.0,0.0,0.0,0.0,0.0,0.0,0.0,0.0,0.0,0.0,0.0,0.0,0.0,0.0,-5.1002,-5.3146,-5.4832,-5.5935,-5.6003,-5.5882,-5.5625,-5.4005,-5.2045,0.0,0.0,0.0,0.0,0.0,0.0,0.0,0.0,0.0,0.0,0.0,0.0,0.0,0.0,0.0,0.0,0.0,0.0,0.0,0.0,0.0,0.0,0.0,0.0,0.0,0.0,0.0,0.0,0.0,0.0,0.0,0.0,0.0,0.0,0.0,0.0,0.0,0.0,0.0,0.0,0.0,-5.447,-5.4469,-5.3929,0.0,0.0,0.0,0.0,-5.1294,-5.0673,0.0,0.0,0.0,0.0,0.0,0.0,0.0,0.0,0.0,0.0,0.0,0.0,0.0,0.0,0.0,0.0,0.0,0.0,0.0,0.0,0.0,0.0,0.0,0.0,0.0,0.0,0.0,0.0,0.0,0.0,0.0,0.0,0.0,0.0,0.0,0.0,0.0,0.0,0.0,0.0,0.0,0.0,0.0,0.0,0.0,0.0,0.0,0.0,0.0,0.0,0.0,0.0,0.0,0.0,0.0,0.0,-5.0828,-5.195,-5.3633,-5.5857,-5.6003,-5.5601,-5.4776,-5.4027,-5.2081,0.0,0.0,0.0,0.0,0.0,0.0,0.0,0.0,0.0,0.0,0.0,0.0,0.0,0.0,0.0,0.0,0.0,0.0,0.0,0.0,0.0,0.0,0.0,0.0,0.0,0.0,0.0,0.0,0.0,0.0,0.0,0.0,0.0,0.0,0.0,0.0,0.0,0.0,0.0,0.0,0.0,-5.6007,-5.3102,-5.3159,-5.3149,0.0,0.0,-5.3084,-5.3011,-5.3313,0.0,0.0,0.0,0.0,0.0,0.0,0.0,0.0,0.0,0.0,0.0,0.0,0.0,0.0,0.0,0.0,0.0,0.0,0.0,0.0,0.0,0.0,0.0,0.0,0.0,0.0,0.0,0.0,0.0,0.0,0.0,0.0,0.0,0.0,0.0,0.0,0.0,0.0,0.0,0.0,0.0,0.0,0.0,0.0,0.0,0.0,0.0,0.0,0.0,0.0,0.0,0.0,0.0,0.0,0.0,-4.8658,-5.019,-5.1525,-5.2975,-5.4523,-5.4581,-5.4364,-5.3888,-5.2107,-5.014,0.0,0.0,0.0,0.0,0.0,0.0,0.0,0.0,0.0,0.0,0.0,0.0,0.0,0.0,0.0,0.0,0.0,0.0,0.0,0.0,0.0,0.0,0.0,0.0,0.0,0.0,0.0,0.0,0.0,0.0,0.0,0.0,0.0,0.0,0.0,0.0,0.0,0.0,0.0,0.0,0.0,0.0,-5.4002,-5.4444,0.0,0.0,0.0,-5.331,-5.3096,0.0,0.0,0.0,0.0,0.0,0.0,0.0,0.0,0.0,0.0,0.0,0.0,0.0,0.0,0.0,0.0,0.0,0.0,0.0,0.0,0.0,0.0,0.0,0.0,0.0,0.0,0.0,0.0,0.0,0.0,0.0,0.0,0.0,0.0,0.0,0.0,0.0,0.0,0.0,0.0,0.0,0.0,0.0,0.0,0.0,0.0,0.0,0.0,0.0,0.0,0.0,0.0,0.0,0.0,0.0,0.0,0.0,-4.9378,-5.1235,-5.2616,-5.3459,-5.3498,-5.3252,-5.2663,-5.0615,0.0,0.0,0.0,0.0,0.0,0.0,0.0,0.0,0.0,0.0,0.0,0.0,0.0,0.0,0.0,0.0,0.0,0.0,0.0,0.0,0.0,0.0,0.0,0.0,0.0,0.0,0.0,-4.0816,0.0,0.0,0.0,0.0,0.0,0.0,0.0,0.0,0.0,0.0,0.0,0.0,0.0,0.0,-5.4728,-5.4316,-5.5253,-5.5754,0.0,0.0,-5.3782,-5.3456,-5.3286,-5.2336,0.0,0.0,0.0,0.0,0.0,0.0,0.0,0.0,0.0,0.0,0.0,0.0,0.0,0.0,0.0,0.0,0.0,0.0,0.0,0.0,0.0,0.0,0.0,0.0,0.0,0.0,0.0,0.0,0.0,0.0,0.0,0.0,0.0,0.0,0.0,0.0,0.0,0.0,0.0,0.0,0.0,0.0,0.0,0.0,0.0,0.0,0.0,0.0,0.0,0.0,0.0,0.0,0.0,0.0,0.0,-4.8527,-5.0925,-5.2569,-5.344,-5.3498,-5.2708,-5.1112,-5.0577,-4.8641,0.0,0.0,0.0,0.0,0.0,0.0,0.0,0.0,0.0,0.0,0.0,0.0,0.0,0.0,0.0,0.0,0.0,0.0,0.0,0.0,0.0,0.0,0.0,0.0,0.0,0.0,0.0,0.0,0.0,0.0,0.0,0.0,0.0,0.0,0.0,0.0,0.0,0.0,0.0,0.0,0.0,-5.4243,-5.269,-5.4494,-5.5874,0.0,0.0,-5.5152,-5.4799,-5.5092,-5.4025,-5.0043,0.0,0.0,0.0,0.0,0.0,0.0,0.0,0.0,0.0,0.0,0.0,0.0,0.0,0.0,0.0,0.0,0.0,0.0,0.0,0.0,0.0,0.0,0.0,0.0,0.0,0.0,0.0,0.0,0.0,0.0,0.0,0.0,0.0,0.0,0.0,0.0,0.0,0.0,0.0,0.0,0.0,0.0,0.0,0.0,0.0,0.0,0.0,0.0,0.0,0.0,0.0,0.0,0.0,-4.6467,-4.6815,-4.8783,-4.998,-5.0267,-5.0294,-4.9977,-4.9296,-4.8692,-4.7041,0.0,0.0,0.0,0.0,0.0,0.0,0.0,0.0,0.0,0.0,0.0,0.0,0.0,0.0,0.0,0.0,0.0,0.0,0.0,0.0,0.0,0.0,0.0,0.0,0.0,0.0,0.0,0.0,-4.2841,-4.2899,-4.3537,0.0,0.0,0.0,0.0,0.0,0.0,0.0,0.0,0.0,0.0,-5.3111,-5.29,-5.4487,0.0,0.0,-5.474,-5.4191,-5.3891,-5.354,-5.2198,-4.888,-4.782,0.0,0.0,0.0,0.0,0.0,0.0,0.0,0.0,0.0,0.0,0.0,0.0,0.0,0.0,0.0,0.0,0.0,0.0,0.0,0.0,0.0,0.0,0.0,0.0,0.0,0.0,0.0,0.0,0.0,0.0,0.0,0.0,0.0,0.0,0.0,0.0,0.0,0.0,0.0,0.0,0.0,0.0,0.0,0.0,0.0,0.0,0.0,0.0,0.0,0.0,0.0,0.0,-4.5418,-4.5418,-4.7325,-4.8309,-4.8311,-4.8311,-4.8184,-4.7948,-4.7399,-4.6061,0.0,0.0,0.0,0.0,0.0,0.0,0.0,0.0,0.0,0.0,0.0,0.0,0.0,0.0,0.0,0.0,0.0,0.0,0.0,0.0,0.0,0.0,0.0,0.0,0.0,0.0,0.0,0.0,-4.3614,-4.3556,-4.3788,0.0,0.0,0.0,0.0,0.0,0.0,0.0,0.0,0.0,0.0,-5.1678,-5.2567,-5.3827,-5.4551,-5.4272,-5.3585,-5.2897,-5.2344,-5.1982,-5.0837,-4.8142,0.0,0.0,0.0,0.0,0.0,0.0,0.0,0.0,0.0,0.0,0.0,0.0,0.0,0.0,0.0,0.0,0.0,0.0,0.0,0.0,0.0,0.0,0.0,0.0,0.0,0.0,0.0,0.0,0.0,0.0,-4.4659,0.0,0.0,0.0,0.0,0.0,0.0,0.0,0.0,0.0,0.0,0.0,0.0,0.0,0.0,0.0,0.0,0.0,0.0,0.0,0.0,0.0,0.0,-4.4531,-4.4569,-4.6962,-4.8252,-4.8253,-4.8292,-4.7882,-4.7146,-4.7097,-4.6163,-4.4196,0.0,0.0,0.0,0.0,0.0,0.0,0.0,0.0,0.0,0.0,0.0,0.0,0.0,0.0,0.0,0.0,0.0,0.0,0.0,0.0,0.0,0.0,0.0,0.0,0.0,0.0,-4.2125,-4.139,-4.1274,0.0,0.0,0.0,0.0,0.0,0.0,0.0,0.0,0.0,0.0,-4.889,-4.9981,-5.1339,-5.2229,-5.2641,-5.2085,-5.1992,-5.1552,-5.0408,-5.084,-5.0561,0.0,0.0,0.0,0.0,0.0,0.0,0.0,0.0,0.0,0.0,0.0,0.0,0.0,0.0,0.0,0.0,0.0,0.0,0.0,0.0,0.0,0.0,0.0,0.0,0.0,0.0,0.0,-4.6508,-4.5775,0.0,0.0,0.0,0.0,0.0,0.0,0.0,0.0,0.0,0.0,0.0,-4.4168,-4.4168,0.0,0.0,0.0,0.0,0.0,0.0,0.0,0.0,0.0,0.0,0.0,0.0,-4.3559,-4.3655,-4.55,-4.6546,-4.6572,-4.6572,-4.6449,-4.6245,-4.6238,-4.5082,-4.2626,0.0,0.0,0.0,0.0,0.0,0.0,0.0,0.0,0.0,0.0,0.0,0.0,0.0,0.0,0.0,0.0,0.0,0.0,0.0,0.0,0.0,0.0,0.0,0.0,0.0,-4.286,0.0,0.0,0.0,0.0,0.0,0.0,0.0,0.0,0.0,0.0,0.0,-4.623,-4.7761,-4.8603,-4.9395,-5.0298,-5.1426,-5.2054,0.0,0.0,0.0,0.0,0.0,0.0,0.0,0.0,0.0,0.0,0.0,0.0,0.0,0.0,-4.6327,-4.5807,-4.5249,-4.4708,-4.4147,0.0,0.0,0.0,0.0,0.0,0.0,0.0,0.0,0.0,0.0,0.0,0.0,0.0,0.0,-4.5823,0.0,-4.4833,0.0,0.0,0.0,0.0,0.0,0.0,0.0,0.0,-4.6097,-4.5819,-4.5026,-4.5007,-4.4717,0.0,-4.4175,-4.373,0.0,0.0,0.0,0.0,0.0,0.0,0.0,0.0,-4.3119,-4.3193,-4.4471,-4.5208,-4.5279,-4.499,-4.4865,-4.4929,-4.4929,-4.4047,-4.2184,-4.0841,-3.9071,0.0,0.0,0.0,0.0,0.0,0.0,0.0,0.0,0.0,0.0,0.0,0.0,0.0,0.0,0.0,0.0,0.0,0.0,0.0,0.0,0.0,0.0,0.0,-4.3073,0.0,0.0,0.0,0.0,0.0,0.0,0.0,0.0,0.0,-4.6245,-4.6133,-4.6273,-4.7225,-4.7678,-4.8142,-4.8737,0.0,0.0,0.0,0.0,0.0,0.0,0.0,-4.7441,-4.6624,-4.6067,-4.5621,-4.5342,-4.5955,-4.6401,-4.6122,0.0,0.0,-4.5807,-4.5491,-4.5119,-4.4562,-4.4896,-4.501,-4.4043,-4.4082,-4.3964,0.0,0.0,0.0,0.0,0.0,0.0,0.0,0.0,-4.6157,-4.5609,0.0,-4.4632,0.0,0.0,0.0,0.0,0.0,-4.6283,0.0,0.0,-4.6631,-4.6573,-4.5761,-4.5729,-4.5729,-4.5729,-4.5652,-4.5239,-4.4446,-4.2821,0.0,0.0,0.0,0.0,0.0,0.0,-4.3096,-4.3161,-4.3956,-4.4376,-4.444,-4.3668,-4.3264,-4.3337,-4.3285,-4.3132,-4.2829,-4.1829,-4.0361,-3.8414,-3.8134,0.0,0.0,0.0,0.0,0.0,0.0,0.0,0.0,0.0,0.0,0.0,0.0,0.0,0.0,0.0,0.0,0.0,0.0,0.0,0.0,-4.3247,0.0,0.0,0.0,0.0,0.0,0.0,0.0,0.0,0.0,0.0,-4.5391,-4.6043,-4.6405,-4.6313,0.0,0.0,0.0,0.0,-4.6946,-4.7623,-4.7664,-4.7683,-4.7664,-4.7646,-4.733,-4.6568,0.0,0.0,-4.5472,-4.5974,-4.6197,-4.547,-4.59,-4.642,-4.6345,-4.5788,-4.5342,-4.5268,-4.5268,-4.489,-4.3939,-4.4091,-4.4245,-4.8691,0.0,0.0,0.0,0.0,-4.7617,-4.7346,-4.6952,-4.7018,-4.6435,-4.5413,-4.4852,0.0,0.0,0.0,0.0,0.0,0.0,-4.6058,-4.5826,-4.6058,-4.5722,-4.4929,-4.4949,-4.462,-4.402,-4.402,-4.3885,-4.3614,-4.255,-4.1963,-4.1902,0.0,0.0,0.0,0.0,-4.2267,-4.2317,-4.3107,-4.3554,-4.3571,-4.334,-4.3245,-4.3305,-4.2686,-4.2337,-4.2263,-4.1772,-4.0706,-3.8971,-3.864,0.0,0.0,0.0,0.0,0.0,0.0,0.0,0.0,0.0,0.0,0.0,0.0,0.0,0.0,0.0,0.0,0.0,0.0,0.0,-4.1474,-4.2028,-4.1905,0.0,0.0,0.0,0.0,0.0,0.0,0.0,0.0,0.0,-4.4119,-4.4952,-4.5631,0.0,0.0,-4.5777,-4.5859,-4.6262,-4.6634,-4.6828,-4.6847,0.0,0.0,-4.6364,-4.59,-4.5677,-4.5639,-4.5732,-4.6104,-4.5881,-4.5565,-4.5305,-4.4971,-4.4711,-4.4766,-4.5547,-4.5862,-4.5454,-4.5287,-4.4927,-4.3884,-4.3323,-4.2804,-4.8223,-4.8359,-4.8008,-4.7578,-4.709,-4.707,-4.7,-4.6855,-4.6895,-4.6512,-4.5848,-4.5305,-4.4601,-4.3846,-4.4369,0.0,0.0,0.0,-4.5142,-4.4813,-4.4813,-4.4543,-4.4117,-4.4091,-4.3827,-4.3324,-4.3305,-4.3305,-4.3305,-4.2434,-4.2002,-4.1909,0.0,0.0,-4.067,-4.1499,-4.1926,-4.1954,-4.2463,-4.2721,-4.2723,-4.2421,-4.2408,-4.2744,-4.1951,-4.1661,-4.199,-4.1462,-4.068,-3.9673,-3.9057,-3.8299,0.0,0.0,0.0,0.0,0.0,0.0,0.0,0.0,0.0,0.0,0.0,-3.8605,-3.7767,0.0,0.0,0.0,-4.0365,-4.1126,-4.0713,-4.1427,0.0,0.0,0.0,0.0,0.0,0.0,0.0,-4.4201,-4.3813,-4.3434,-4.3486,-4.3705,-4.4216,-4.5115,-4.5128,-4.5028,-4.5002,0.0,-4.5621,-4.5974,-4.6011,-4.6122,-4.6438,-4.5825,-4.5194,-4.4841,-4.4506,-4.4599,-4.5324,-4.4599,-4.3968,-4.4116,-4.3615,-4.3039,-4.3058,-4.3893,-4.4562,-4.4339,-4.4302,-4.3945,-4.289,-4.2154,-4.1534,-4.8223,-4.7422,-4.6641,-4.6367,-4.6406,-4.6406,-4.6324,-4.62,-4.6215,-4.6142,-4.6007,-4.5867,-4.5369,-4.4601,-4.4516,0.0,-4.3343,-4.4136,-4.4072,-4.3305,-4.3305,-4.3266,-4.3189,-4.3208,-4.3169,-4.3111,-4.3092,-4.3092,-4.3053,-4.228,-4.1919,-4.1879,-4.1106,-4.072,-4.0758,-4.1485,-4.1899,-4.1912,-4.1893,-4.1912,-4.1893,-4.1177,-4.1139,-4.1874,-4.1197,-4.1158,-4.1835,-4.1075,-4.0554,-4.0411,-3.9501,-3.8545,-3.7699,0.0,0.0,0.0,0.0,0.0,0.0,0.0,0.0,0.0,0.0,0.0,0.0,0.0,0.0,0.0,-4.0449,0.0,-4.0576,-4.1208,0.0,0.0,0.0,-4.0134,-4.0264,-4.1413,-4.251,-4.3296,0.0,0.0,-4.3106,0.0,-4.2466,-4.3989,-4.4121,-4.4124,-4.4184,-4.4107,-4.4283,-4.5082,-4.5194,-4.5417,-4.5844,-4.5324,-4.4544,-4.3838,-4.3188,-4.3039,-4.3578,-4.2742,-4.2036,-4.263,-4.211,-4.1627,-4.1623,-4.1776,-4.1813,-4.2519,-4.2686,-4.2406,-4.1528,-4.0991,-4.0577,-4.6797,-4.6601,-4.6387,-4.668,-4.7285,-4.7285,-4.689,-4.6261,-4.6878,-4.6744,-4.6068,-4.5988,-4.544,-4.4562,-4.3904,-4.3498,-4.3324,-4.3518,-4.3498,-4.3324,-4.3305,-4.2937,-4.2318,-4.2299,-4.199,-4.1429,-4.139,-4.1396,-4.139,-4.1177,-4.1081,-4.1074,-4.0875,-4.0746,-4.072,-4.0913,-4.1023,-4.1081,-4.1087,-4.1081,-4.1067,-4.0893,-4.0893,-4.1067,-4.0893,-4.0874,-4.1061,-4.1461,-4.1357,-4.0752,-4.0454,-3.9863,-3.885,-3.7594,0.0,0.0,0.0,0.0,0.0,0.0,0.0,0.0,0.0,-3.6864,-3.6052,0.0,-3.7477,0.0,-3.9824,-4.0752,-4.053,-4.0606,0.0,0.0,-4.0857,-4.1366,-4.246,-4.2881,-4.2904,-4.2395,-4.2305,-4.2007,-4.1394,-4.1044,-4.1218,-4.2215,-4.2853,-4.3405,-4.394,-4.402,-4.4061,-4.4228,-4.4265,-4.4153,-4.3763,-4.3002,-4.2478,-4.2222,-4.1999,-4.1962,-4.2147,-4.1869,-4.1683,-4.185,-4.1757,-4.1609,-4.1568,-4.1605,-4.14,-4.1126,-4.1441,-4.1757,-4.1288,-4.0447,-3.9637,-4.6289,-4.625,-4.5898,-4.6016,-4.6465,-4.6855,-4.6718,-4.63,-4.6718,-4.662,-4.61,-4.5659,-4.4958,-4.4046,-4.3561,-4.3105,-4.2744,-4.2725,-4.2531,-4.2183,-4.2183,-4.1932,-4.1467,-4.1474,-4.1222,-4.0777,-4.0429,-4.0216,-4.0216,-4.0216,-4.0216,-4.0236,-4.0603,-4.0765,-4.0746,-4.0746,-4.0771,-4.0797,-4.0797,-4.0797,-4.0797,-4.0797,-4.0623,-4.0236,-4.0216,-4.0042,-3.9669,-4.0075,-4.0094,-3.9669,-3.963,-3.9212,-3.8234,-3.7283,-3.6627,0.0,0.0,0.0,0.0,0.0,0.0,0.0,0.0,0.0,0.0,0.0,-3.7359,-3.8569,-3.9788,-4.0439,-4.0309,-4.0223,-4.0272,-4.0569,-4.0549,-4.1017,-4.2178,-4.2252,-4.2156,-4.2023,-4.1659,-4.1239,-4.075,-4.0301,-4.0313,-4.1073,-4.1529,-4.2058,-4.2757,-4.2946,-4.2927,-4.2927,-4.2946,-4.2797,-4.2314,-4.1906,-4.1605,-4.1553,-4.1293,-4.1163,-4.1497,-4.0958,-4.0587,-4.094,-4.0754,-4.0494,-4.0494,-4.0494,-4.0308,-4.0048,-4.016,-4.0395,-4.03,-3.9687,-3.898,-4.6074,-4.5898,-4.5156,-4.4844,-4.4902,-4.5762,-4.6113,-4.6152,-4.62,-4.6149,-4.5966,-4.4947,-4.402,-4.3243,-4.3117,-4.2637,-4.1879,-4.1861,-4.1467,-4.0816,-4.0797,-4.0797,-4.0797,-4.0797,-4.0797,-4.0758,-3.9907,-3.9481,-3.9481,-3.9385,-3.9327,-3.9365,-4.0094,-4.0468,-4.0468,-4.0468,-4.0462,-4.0468,-4.0462,-4.0462,-4.0468,-4.0468,-4.01,-3.9385,-3.9327,-3.8972,-3.8251,-3.8212,-3.8212,-3.8212,-3.8212,-3.7851,-3.7091,-3.698,-3.6593,0.0,-3.5762,0.0,0.0,0.0,0.0,0.0,0.0,0.0,0.0,-3.692,-3.7678,-3.9153,-3.9965,-4.0307,-4.0023,-3.9982,-3.9935,-3.9863,-3.9849,-4.0152,-4.0948,-4.0898,-4.106,-4.1779,-4.1041,-4.0453,-4.0308,-3.97,-3.9509,-4.0057,-4.0268,-4.056,-4.1159,-4.1516,-4.172,-4.1605,-4.1497,-4.1516,-4.1404,-4.12,-4.1014,-4.1089,-4.0513,-4.0364,-4.1051,-4.0085,-3.938,-3.9955,-3.9547,-3.9008,-3.8934,-3.8897,-3.8785,-3.8729,-3.8785,-3.8841,-3.8943,-3.8792,-3.832,-4.4844,-4.416,-4.4023,-4.3945,-4.4004,-4.4883,-4.5234,-4.5293,-4.5976,-4.5852,-4.5051,-4.3482,-4.2651,-4.2369,-4.1678,-4.1262,-4.1106,-4.1052,-4.0951,-4.0797,-4.0797,-4.0797,-4.0797,-4.0797,-4.0797,-4.0739,-3.9926,-3.9481,-3.9481,-3.8779,-3.845,-3.845,-3.8624,-3.8676,-3.8696,0.0,0.0,0.0,-3.8676,-3.8682,-3.8676,-3.8702,-3.8618,-3.8444,-3.845,0.0,-3.8212,-3.8212,-3.8212,-3.8212,-3.8212,0.0,0.0,0.0,0.0,0.0,0.0,0.0,0.0,0.0,0.0,0.0,-3.5726,-3.5783,-3.6516,-3.7784,-3.8731,-3.9128,-3.9716,-4.0062,-3.9993,-3.9848,-4.001,-4.0609,-4.0622,-4.0904,-4.1661,-4.1173,-4.0872,-4.0985,-3.9708,-3.8776,-3.8764,-3.8546,-3.8465,-3.86,-3.9056,-3.9435,-3.9542,-4.0694,-4.1549,-4.1568,-4.0936,-4.0587,-4.062,-3.9486,-3.8971,-3.9268,-3.8915,-3.8748,-3.9361,-3.938,-3.9082,-3.9305,-3.8674,-3.8135,-3.8135,-3.761,-3.7299,-3.7201,-3.7206,-3.7355,-3.7968,-3.7919,-3.7415,-4.4101,0.0,-4.3223,-4.3066,0.0,-4.3535,-4.3965,-4.4414,-4.5293,-4.4901,-4.3606,-4.2747,-4.2091,-4.164,-4.1203,-4.0993,-4.0953,-4.093,-4.0903,-4.0903,-4.0872,-4.0846,-4.0846,-4.0808,-4.0584,-4.012,-3.9288,-3.863,-3.8224,-3.7773,-3.756,-3.7555,-3.798,-3.8212,-3.8193,-3.7767,-3.7754,-3.8212,-3.8212,-3.8212,-3.8212,-3.8212,-3.7999,-3.7574,0.0,0.0,0.0,0.0,0.0,0.0,0.0,0.0,0.0,0.0,0.0,-3.6284,-3.5916,-3.5704,-3.5704,-3.5704,-3.5668,-3.5602,-3.5848,-3.6327,-3.716,-3.8709,-3.9644,-3.9693,-3.9881,-3.997,-3.987,-3.975,-3.9851,-4.0209,-4.0221,-4.0234,-4.0128,-3.984,-3.9408,-3.8976,-3.8225,-3.7699,-3.7718,-3.764,-3.7591,-3.7561,-3.7829,-3.8063,-3.8128,-3.9352,-4.0234,-3.9844,-3.9101,-3.8595,-3.8507,-3.7981,-3.7424,-3.7745,-3.7559,-3.7485,-3.7819,-3.7894,-3.7912,-3.7875,-3.7559,-3.7299,-3.7318,-3.7243,-3.7299,-3.7336,-3.7596,-3.7801,-3.7949,-3.7697,-3.7073,-4.3377,-4.3181,-4.246,-4.2168,-4.2168,-4.2324,-4.2812,-4.3535,0.0,0.0,0.0,-4.2246,-4.1795,-4.1116,-4.1112,-4.1072,-4.1009,-4.1016,-4.099,-4.0987,-4.0949,-4.0935,-4.0911,-4.0712,-4.0211,-3.9497,-3.8485,-3.7616,-3.6922,-3.6767,-3.6671,-3.6767,-3.7425,-3.7748,-3.7696,-3.7058,-3.7038,-3.7729,-3.7773,-3.7754,-3.7748,-3.7767,-3.7425,-3.6704,-3.669,-3.6381,-3.5723,-3.5704,-3.5704,-3.5704,-3.5704,-3.5704,-3.5704,-3.5704,-3.5704,-3.5704,-3.5704,-3.5704,-3.5704,-3.5704,-3.5656,-3.554,-3.6183,-3.6895,-3.769,-3.9015,-3.9844,-3.983,-3.9662,-3.9499,-3.9477,-3.9467,-3.9488,-3.9583,-3.9608,-3.9289,-3.8469,-3.815,-3.7887,-3.7223,-3.6866,-3.6735,-3.6866,-3.6846,-3.6798,-3.6786,-3.6925,-3.6895,-3.6969,-3.7915,-3.8502,-3.7912,-3.7392,-3.6848,-3.6736,-3.6606,-3.6556,-3.6773,-3.663,-3.6532,-3.6662,-3.6718,-3.6718,-3.6848,-3.663,-3.6513,-3.6532,-3.6742,-3.7312,-3.7461,-3.7986,-3.8321,-3.7843,-3.7604,-3.7028,-4.2143,-4.146,-4.1323,-4.1286,-4.1326,-4.2089,-4.248,-4.2656,-4.3516,-4.332,-4.2363,-4.166,-4.1308,-4.1191,-4.112,-4.1106,-4.108,-4.1017,-4.099,0.0,-4.0981,-4.0977,-4.0954,-4.0224,-3.9774,-3.948,-3.7933,-3.7075,-3.685,-3.6207,-3.5883,-3.5883,-3.5994,-3.6091,-3.6033,-3.5936,-3.5916,-3.6052,-3.6052,-3.6052,-3.6052,-3.6033,-3.5999,-3.5878,-3.5878,-3.582,-3.5704,-3.5704,-3.5704,-3.5704,-3.5704,-3.5704,-3.5704,-3.5709,-3.5704,-3.5704,-3.5704,-3.5704,-3.5704,-3.5704,-3.5698,-3.5706,-3.6404,-3.6826,-3.6746,-3.7537,-3.8044,-3.8002,-3.7937,-3.8035,-3.8554,-3.8602,-3.8862,-3.9508,-3.962,-3.9251,-3.8394,-3.7699,-3.7242,-3.7054,-3.5814,-3.5326,-3.5935,-3.6055,-3.6013,-3.6023,-3.6344,-3.6851,-3.6715,-3.6905,-3.6996,-3.6891,-3.6792,-3.6718,-3.6476,-3.6086,-3.5956,-3.6606,-3.6067,-3.5863,-3.6402,-3.6495,-3.6513,-3.6662,-3.6067,-3.5714,-3.5659,-3.5101,-3.5367,-3.5863,-3.6259,-3.6402,-3.6853,-3.7198,-3.7077,-4.1411,-4.1062,-4.1082,-4.1108,-4.1168,-4.2048,-4.2148,-4.1836,-4.2637,-4.2519,-4.1758,-4.1367,-4.1191,-4.1191,-4.1169,-4.1147,-4.1147,-4.1117,-4.1111,-4.107,-4.0582,-4.0337,-4.0274,-3.9405,-3.8728,-3.8213,-3.7454,-3.6814,-3.6312,-3.5896,-3.5713,-3.5708,-3.5697,-3.5704,-3.5704,-3.5704,-3.5472,-3.5032,-3.5452,-3.5704,-3.5704,-3.5704,-3.5704,-3.5704,-3.5704,-3.5704,-3.5704,-3.5701,-3.5706,-3.5706,-3.5702,-3.5713,-3.5713,-3.5713,-3.5702,-3.5711,-3.5711,-3.5706,-3.5704,-3.5704,-3.5704,-3.5723,-3.6013,-3.6192,-3.6074,-3.7185,-3.782,-3.7775,-3.7646,-3.788,-3.862,-3.8599,-3.8852,-3.9679,-3.9691,-3.9288,-3.8425,-3.7587,-3.693,-3.6423,-3.5371,-3.4781,-3.5146,-3.5184,-3.5184,-3.5139,-3.5492,-3.5633,-3.5574,-3.5478,-3.5585,-3.59,-3.5677,-3.5367,-3.5349,-3.5083,-3.499,-3.5312,-3.5045,-3.4959,-3.5312,-3.5349,-3.538,-3.5349,-3.5027,-3.4829,-3.481,-3.4903,-3.507,-3.5349,-3.5919,-3.6309,-3.6673,-3.6809,-3.6545,-4.0951,-4.0961,-4.1041,-4.1081,-4.1164,-4.1813,-4.1737,-4.1269,-4.1836,-4.1757,-4.123,-4.1191,-4.1191,-4.1191,-4.1191,-4.1074,-4.0918,-4.0898,-4.0801,-4.0547,-3.9856,-3.9536,-3.9436,-3.8586,-3.7783,-3.7152,-3.6935,-3.6462,-3.5864,-3.5755,-3.5729,-3.5725,-3.5726,-3.5621,-3.5451,-3.5626,-3.519,-3.426,-3.499,-3.5333,-3.5123,-3.5298,-3.54,-3.54,-3.5405,-3.5502,-3.5676,-3.5528,-3.5441,-3.5441,-3.5422,-3.5413,-3.5437,-3.5607,-3.5699,-3.5698,-3.5718,-3.5707,-3.5706,-3.5701,-3.5715,-3.5715,-3.5709,-3.5704,-3.5795,-3.6774,-3.7455,-3.7373,-3.7179,-3.7455,-3.8096,-3.8204,-3.8497,-3.9254,-3.9444,-3.9067,-3.8206,-3.7513,-3.6821,-3.5991,-3.5127,-3.4612,-3.4612,-3.4612,-3.465,-3.4639,-3.4539,-3.4487,-3.4484,-3.4404,-3.4628,-3.4878,-3.4637,-3.4327,-3.4216,-3.4253,-3.4271,-3.4216,-3.4253,-3.4309,-3.4346,-3.4271,-3.4234,-3.4327,-3.429,-3.429,-3.429,-3.468,-3.5157,-3.5436,-3.59,-3.6383,-3.663,-3.6581,-3.6272,-4.0824,-4.0842,-4.0938,-4.1042,-4.1119,-4.1222,-4.1186,-4.1147,-4.1206,-4.1187,-4.1129,-4.1171,-4.1191,-4.1191,-4.1191,-4.0762,-4.0098,-4.0019,-3.9629,-3.8945,-3.8769,-3.8711,-3.8632,-3.7812,-3.7318,-3.7066,-3.6417,-3.6013,-3.5827,-3.5789,-3.5808,-3.5799,-3.5797,-3.5401,-3.4798,-3.5378,-3.4975,-3.3378,-3.4163,-3.4178,-3.3441,-3.4098,-3.4529,-3.451,-3.4516,-3.4913,-3.5528,-3.5006,-3.4613,-3.4613,-3.4618,-3.4599,-3.4676,-3.5282,-3.5665,-3.5665,-3.5684,-3.5704,-3.5699,-3.5718,-3.5702,-3.5702,-3.5706,-3.5709,-3.5709,-3.5853,-3.5865,-3.5849,-3.5713,-3.6085,-3.6613,-3.6738,-3.7161,-3.8069,-3.8507,-3.8462,-3.7823,-3.7335,-3.6866,-3.5991,-3.5265,-3.4612,-3.4642,-3.4612,-3.4612,-3.4612,-3.455,-3.4517,-3.4487,-3.445,-3.44,-3.4454,-3.4264,-3.4228,-3.4197,-3.4216,-3.4216,-3.4216,-3.4216,-3.4216,-3.4216,-3.4216,-3.4216,-3.4216,-3.4216,-3.4216,-3.4216,-3.4327,-3.4624,-3.5138,-3.551,-3.5789,-3.6439,-3.6493,-3.6241,-4.0751,-4.0743,-4.0848,-4.0942,-4.1029,-4.1076,-4.1104,-4.1107,-4.1107,-4.1107,-4.1108,-4.113,-4.115,-4.1111,-4.0644,-4.0214,-3.9882,-3.9375,-3.8965,-3.8554,-3.8085,-3.7812,-3.7733,-3.6932,-3.6523,-3.6484,-3.6113,-3.5955,-3.593,-3.588,-3.5843,-3.5804,-3.5802,-3.5364,-3.4608,-3.4842,-3.4186,-3.258,-3.3352,-3.3112,-3.201,-3.2997,-3.3679,-3.3684,-3.3689,-3.3848,-3.4144,-3.3891,-3.3725,-3.3729,-3.3762,-3.3785,-3.3789,-3.41,-3.427,-3.4253,-3.4724,-3.52,-3.567,-3.5718,-3.5713,-3.5713,-3.5703,-3.5707,-3.5711,-3.5711,-3.5684,-3.5645,-3.5583,-3.59,-3.66,-3.664,-3.7099,-3.8183,-3.8322,-3.8318,-3.9023,-3.8051,-3.7261,-3.6847,-3.6087,-3.5279,-3.4819,-3.4623,-3.4612,-3.4612,-3.4561,-3.4561,-3.455,-3.4506,-3.4461,-3.4397,-3.4328,-3.4245,-3.4209,-3.4216,-3.4216,-3.4216,-3.4216,-3.4216,-3.4216,-3.4216,-3.4216,-3.4216,-3.4216,-3.4216,-3.4216,-3.4216,-3.4364,-3.4754,-3.4699,-3.4736,-3.4581,-3.4897,-3.4933,-4.0507,-4.0372,-4.0646,-4.0837,-4.0948,-4.0991,-4.1039,-4.1072,-4.1073,-4.1077,-4.1084,-4.0869,-4.0752,-4.0675,-4.0151,-3.9665,-3.9138,-3.8515,-3.8105,-3.785,-3.7225,-3.695,-3.687,-3.6323,-3.601,-3.601,-3.6011,-3.6011,-3.5992,-3.5957,-3.5894,-3.5844,-3.5627,-3.5058,-3.429,-3.4191,-3.3365,-3.1913,-3.2533,-3.2221,-3.1108,-3.1902,-3.2652,-3.2842,-3.2858,-3.297,-3.3186,-3.3005,-3.2881,-3.2881,-3.2932,-3.2943,-3.2963,-3.3157,-3.3382,-3.358,-3.4145,-3.485,-3.565,-3.5718,-3.5737,-3.5737,-3.5713,-3.5699,-3.5703,-3.5698,-3.5713,-3.5692,-3.5706,-3.598,-3.6427,-3.6471,-3.6993,-3.805,-3.7659,-3.8044,-3.9115,-3.8276,-3.7518,-3.7394,-3.6544,-3.5796,-3.4987,-3.4749,-3.472,-3.4718,-3.4666,-3.4623,-3.4612,-3.455,-3.4536,-3.4525,-3.4416,-3.4328,-3.4245,-3.4209,-3.4209,-3.4216,-3.4216,-3.4216,-3.4216,-3.4216,-3.4216,-3.4216,-3.4216,-3.4216,-3.4216,-3.4216,-3.4179,-3.4197,-3.4197,-3.4086,-3.3881,-3.3974,-3.3956,-4.0062,-3.9564,-4.034,-4.0743,-4.082,-4.0809,-4.0879,-4.0983,-4.098,-4.1011,-4.0911,-4.019,-3.9858,-3.9803,-3.9716,-3.896,-3.7612,-3.7417,-3.6949,-3.6323,-3.6167,-3.6089,-3.605,-3.601,-3.601,-3.6009,-3.6009,-3.6009,-3.601,-3.5952,-3.5991,-3.5911,-3.515,-3.4294,-3.3555,-3.3417,-3.2594,-3.1216,-3.174,-3.1698,-3.0938,-3.0915,-3.1359,-3.1974,-3.2038,-3.2386,-3.2932,-3.2435,-3.2046,-3.2046,-3.2046,-3.2066,-3.2124,-3.2788,-3.3507,-3.4206,-3.442,-3.4843,-3.5573,-3.5773,-3.578,-3.578,-3.5742,-3.5708,-3.5708,-3.5708,-3.5704,-3.5704,-3.5698,-3.5755,-3.5831,-3.5886,-3.5919,-3.6159,-3.6524,-3.7074,-3.7827,-3.7769,-3.7451,-3.7188,-3.6445,-3.5632,-3.4974,-3.4955,-3.4898,-3.485,-3.478,-3.4676,-3.4634,-3.4594,-3.4583,-3.4528,-3.4484,-3.4431,-3.4316,-3.4269,-3.4233,-3.4172,-3.4147,-3.416,-3.4197,-3.4216,-3.416,-3.4197,-3.4216,-3.4216,-3.4216,-3.4179,-3.4141,-3.4141,-3.4179,-3.4023,-3.3361,-3.3918,-3.3974,-3.9861,-4.0088,-4.0526,-4.0705,-4.0732,-4.0781,-4.0829,-4.08,-4.0318,-4.013,-4.0045,-3.9273,-3.8647,-3.8199,-3.8224,-3.7897,-3.7275,-3.6732,-3.6302,-3.6026,-3.6007,-3.6005,-3.6021,-3.6019,-3.6019,-3.6019,-3.6021,-3.6019,-3.5923,-3.5474,-3.5162,-3.5023,-3.4299,-3.3424,-3.2725,-3.257,-3.1968,-3.0975,-3.1132,-3.1112,-3.0839,-3.0799,-3.0957,-3.1203,-3.1241,-3.1369,-3.1643,-3.134,-3.1167,-3.117,-3.1164,-3.1176,-3.1195,-3.1448,-3.2015,-3.2827,-3.3429,-3.4089,-3.4886,-3.5499,-3.5801,-3.5801,-3.5778,-3.5765,-3.577,-3.577,-3.5742,-3.5708,-3.5699,-3.5703,-3.5697,-3.5695,-3.5897,-3.6336,-3.6256,-3.6594,-3.7533,-3.7504,-3.7086,-3.6832,-3.6023,-3.5221,-3.5078,-3.4917,-3.484,-3.48,-3.484,-3.4801,-3.4718,-3.472,-3.474,-3.4626,-3.455,-3.4484,-3.4461,-3.4381,-3.4298,-3.4095,-3.3997,-3.3917,-3.3905,-3.3559,-3.3429,-3.3956,-3.4067,-3.4141,-3.4123,-3.4067,-3.4011,-3.3621,-3.3707,-3.3454,-3.2823,-3.3398,-3.3621,-3.9785,-4.0454,-4.0588,-4.0629,-4.0642,-4.0686,-4.0569,-4.031,-3.9777,-3.9444,-3.9126,-3.8357,-3.7686,-3.7246,-3.6985,-3.6893,-3.682,-3.6258,-3.6004,-3.6021,-3.6021,-3.6017,-3.6012,-3.6012,-3.6012,-3.6012,-3.6012,-3.5875,-3.5543,-3.4979,-3.4569,-3.4237,-3.3417,-3.2695,-3.215,-3.1836,-3.1368,-3.0878,-3.08,-3.0801,-3.08,-3.08,-3.0786,-3.0796,-3.0801,-3.0791,-3.0785,-3.0751,-3.0717,-3.073,-3.0739,-3.0728,-3.0707,-3.0707,-3.1082,-3.1953,-3.2532,-3.339,-3.4365,-3.5041,-3.5503,-3.5775,-3.5795,-3.5806,-3.5793,-3.5793,-3.5784,-3.5732,-3.5722,-3.5728,-3.5733,-3.5732,-3.5938,-3.6367,-3.6033,-3.6253,-3.748,-3.7179,-3.6852,-3.6594,-3.5848,-3.5275,-3.513,-3.507,-3.4991,-3.486,-3.4964,-3.4927,-3.479,-3.4761,-3.4811,-3.4708,-3.4612,-3.455,-3.4528,-3.4495,-3.4098,-3.3847,-3.3589,-3.3536,-3.3278,-3.2894,-3.2983,-3.3577,-3.3881,-3.3974,-3.3993,-3.3918,-3.3566,-3.3064,-3.2897,-3.2748,-3.2655,-3.2871,-3.3039,-3.9785,-4.0458,-4.0496,-4.0473,-4.0404,-4.04,-4.0053,-3.943,-3.9288,-3.88,-3.8225,-3.7452,-3.7027,-3.6916,-3.6384,-3.6049,-3.6111,-3.6034,-3.6013,-3.6013,-3.6013,-3.6012,-3.6012,-3.6012,-3.6012,-3.6012,-3.6012,-3.5563,-3.4842,-3.4608,-3.4178,-3.3377,-3.2539,-3.2051,-3.2052,-3.1289,-3.0859,-3.08,-3.08,-3.08,-3.08,-3.08,-3.0801,-3.0803,-3.0785,-3.0798,-3.0793,-3.0785,-3.0799,-3.0778,-3.0796,-3.0765,-3.0706,-3.0706,-3.1061,-3.1746,-3.2011,-3.2827,-3.4109,-3.4501,-3.4983,-3.5503,-3.5756,-3.5795,-3.5791,-3.5791,-3.5791,-3.5786,-3.5773,-3.5799,-3.5775,-3.5737,-3.5742,-3.572,-3.5734,-3.6049,-3.6511,-3.6703,-3.6642,-3.64,-3.5835,-3.5483,-3.5431,-3.5369,-3.5285,-3.5168,-3.5102,-3.5027,-3.4908,-3.486,-3.4751,-3.471,-3.473,-3.4722,-3.4649,-3.4556,-3.3992,-3.3504,-3.3209,-3.3008,-3.2505,-3.2117,-3.2467,-3.2976,-3.3343,-3.3436,-3.3305,-3.3206,-3.289,-3.2462,-3.2332,-3.2147,-3.2177,-3.2269,-3.2493,-4.0265,-4.0477,-4.0496,-4.0189,-3.9708,-3.9688,-3.9198,-3.8387,-3.7828,-3.7449,-3.719,-3.6455,-3.6145,-3.6228,-3.6026,-3.597,-3.5991,-3.6012,-3.6012,-3.6012,-3.6012,-3.6012,-3.6012,-3.6012,-3.6012,-3.6012,-3.6012,-3.5564,-3.4725,-3.41,-3.3357,-3.25,-3.1641,-3.1231,-3.1231,-3.0917,-3.08,-3.08,-3.08,-3.08,-3.08,-3.08,-3.08,-3.08,-3.08,-3.0788,-3.0797,-3.0801,-3.0797,-3.0789,-3.0783,-3.0796,-3.0783,-3.0778,-3.0869,-3.1123,-3.1696,-3.2139,-3.2788,-3.3856,-3.4579,-3.4964,-3.5426,-3.5756,-3.5795,-3.5795,-3.5795,-3.5795,-3.5806,-3.5801,-3.5803,-3.5794,-3.5757,-3.5703,-3.5703,-3.578,-3.5996,-3.6051,-3.5994,-3.5932,-3.5676,-3.5502,-3.5444,-3.5443,-3.5348,-3.5262,-3.527,-3.5247,-3.5119,-3.5094,-3.5144,-3.5077,-3.4997,-3.4879,-3.4832,-3.4707,-3.4289,-3.3546,-3.3002,-3.2446,-3.1907,-3.1416,-3.1793,-3.2311,-3.2678,-3.2846,-3.2697,-3.24,-3.2076,-3.1823,-3.1582,-3.1481,-3.1455,-3.154,-3.1697,-4.0496,-4.0477,-4.0169,-3.9765,-3.9265,-3.8996,-3.8315,-3.7526,-3.6942,-3.6574,-3.6305,-3.5861,-3.5684,-3.5784,-3.582,-3.5889,-3.5951,-3.5974,-3.5962,-3.601,-3.6012,-3.6012,-3.6012,-3.6012,-3.6012,-3.6012,-3.6012,-3.5368,-3.4237,-3.3651,-3.2811,-3.168,-3.1055,-3.08,-3.08,-3.08,-3.08,-3.08,-3.08,-3.08,-3.08,-3.08,-3.08,-3.08,-3.08,-3.08,-3.0803,-3.0794,-3.08,-3.08,-3.0795,-3.0788,-3.0783,-3.0794,-3.0779,-3.0814,-3.118,-3.1637,-3.2069,-3.3313,-3.4206,-3.4556,-3.5313,-3.5775,-3.5795,-3.5795,-3.5795,-3.5795,-3.5795,-3.5791,-3.5797,-3.5793,-3.5788,-3.5736,-3.5713,-3.5699,-3.5713,-3.5711,-3.5715,-3.5726,-3.5633,-3.5571,-3.554,-3.5496,-3.5409,-3.5362,-3.543,-3.5443,-3.5292,-3.5277,-3.5262,-3.5232,-3.5125,-3.5041,-3.5025,-3.4838,-3.4584,-3.3715,-3.2825,-3.2131,-3.1456,-3.0744,-3.0667,-3.1512,-3.202,-3.2367,-3.2273,-3.1704,-3.1294,-3.1067,-3.0889,-3.0772,-3.07,-3.0615,-3.0764,-4.0489,-4.0392,-3.97,-3.9411,-3.9181,-3.843,-3.7603,-3.6808,-3.6596,-3.6199,-3.5656,-3.559,-3.5602,-3.562,-3.5702,-3.5756,-3.5855,-3.5883,-3.5904,-3.5951,-3.5958,-3.5921,-3.5796,-3.5778,-3.5758,-3.5817,-3.5738,-3.4899,-3.3591,-3.328,-3.2479,-3.1055,-3.0859,-3.08,-3.08,-3.08,-3.08,-3.08,-3.08,-3.08,-3.0799,-3.0799,-3.0799,-3.0799,-3.0798,-3.0798,-3.0798,-3.0801,-3.0803,-3.0786,-3.0801,-3.0798,-3.0791,-3.0794,-3.0762,-3.072,-3.0713,-3.1145,-3.1886,-3.2675,-3.3549,-3.4264,-3.508,-3.5795,-3.5775,-3.5795,-3.5795,-3.5795,-3.5795,-3.5795,-3.5791,-3.5791,-3.5791,-3.5791,-3.5736,-3.5723,-3.5718,-3.5713,-3.5716,-3.5715,-3.5709,-3.5704,-3.5693,-3.5668,-3.5608,-3.554,-3.5522,-3.5463,-3.5409,-3.5362,-3.527,-3.5255,-3.5265,-3.5228,-3.5251,-3.5138,-3.4868,-3.4369,-3.3353,-3.2467,-3.1741,-3.1025,-3.0349,-3.1087,-3.1512,-3.1811,-3.1574,-3.0928,-3.0601,-3.0497,-3.0302,-3.0109,-3.0034,-3.0043,-3.0088,-4.0507,-4.0479,-4.0276,-3.985,-3.9219,-3.8373,-3.7481,-3.6654,-3.6077,-3.5724,-3.5507,-3.5521,-3.554,-3.5588,-3.5614,-3.5669,-3.5733,-3.5749,-3.5756,-3.5774,-3.5778,-3.5471,-3.5126,-3.5076,-3.5057,-3.4998,-3.4566,-3.3826,-3.3377,-3.277,-3.1892,-3.0839,-3.0776,-3.078,-3.08,-3.0799,-3.08,-3.08,-3.0796,-3.0795,-3.0794,-3.0788,-3.0785,-3.0785,-3.0786,-3.0786,-3.0786,-3.0792,-3.0796,-3.08,-3.0788,-3.0793,-3.0798,-3.08,-3.0792,-3.0764,-3.0778,-3.0804,-3.1168,-3.1897,-3.2748,-3.3569,-3.4462,-3.5119,-3.5756,-3.5795,-3.5795,-3.5795,-3.5795,-3.5795,-3.5795,-3.5795,-3.5795,-3.5791,-3.5769,-3.577,-3.5757,-3.5733,-3.5702,-3.5716,-3.5701,-3.5709,-3.5704,-3.5704,-3.5673,-3.5631,-3.562,-3.5633,-3.556,-3.5554,-3.5483,-3.5547,-3.5559,-3.5509,-3.545,-3.5364,-3.5184,-3.4905,-3.4127,-3.3228,-3.2684,-3.2247,-3.1654,-3.1553,-3.1431,-3.1599,-3.0731,-2.9876,-2.9838,-3.0037,-2.9886,-2.9783,-2.9737,-2.9709,-2.9746,-4.0468,-4.0411,-4.0055,-3.9649,-3.9077,-3.7924,-3.7129,-3.6572,-3.5797,-3.5412,-3.5412,-3.5412,-3.5423,-3.5464,-3.5483,-3.5537,-3.5616,-3.5606,-3.5636,-3.5648,-3.5657,-3.5304,-3.4898,-3.4983,-3.4895,-3.4191,-3.3996,-3.3519,-3.2861,-3.2257,-3.1586,-3.0864,-3.0709,-3.0722,-3.0741,-3.0758,-3.0765,-3.0794,-3.0792,-3.0788,-3.0786,-3.0801,-3.0799,-3.0799,-3.0799,-3.0799,-3.0799,-3.0788,-3.0795,-3.0801,-3.0787,-3.0791,-3.0793,-3.08,-3.0801,-3.0799,-3.0785,-3.0788,-3.0907,-3.1537,-3.2385,-3.3242,-3.4081,-3.4913,-3.5581,-3.5795,-3.5795,-3.5795,-3.5795,-3.5795,-3.5795,-3.5795,-3.5795,-3.5791,-3.5801,-3.5793,-3.5803,-3.5761,-3.5733,-3.5713,-3.5716,-3.5701,-3.5709,-3.5709,-3.5704,-3.5704,-3.5698,-3.5698,-3.5693,-3.5704,-3.5646,-3.5588,-3.5588,-3.5498,-3.5391,-3.5322,-3.5111,-3.4871,-3.4382,-3.3587,-3.284,-3.2542,-3.1754,-3.1157,-3.1226,-3.1043,-3.0226,-2.9636,-2.972,-2.9795,-2.9626,-2.9598,-2.9607,-2.9607,-2.9589,-4.0379,-4.0341,-3.9544,-3.9218,-3.9016,-3.7482,-3.6895,-3.66,-3.5737,-3.5315,-3.5315,-3.5315,-3.533,-3.5308,-3.536,-3.5357,-3.5483,-3.5489,-3.5523,-3.5535,-3.5499,-3.5163,-3.4363,-3.4876,-3.4406,-3.3431,-3.3975,-3.3249,-3.2277,-3.1921,-3.1388,-3.0775,-3.0598,-3.063,-3.0659,-3.0661,-3.0726,-3.0745,-3.0745,-3.0761,-3.0784,-3.0786,-3.0788,-3.079,-3.079,-3.0792,-3.0796,-3.0785,-3.0791,-3.0798,-3.0794,-3.0796,-3.0798,-3.0801,-3.08,-3.0798,-3.0797,-3.0793,-3.0863,-3.1432,-3.2285,-3.3166,-3.3984,-3.4893,-3.5547,-3.5811,-3.5799,-3.5795,-3.5795,-3.5795,-3.5795,-3.5795,-3.5795,-3.5795,-3.5795,-3.5806,-3.5793,-3.5803,-3.5766,-3.5703,-3.5718,-3.5697,-3.5706,-3.5715,-3.5701,-3.5697,-3.5653,-3.5537,-3.5551,-3.5546,-3.5444,-3.5322,-3.5342,-3.54,-3.5331,-3.5267,-3.4972,-3.4698,-3.4248,-3.3481,-3.2282,-3.1718,-3.1005,-3.0675,-3.1138,-3.0945,-3.02,-2.9883,-2.983,-2.9726,-2.9645,-2.9673,-2.9692,-2.9655,-2.9655,-4.0316,-4.0306,-4.0133,-4.0074,-3.9851,-3.8356,-3.7589,-3.7436,-3.5941,-3.53,-3.5308,-3.5308,-3.5289,-3.5308,-3.53,-3.5311,-3.5348,-3.5348,-3.5362,-3.5371,-3.5482,-3.4598,-3.3629,-3.371,-3.3157,-3.2294,-3.1614,-3.158,-3.1581,-3.1169,-3.0739,-3.0579,-3.0496,-3.0514,-3.0552,-3.0556,-3.0536,-3.0561,-3.062,-3.0675,-3.0728,-3.0767,-3.0782,-3.0791,-3.0791,-3.0795,-3.0784,-3.0788,-3.0794,-3.0785,-3.0798,-3.0787,-3.0788,-3.0791,-3.0793,-3.0794,-3.0798,-3.08,-3.084,-3.1071,-3.1724,-3.312,-3.3559,-3.4247,-3.5713,-3.5833,-3.5803,-3.5803,-3.5795,-3.5811,-3.5807,-3.5799,-3.5799,-3.5799,-3.5795,-3.5791,-3.5806,-3.5793,-3.5799,-3.5766,-3.5728,-3.5699,-3.5708,-3.5703,-3.5708,-3.5708,-3.5568,-3.535,-3.5359,-3.5412,-3.5208,-3.5009,-3.5145,-3.5164,-3.4854,-3.4777,-3.455,-3.4187,-3.3752,-3.3345,-3.2146,-3.1521,-3.107,-3.104,-3.1275,-3.0811,-3.0169,-3.0011,-2.9945,-2.9813,-2.9727,-2.9746,-2.9765,-2.9738,-2.9692,-4.0187,-4.0309,-4.0309,-4.007,-3.958,-3.8374,-3.7589,-3.7034,-3.5867,-3.5254,-3.5235,-3.5246,-3.5254,-3.5254,-3.5254,-3.5254,-3.5254,-3.5254,-3.5254,-3.5163,-3.4976,-3.4049,-3.2979,-3.2435,-3.1943,-3.1259,-3.1261,-3.1219,-3.098,-3.0714,-3.0462,-3.0358,-3.0378,-3.0389,-3.0438,-3.0438,-3.0466,-3.0501,-3.0528,-3.0583,-3.0614,-3.0678,-3.0745,-3.0789,-3.0799,-3.0784,-3.0791,-3.0798,-3.0784,-3.0792,-3.0785,-3.0791,-3.0791,-3.0791,-3.0789,-3.0791,-3.0796,-3.0784,-3.0788,-3.0895,-3.1523,-3.3144,-3.3289,-3.4309,-3.5389,-3.5856,-3.586,-3.5847,-3.5861,-3.5855,-3.5853,-3.584,-3.5829,-3.5795,-3.5803,-3.5795,-3.5795,-3.5806,-3.5793,-3.5784,-3.577,-3.5737,-3.5732,-3.5713,-3.5708,-3.5704,-3.5699,-3.55,-3.5306,-3.5296,-3.4885,-3.4764,-3.4913,-3.4855,-3.4449,-3.4202,-3.4013,-3.3572,-3.3015,-3.2671,-3.2,-3.1652,-3.1433,-3.1298,-3.1074,-3.0839,-3.031,-3.0195,-3.0071,-3.0019,-2.995,-2.9899,-2.9841,-2.9832,-2.9771,-4.0027,-4.0225,-4.0158,-3.9671,-3.8897,-3.7922,-3.712,-3.6462,-3.5583,-3.5198,-3.5182,-3.5182,-3.5198,-3.519,-3.519,-3.519,-3.519,-3.519,-3.516,-3.4832,-3.44,-3.3471,-3.2526,-3.1835,-3.1284,-3.064,-3.1003,-3.0951,-3.0537,-3.0321,-3.0322,-3.0215,-3.0214,-3.0292,-3.0356,-3.0361,-3.0384,-3.0428,-3.0443,-3.0453,-3.0467,-3.055,-3.0656,-3.0736,-3.0756,-3.0769,-3.0779,-3.0791,-3.0798,-3.08,-3.0788,-3.0792,-3.0794,-3.0798,-3.0798,-3.0798,-3.0799,-3.0799,-3.0859,-3.1049,-3.1745,-3.3196,-3.3515,-3.4257,-3.5483,-3.5886,-3.5897,-3.5893,-3.5887,-3.5877,-3.5882,-3.5887,-3.5864,-3.5837,-3.5806,-3.5815,-3.5811,-3.5807,-3.5815,-3.5793,-3.5788,-3.578,-3.5751,-3.5732,-3.5722,-3.5698,-3.5698,-3.5621,-3.5408,-3.517,-3.4797,-3.4415,-3.4526,-3.4367,-3.3984,-3.4114,-3.3867,-3.2956,-3.2363,-3.2057,-3.1732,-3.1405,-3.1088,-3.089,-3.065,-3.0516,-3.0465,-3.0339,-3.0266,-3.0228,-3.0142,-3.0034,-2.9992,-2.9945,-2.9872,-3.9924,-3.9929,-3.9414,-3.9126,-3.8773,-3.7379,-3.6634,-3.6366,-3.5553,-3.5201,-3.5182,-3.5182,-3.5182,-3.5182,-3.5182,-3.5182,-3.5182,-3.5095,-3.4808,-3.4331,-3.388,-3.307,-3.1923,-3.1465,-3.0972,-3.045,-3.051,-3.0439,-3.0311,-3.0226,-3.024,-3.0225,-3.0218,-3.024,-3.0253,-3.0221,-3.0273,-3.0292,-3.0309,-3.0344,-3.0353,-3.0447,-3.0552,-3.0633,-3.0658,-3.0685,-3.0759,-3.0774,-3.0784,-3.0784,-3.0786,-3.0789,-3.0795,-3.0788,-3.0792,-3.0786,-3.0784,-3.0802,-3.0837,-3.1486,-3.2294,-3.3262,-3.3947,-3.474,-3.5604,-3.5898,-3.5896,-3.5911,-3.5905,-3.5916,-3.589,-3.589,-3.5885,-3.5878,-3.5873,-3.5869,-3.5867,-3.5868,-3.5846,-3.5818,-3.5811,-3.5799,-3.5768,-3.5694,-3.5624,-3.5582,-3.5535,-3.543,-3.5208,-3.5021,-3.4775,-3.4404,-3.4075,-3.3823,-3.3494,-3.3846,-3.38,-3.2516,-3.1845,-3.1585,-3.1258,-3.0932,-3.0676,-3.0653,-3.0629,-3.0572,-3.053,-3.0472,-3.0395,-3.0314,-3.0235,-3.0176,-3.0142,-3.0107,-3.0007,-3.9575,-3.9622,-3.9045,-3.8518,-3.7985,-3.6981,-3.6233,-3.5802,-3.5373,-3.5182,-3.5182,-3.5182,-3.5182,-3.5182,-3.5182,-3.5182,-3.5114,-3.4694,-3.4369,-3.3918,-3.3108,-3.2382,-3.1343,-3.1083,-3.0643,-3.0287,-3.0211,-3.0204,-3.0204,-3.0211,-3.0204,-3.0204,-3.0204,-3.0204,-3.0204,-3.0218,-3.0204,-3.0206,-3.024,-3.0254,-3.026,-3.0358,-3.0442,-3.0534,-3.0554,-3.0583,-3.061,-3.0672,-3.0691,-3.0703,-3.0762,-3.0794,-3.0784,-3.0791,-3.0798,-3.0793,-3.0791,-3.0789,-3.094,-3.1627,-3.2452,-3.3312,-3.4172,-3.5,-3.5636,-3.5901,-3.5912,-3.5953,-3.5955,-3.5937,-3.5918,-3.5897,-3.5895,-3.5891,-3.5888,-3.5886,-3.5901,-3.5893,-3.5871,-3.5853,-3.5861,-3.5833,-3.5749,-3.5674,-3.5541,-3.5454,-3.5402,-3.5217,-3.4993,-3.4636,-3.4356,-3.3868,-3.3386,-3.301,-3.2792,-3.3103,-3.3208,-3.2081,-3.1417,-3.1156,-3.0982,-3.0768,-3.0687,-3.0672,-3.0649,-3.0633,-3.0625,-3.0595,-3.0501,-3.0413,-3.0397,-3.0389,-3.0327,-3.0254,-3.0155,-3.9125,-3.9133,-3.8524,-3.778,-3.6979,-3.6331,-3.57,-3.5157,-3.5115,-3.5124,-3.5141,-3.5166,-3.5185,-3.5141,-3.5113,-3.5073,-3.4934,-3.4243,-3.3842,-3.3089,-3.2248,-3.1503,-3.1045,-3.0663,-3.0242,-3.0261,-3.0204,-3.0204,-3.0204,-3.0204,-3.0204,-3.0204,-3.0204,-3.0204,-3.0204,-3.0204,-3.0204,-3.0204,-3.0204,-3.0204,-3.0219,-3.0254,-3.0333,-3.0455,-3.0472,-3.0477,-3.051,-3.0559,-3.0587,-3.0635,-3.071,-3.0759,-3.0794,-3.0799,-3.0801,-3.0801,-3.0801,-3.0801,-3.0996,-3.1602,-3.2367,-3.2952,-3.404,-3.4864,-3.542,-3.5706,-3.5923,-3.5984,-3.5995,-3.597,-3.5942,-3.5925,-3.5912,-3.5936,-3.5937,-3.5918,-3.5937,-3.5935,-3.5934,-3.5924,-3.5929,-3.5857,-3.5752,-3.537,-3.5195,-3.5195,-3.5127,-3.4891,-3.4613,-3.3953,-3.3556,-3.3067,-3.2583,-3.2162,-3.2013,-3.2168,-3.2055,-3.1368,-3.1031,-3.0872,-3.0794,-3.0713,-3.069,-3.0687,-3.0683,-3.0668,-3.0692,-3.0704,-3.0621,-3.058,-3.0602,-3.0561,-3.0462,-3.0395,-3.0321,-3.8701,-3.8048,-3.7434,-3.6712,-3.5953,-3.5157,-3.4735,-3.4653,-3.486,-3.4936,-3.4955,-3.5089,-3.5072,-3.4935,-3.4889,-3.4599,-3.4217,-3.378,-3.3047,-3.2046,-3.1527,-3.1026,-3.0498,-3.0319,-3.0204,-3.0204,-3.0204,-3.0204,-3.0204,-3.0204,-3.0204,-3.0204,-3.0204,-3.0204,-3.0204,-3.0204,-3.0204,-3.0204,-3.0204,-3.0204,-3.0211,-3.0213,-3.0267,-3.031,-3.0339,-3.0378,-3.0451,-3.0496,-3.0528,-3.0587,-3.0625,-3.0685,-3.0762,-3.0796,-3.0799,-3.0801,-3.0801,-3.0801,-3.0918,-3.1602,-3.2131,-3.2657,-3.3648,-3.445,-3.4981,-3.5554,-3.5934,-3.6003,-3.6005,-3.5988,-3.5953,-3.5974,-3.5976,-3.5981,-3.5971,-3.5953,-3.5978,-3.5933,-3.5934,-3.5974,-3.5976,-3.5853,-3.5728,-3.5252,-3.4836,-3.4875,-3.4815,-3.4542,-3.417,-3.3488,-3.2751,-3.2233,-3.2001,-3.1603,-3.1439,-3.1556,-3.1362,-3.0787,-3.0739,-3.0704,-3.0711,-3.0711,-3.0701,-3.0701,-3.0701,-3.0697,-3.071,-3.0703,-3.0695,-3.0688,-3.0657,-3.0641,-3.0597,-3.0525,-3.0467,-3.7991,-3.7581,-3.6546,-3.5905,-3.5488,-3.4809,-3.4489,-3.4529,-3.4632,-3.4674,-3.4684,-3.4764,-3.4754,-3.4581,-3.425,-3.3847,-3.3468,-3.2835,-3.2097,-3.1302,-3.0929,-3.0579,-3.0319,-3.0204,-3.0204,-3.0183,-3.0204,-3.0204,-3.0204,-3.0204,-3.0204,-3.0204,-3.0204,-3.0204,-3.0204,-3.0204,-3.0204,-3.0204,-3.0204,-3.0204,-3.0204,-3.0211,-3.0225,-3.0241,-3.0235,-3.0286,-3.0329,-3.0375,-3.0386,-3.0443,-3.0486,-3.0578,-3.0622,-3.0658,-3.0685,-3.0697,-3.0762,-3.0794,-3.0896,-3.1622,-3.1936,-3.2306,-3.3203,-3.404,-3.4608,-3.5376,-3.5907,-3.5946,-3.5953,-3.5934,-3.5929,-3.5946,-3.5946,-3.5965,-3.5951,-3.5877,-3.5886,-3.5933,-3.5926,-3.597,-3.5918,-3.5563,-3.5273,-3.4941,-3.455,-3.4529,-3.4256,-3.3787,-3.3433,-3.2943,-3.2164,-3.1405,-3.1263,-3.1138,-3.1055,-3.1067,-3.1106,-3.0745,-3.0776,-3.076,-3.0722,-3.073,-3.0713,-3.0707,-3.0704,-3.0701,-3.0707,-3.0697,-3.0703,-3.0703,-3.0699,-3.0665,-3.0653,-3.0641,-3.0567,-3.7199,-3.7066,-3.584,-3.5192,-3.4982,-3.4509,-3.4318,-3.433,-3.4398,-3.442,-3.442,-3.4412,-3.436,-3.4081,-3.3537,-3.3079,-3.2577,-3.16,-3.1049,-3.0673,-3.036,-3.0095,-3.0011,-3.0026,-3.0034,-3.0064,-3.0072,-3.0106,-3.0128,-3.0183,-3.0204,-3.0204,-3.0204,-3.0204,-3.0204,-3.0204,-3.0185,-3.0171,-3.0157,-3.0157,-3.0157,-3.0157,-3.0176,-3.0183,-3.0183,-3.0183,-3.0204,-3.0227,-3.0248,-3.034,-3.0403,-3.0442,-3.0467,-3.0503,-3.054,-3.0579,-3.0628,-3.0695,-3.0853,-3.1262,-3.1675,-3.2092,-3.2852,-3.3807,-3.4586,-3.5376,-3.5883,-3.5914,-3.5549,-3.5663,-3.5794,-3.5736,-3.568,-3.5758,-3.5894,-3.5783,-3.5634,-3.549,-3.5168,-3.4846,-3.4754,-3.4771,-3.4531,-3.4411,-3.428,-3.4211,-3.3783,-3.3101,-3.2634,-3.2187,-3.1736,-3.099,-3.0976,-3.0937,-3.0879,-3.0799,-3.0754,-3.0744,-3.0777,-3.0783,-3.0756,-3.0762,-3.0762,-3.0752,-3.072,-3.0725,-3.0758,-3.0733,-3.0694,-3.071,-3.0706,-3.071,-3.0703,-3.0695,-3.068,-3.6376,-3.6303,-3.5399,-3.46,-3.3957,-3.3897,-3.3868,-3.3947,-3.4117,-3.4203,-3.4215,-3.4177,-3.3911,-3.3414,-3.2967,-3.2232,-3.1119,-3.0969,-3.0443,-2.9973,-2.9682,-2.9698,-2.9725,-2.9725,-2.9698,-2.9716,-2.982,-2.9905,-2.9972,-3.0098,-3.0169,-3.0204,-3.0204,-3.0204,-3.0197,-3.019,-3.0157,-3.0135,-3.0113,-3.0117,-3.0098,-3.0098,-3.0117,-3.0117,-3.011,-3.0098,-3.0121,-3.013,-3.018,-3.026,-3.0305,-3.0309,-3.0317,-3.0369,-3.0409,-3.0453,-3.05,-3.0527,-3.0676,-3.0808,-3.0884,-3.1383,-3.2274,-3.3432,-3.4049,-3.5196,-3.575,-3.5521,-3.4934,-3.5023,-3.5201,-3.5304,-3.5048,-3.5168,-3.519,-3.5059,-3.4888,-3.4776,-3.4415,-3.3801,-3.3688,-3.3863,-3.3844,-3.375,-3.3558,-3.3474,-3.2789,-3.2107,-3.1696,-3.1309,-3.1183,-3.0846,-3.0842,-3.0827,-3.0823,-3.0773,-3.0761,-3.0761,-3.078,-3.0792,-3.0777,-3.0791,-3.0792,-3.0788,-3.0756,-3.0779,-3.0781,-3.0761,-3.072,-3.0701,-3.0694,-3.0694,-3.0694,-3.0706,-3.0703,-3.5396,-3.5365,-3.4545,-3.4041,-3.3807,-3.3807,-3.3807,-3.382,-3.3908,-3.3947,-3.3941,-3.3923,-3.3549,-3.2884,-3.2151,-3.1444,-3.0491,-2.9977,-2.9692,-2.9577,-2.9523,-2.9589,-2.9598,-2.957,-2.9579,-2.9551,-2.9635,-2.976,-2.9853,-2.9929,-3.0091,-3.0161,-3.0176,-3.0183,-3.0176,-3.0154,-3.0113,-3.0098,-3.0083,-3.0095,-3.0095,-3.0095,-3.0095,-3.0095,-3.0095,-3.0083,-3.0091,-3.0091,-3.0128,-3.0157,-3.0166,-3.0174,-3.0189,-3.0247,-3.0302,-3.0342,-3.0375,-3.0388,-3.0429,-3.0539,-3.0599,-3.0816,-3.1693,-3.2621,-3.3118,-3.3747,-3.4097,-3.4023,-3.3976,-3.4052,-3.4024,-3.399,-3.3949,-3.425,-3.4347,-3.4266,-3.4072,-3.391,-3.3651,-3.3032,-3.3104,-3.3308,-3.323,-3.3113,-3.29,-3.2652,-3.1886,-3.1237,-3.0985,-3.0886,-3.0919,-3.0819,-3.0799,-3.0803,-3.0796,-3.0791,-3.0784,-3.079,-3.0795,-3.08,-3.0799,-3.08,-3.08,-3.0788,-3.0788,-3.0803,-3.0788,-3.0774,-3.0748,-3.0724,-3.0704,-3.0694,-3.0694,-3.0694,-3.0694,-3.4816,-3.4782,-3.4,-3.3726,-3.3807,-3.3807,-3.3807,-3.3807,-3.382,-3.3793,-3.373,-3.3523,-3.2947,-3.2133,-3.1302,-3.0497,-2.9824,-2.9354,-2.9182,-2.9166,-2.9262,-2.9365,-2.9375,-2.9345,-2.9254,-2.9297,-2.9359,-2.9466,-2.957,-2.9643,-2.9739,-2.9894,-3.0015,-3.0034,-3.0121,-3.0076,-3.008,-3.008,-3.0046,-3.0038,-3.0038,-3.003,-3.003,-3.003,-3.003,-3.0038,-3.0046,-3.0053,-3.0072,-3.0087,-3.0068,-3.0072,-3.0083,-3.0109,-3.0161,-3.0202,-3.0235,-3.0271,-3.0317,-3.0404,-3.0458,-3.0612,-3.1308,-3.1777,-3.2,-3.2566,-3.334,-3.3253,-3.3052,-3.2861,-3.2955,-3.3064,-3.3195,-3.3502,-3.3623,-3.3545,-3.3117,-3.2845,-3.2623,-3.2272,-3.2336,-3.2149,-3.2122,-3.2002,-3.226,-3.2192,-3.2088,-3.146,-3.0992,-3.0992,-3.1161,-3.1003,-3.0793,-3.0791,-3.0784,-3.0786,-3.0801,-3.0801,-3.0792,-3.0784,-3.0791,-3.079,-3.0796,-3.0801,-3.0796,-3.0792,-3.0784,-3.0771,-3.0754,-3.0742,-3.0724,-3.0707,-3.0694,-3.0694,-3.0694,-3.4768,-3.4695,-3.3948,-3.3671,-3.3793,-3.3788,-3.3793,-3.3762,-3.3702,-3.3625,-3.346,-3.2888,-3.2044,-3.1243,-3.0513,-2.9807,-2.9168,-2.89,-2.8851,-2.8899,-2.8957,-2.8887,-2.8905,-2.8922,-2.8973,-2.8899,-2.9012,-2.9118,-2.9191,-2.9329,-2.9428,-2.9533,-2.9688,-2.982,-3.0045,-3.0019,-2.998,-2.9972,-2.9924,-2.9916,-2.9932,-2.994,-2.994,-2.994,-2.994,-2.9964,-2.998,-3.0007,-3.0007,-3.0007,-3.0007,-2.9991,-2.9956,-2.9988,-3.0026,-3.0042,-3.0072,-3.0106,-3.0121,-3.0278,-3.0345,-3.0411,-3.1036,-3.1391,-3.1811,-3.2372,-3.27,-3.2304,-3.2144,-3.2222,-3.2353,-3.2382,-3.2435,-3.2507,-3.2613,-3.2535,-3.2094,-3.1866,-3.1647,-3.1534,-3.1036,-3.0649,-3.0687,-3.0839,-3.1352,-3.164,-3.1985,-3.1722,-3.1055,-3.0957,-3.1108,-3.1055,-3.0801,-3.0801,-3.0801,-3.0801,-3.0789,-3.0786,-3.0795,-3.0798,-3.0788,-3.0791,-3.0784,-3.0796,-3.0799,-3.0801,-3.08,-3.0798,-3.078,-3.0761,-3.0728,-3.072,-3.0704,-3.0701,-3.0714,-3.3909,-3.3916,-3.3643,-3.3591,-3.3657,-3.3671,-3.3671,-3.3547,-3.3127,-3.2871,-3.2675,-3.1999,-3.1183,-3.0487,-3.0084,-2.9471,-2.8895,-2.8749,-2.8749,-2.8785,-2.8804,-2.8816,-2.8804,-2.8773,-2.8773,-2.8755,-2.8815,-2.8932,-2.906,-2.9118,-2.9248,-2.9388,-2.9398,-2.9542,-2.9653,-2.9635,-2.957,-2.9662,-2.9689,-2.9761,-2.9885,-2.9891,-2.9907,-2.9907,-2.9916,-2.9924,-2.9921,-2.9948,-2.9948,-2.9948,-2.994,-2.9932,-2.9916,-2.994,-2.9956,-2.9983,-3.0007,-2.9964,-2.9972,-3.0056,-3.0114,-3.029,-3.0471,-3.0759,-3.0778,-3.088,-3.1059,-3.1213,-3.1109,-3.1102,-3.0929,-3.0979,-3.103,-3.1081,-3.1149,-3.1129,-3.0917,-3.0878,-3.0801,-3.0762,-3.0458,-3.0433,-3.0453,-3.0458,-3.0823,-3.0975,-3.1269,-3.1336,-3.0836,-3.0792,-3.0873,-3.0886,-3.0796,-3.0799,-3.0801,-3.0796,-3.0799,-3.0804,-3.0784,-3.0791,-3.08,-3.0786,-3.0799,-3.0798,-3.0783,-3.0787,-3.0796,-3.08,-3.0798,-3.0781,-3.0769,-3.0667,-3.0567,-3.0647,-3.0776,-3.3223,-3.3235,-3.3129,-3.3172,-3.3353,-3.3516,-3.3605,-3.3514,-3.3022,-3.2675,-3.2265,-3.1532,-3.0722,-3.0064,-2.9553,-2.9305,-2.8743,-2.87,-2.8675,-2.8724,-2.8724,-2.873,-2.873,-2.8724,-2.87,-2.8669,-2.8669,-2.8755,-2.8857,-2.885,-2.8982,-2.9126,-2.9129,-2.918,-2.9264,-2.9324,-2.9375,-2.9456,-2.9514,-2.9635,-2.9771,-2.9841,-2.9899,-2.9907,-2.9916,-2.9916,-2.9916,-2.9916,-2.9916,-2.9916,-2.9916,-2.9916,-2.9916,-2.9916,-2.9932,-2.994,-2.994,-2.9916,-2.9924,-2.9932,-3.0003,-3.0046,-3.0038,-3.0068,-3.0079,-3.0288,-3.0261,-3.0245,-3.0133,-3.0173,-3.0214,-3.0203,-3.024,-3.0334,-3.0348,-3.0367,-3.0361,-3.038,-3.0404,-3.0331,-3.0306,-3.0319,-3.0325,-3.035,-3.0463,-3.049,-3.0535,-3.0582,-3.0718,-3.0824,-3.0785,-3.0742,-3.0773,-3.0756,-3.0764,-3.0791,-3.0794,-3.0799,-3.0774,-3.0769,-3.0774,-3.0782,-3.0776,-3.0786,-3.0794,-3.0786,-3.0784,-3.0796,-3.08,-3.08,-3.0787,-3.0645,-3.0433,-3.0504,-3.0648,-3.2795,-3.2731,-3.2435,-3.2518,-3.2858,-3.3368,-3.3577,-3.3573,-3.35,-3.298,-3.2165,-3.1306,-3.0443,-2.9689,-2.8974,-2.8685,-2.8643,-2.863,-2.8612,-2.8612,-2.8637,-2.8643,-2.8643,-2.8625,-2.8625,-2.8612,-2.8612,-2.8637,-2.8625,-2.8657,-2.8779,-2.8827,-2.8785,-2.8833,-2.8973,-2.9097,-2.9188,-2.9262,-2.9336,-2.9436,-2.9561,-2.9727,-2.977,-2.9805,-2.983,-2.9855,-2.9872,-2.9916,-2.9916,-2.9916,-2.9916,-2.9916,-2.9916,-2.9916,-2.9916,-2.9916,-2.9916,-2.9916,-2.9916,-2.9916,-2.9916,-2.9948,-2.9983,-3.003,-3.0053,-3.0061,-3.0053,-3.0061,-3.0091,-3.0076,-3.0079,-3.0087,-3.0094,-3.0121,-3.0121,-3.0113,-3.0113,-3.0135,-3.0171,-3.0147,-3.0152,-3.0152,-3.0162,-3.0176,-3.0202,-3.0266,-3.0344,-3.0441,-3.0636,-3.1096,-3.1002,-3.072,-3.0714,-3.0704,-3.0736,-3.0764,-3.0773,-3.0756,-3.0748,-3.0722,-3.0748,-3.0753,-3.0742,-3.075,-3.0777,-3.0795,-3.0803,-3.0795,-3.0803,-3.0796,-3.0801,-3.0401,-3.0126,-3.0277,-3.0371,-3.265,-3.2453,-3.2351,-3.2485,-3.2827,-3.3268,-3.3466,-3.3412,-3.2885,-3.2127,-3.1315,-3.0531,-2.9771,-2.8925,-2.869,-2.8605,-2.8587,-2.86,-2.86,-2.86,-2.8587,-2.8587,-2.86,-2.86,-2.86,-2.86,-2.86,-2.86,-2.86,-2.86,-2.8612,-2.8662,-2.8625,-2.8662,-2.8694,-2.8779,-2.888,-2.9007,-2.9101,-2.923,-2.9316,-2.9455,-2.9523,-2.9598,-2.9671,-2.9734,-2.9849,-2.9899,-2.9907,-2.9916,-2.9916,-2.9916,-2.9916,-2.9916,-2.9916,-2.9916,-2.9916,-2.9916,-2.9916,-2.9907,-2.9899,-2.9872,-2.9888,-2.9964,-2.9988,-2.998,-2.9964,-3.0014,-3.0014,-3.0007,-2.998,-2.9999,-2.9999,-2.9999,-2.9991,-2.9983,-2.9956,-2.9964,-3.0011,-3.0061,-3.0049,-3.003,-3.003,-3.0015,-3.0053,-3.0111,-3.0181,-3.0273,-3.0452,-3.0887,-3.1032,-3.0714,-3.0626,-3.0611,-3.0667,-3.0704,-3.0717,-3.0727,-3.0695,-3.0691,-3.0717,-3.072,-3.0701,-3.071,-3.0751,-3.0769,-3.0791,-3.0786,-3.0798,-3.0791,-3.0751,-3.0254,-2.9917,-3.0139,-2.9808,-3.2248,-3.2056,-3.1896,-3.2144,-3.2582,-3.2665,-3.2769,-3.2799,-3.2397,-3.1614,-3.0514,-2.9882,-2.9179,-2.8478,-2.8295,-2.821,-2.821,-2.8313,-2.8365,-2.8378,-2.8536,-2.8587,-2.86,-2.86,-2.86,-2.86,-2.86,-2.86,-2.86,-2.8587,-2.86,-2.8574,-2.8562,-2.8536,-2.8549,-2.8562,-2.86,-2.8718,-2.8863,-2.8996,-2.9108,-2.9198,-2.9306,-2.9397,-2.9485,-2.9617,-2.9771,-2.9813,-2.9891,-2.9907,-2.9916,-2.9916,-2.9872,-2.9839,-2.9787,-2.977,-2.9734,-2.9734,-2.9742,-2.9734,-2.9751,-2.977,-2.9716,-2.9672,-2.9751,-2.9786,-2.988,-2.9956,-2.9932,-2.9916,-2.9916,-2.9916,-2.9916,-2.9916,-2.9891,-2.9866,-2.9839,-2.983,-2.9883,-2.9951,-2.9951,-2.9934,-2.9907,-2.9874,-2.9874,-2.9905,-2.9958,-3.0041,-3.0188,-3.0438,-3.0604,-3.0513,-3.0482,-3.0492,-3.0557,-3.061,-3.0626,-3.0642,-3.0653,-3.0649,-3.0683,-3.0687,-3.0664,-3.0685,-3.0727,-3.0748,-3.0764,-3.0794,-3.0789,-3.0784,-3.0638,-3.0191,-2.9996,-3.0195,-2.9564,-3.1677,-3.1657,-3.1387,-3.1607,-3.2055,-3.1749,-3.1721,-3.1928,-3.174,-3.111,-2.9877,-2.9456,-2.888,-2.8172,-2.7915,-2.7832,-2.7886,-2.801,-2.8129,-2.8098,-2.837,-2.8505,-2.8587,-2.86,-2.86,-2.86,-2.86,-2.8587,-2.8587,-2.8574,-2.8549,-2.8497,-2.8497,-2.8471,-2.845,-2.845,-2.8458,-2.851,-2.8669,-2.8839,-2.8927,-2.9045,-2.9188,-2.9243,-2.9336,-2.9456,-2.9561,-2.9671,-2.982,-2.9836,-2.975,-2.9696,-2.9742,-2.9473,-2.942,-2.9448,-2.9364,-2.943,-2.9486,-2.9551,-2.9533,-2.9513,-2.9415,-2.9395,-2.9475,-2.9617,-2.9698,-2.9725,-2.9689,-2.9689,-2.9681,-2.9734,-2.977,-2.9779,-2.9789,-2.978,-2.9771,-2.9763,-2.9799,-2.9861,-2.9851,-2.9834,-2.9816,-2.9799,-2.9808,-2.9753,-2.9769,-2.9861,-2.9969,-3.0133,-3.0247,-3.0299,-3.0371,-3.0403,-3.0414,-3.0456,-3.0482,-3.0506,-3.0543,-3.057,-3.057,-3.0586,-3.0603,-3.0649,-3.0697,-3.0717,-3.0713,-3.0745,-3.0751,-3.0675,-3.0475,-3.0095,-3.0014,-3.0047,-2.9453,-3.1545,-3.1349,-3.1506,-3.1385,-3.1063,-3.1212,-3.0649,-2.9733,-2.968,-2.9618,-2.94,-2.9237,-2.871,-2.7842,-2.7654,-2.7597,-2.7654,-2.7713,-2.7911,-2.8034,-2.8215,-2.8453,-2.8562,-2.86,-2.86,-2.86,-2.86,-2.8574,-2.8549,-2.8523,-2.8466,-2.8419,-2.8419,-2.8406,-2.8398,-2.8398,-2.8398,-2.838,-2.8484,-2.8594,-2.8657,-2.8682,-2.8737,-2.8825,-2.8945,-2.9056,-2.9047,-2.8838,-2.9186,-2.9447,-2.8931,-2.8998,-2.937,-2.8847,-2.8855,-2.9133,-2.8918,-2.8993,-2.9216,-2.9345,-2.9326,-2.9336,-2.9304,-2.9272,-2.9304,-2.9395,-2.9445,-2.9455,-2.9474,-2.9456,-2.9465,-2.9542,-2.9617,-2.9654,-2.9663,-2.9673,-2.9692,-2.9719,-2.971,-2.9738,-2.9737,-2.9728,-2.9719,-2.971,-2.9719,-2.9718,-2.9708,-2.9761,-2.9779,-2.9897,-3.0068,-3.0166,-3.0279,-3.0305,-3.0299,-3.0298,-3.0339,-3.0356,-3.0386,-3.043,-3.0482,-3.052,-3.0552,-3.061,-3.0657,-3.066,-3.0697,-3.0707,-3.0691,-3.063,-3.0341,-2.9968,-2.9466,-2.9359,-2.8906,-3.137,-3.1213,-3.1389,-3.1153,-3.0645,-3.0455,-2.9819,-2.8963,-2.8539,-2.8348,-2.8313,-2.8295,-2.7979,-2.7386,-2.726,-2.7213,-2.7244,-2.7369,-2.7562,-2.7779,-2.8034,-2.8326,-2.8461,-2.8562,-2.8574,-2.8562,-2.8523,-2.8484,-2.8471,-2.8458,-2.8419,-2.834,-2.834,-2.8327,-2.8313,-2.8318,-2.8318,-2.83,-2.8327,-2.8362,-2.8414,-2.8453,-2.824,-2.8275,-2.8458,-2.8675,-2.8624,-2.8437,-2.8692,-2.9117,-2.8996,-2.8986,-2.9184,-2.8915,-2.8825,-2.8941,-2.8856,-2.8653,-2.8986,-2.9123,-2.9093,-2.9082,-2.8959,-2.8862,-2.8809,-2.8897,-2.9071,-2.9104,-2.9243,-2.9264,-2.9264,-2.9297,-2.9415,-2.9474,-2.9464,-2.9444,-2.9512,-2.9579,-2.9598,-2.9655,-2.9673,-2.9683,-2.9645,-2.9608,-2.9608,-2.956,-2.957,-2.9626,-2.9664,-2.97,-2.9855,-2.9984,-3.0094,-3.013,-3.009,-3.0133,-3.0202,-3.0227,-3.0241,-3.0317,-3.0375,-3.0446,-3.0516,-3.0544,-3.06,-3.0637,-3.0653,-3.0688,-3.0668,-3.0626,-3.0257,-2.9834,-2.9337,-2.8935,-2.8868,-3.121,-3.119,-3.1092,-3.0791,-3.0314,-2.954,-2.8952,-2.8495,-2.7864,-2.7404,-2.7154,-2.7122,-2.7022,-2.6892,-2.6691,-2.6555,-2.6623,-2.694,-2.7211,-2.75,-2.7794,-2.801,-2.8237,-2.8414,-2.8344,-2.8331,-2.8322,-2.8322,-2.8322,-2.8282,-2.8228,-2.8214,-2.8201,-2.8205,-2.8196,-2.8196,-2.8209,-2.8237,-2.8246,-2.8197,-2.8242,-2.8317,-2.8034,-2.7962,-2.811,-2.8584,-2.8469,-2.8288,-2.8353,-2.8735,-2.9066,-2.903,-2.8854,-2.8638,-2.8732,-2.8704,-2.8504,-2.8552,-2.882,-2.8821,-2.8791,-2.8713,-2.8551,-2.8484,-2.8432,-2.8505,-2.8713,-2.8803,-2.8936,-2.9004,-2.8986,-2.906,-2.9166,-2.9259,-2.9228,-2.927,-2.9372,-2.9461,-2.9511,-2.9569,-2.9578,-2.9588,-2.9569,-2.9511,-2.9454,-2.9414,-2.9424,-2.9492,-2.956,-2.9598,-2.9709,-2.9798,-2.9874,-2.9891,-2.9924,-2.9977,-3.0068,-3.0075,-3.0104,-3.0194,-3.0292,-3.0359,-3.0417,-3.0455,-3.0496,-3.0573,-3.0628,-3.0649,-3.0625,-3.0602,-3.0059,-2.9613,-2.9462,-2.9163,-2.9272,-3.119,-3.114,-3.0581,-2.9944,-2.9272,-2.8489,-2.7743,-2.718,-2.7009,-2.6808,-2.6725,-2.664,-2.6606,-2.6606,-2.6537,-2.6485,-2.6485,-2.6691,-2.6908,-2.7197,-2.7413,-2.7607,-2.7783,-2.794,-2.788,-2.7926,-2.7986,-2.7971,-2.7971,-2.7947,-2.7861,-2.7757,-2.7786,-2.789,-2.8112,-2.8112,-2.814,-2.8154,-2.8124,-2.8058,-2.7727,-2.7861,-2.8242,-2.8219,-2.821,-2.8322,-2.8167,-2.7706,-2.8046,-2.8492,-2.8795,-2.8761,-2.8555,-2.8269,-2.8263,-2.8407,-2.8207,-2.8243,-2.8419,-2.8563,-2.8551,-2.8525,-2.8419,-2.8393,-2.8371,-2.8345,-2.844,-2.8419,-2.8513,-2.8576,-2.8596,-2.8707,-2.8833,-2.8904,-2.8915,-2.9149,-2.9328,-2.9399,-2.944,-2.945,-2.946,-2.946,-2.946,-2.9402,-2.9319,-2.928,-2.9243,-2.9331,-2.9471,-2.9521,-2.956,-2.9626,-2.9682,-2.98,-2.9895,-2.9899,-2.9964,-2.9953,-2.9977,-3.0072,-3.0152,-3.026,-3.0324,-3.0371,-3.0428,-3.0486,-3.054,-3.0634,-3.0625,-3.0509,-2.9823,-2.9397,-2.9315,-2.9406,-2.9528]},{"header":{"parameterUnit":"m.s-1","parameterCategory":1,"la1":31.0,"la2":29.5877,"lo1":-88.7671,"lo2":-86.6584,"dy":0.0162,"dx":0.0185,"nx":115,"ny":88,"refTime":"2026-04-16T00:00:00:Z","depth":0,"parameterNumber":3,"parameterNumberName":"V-component_of_WINDS"},"data":[0.0,0.0,0.0,0.0,0.0,0.0,0.0,0.0,0.0,0.0,0.0,0.0,0.0,0.0,0.0,0.0,0.0,0.0,0.0,0.0,0.0,0.0,0.0,0.0,0.0,0.0,0.0,0.0,0.0,0.0,0.0,0.0,0.0,0.0,0.0,0.0,0.0,0.0,0.0,0.0,0.0,0.0,0.0,0.0,0.0,0.0,0.0,0.0,0.0,0.0,0.0,0.0,0.0,0.0,0.0,0.0,0.0,0.0,0.0,0.0,0.0,0.0,0.0,0.0,0.0,0.0,0.0,0.0,0.0,0.0,0.0,0.0,0.0,0.0,0.0,0.0,0.0,0.0,0.0,0.0,0.0,0.0,0.0,0.0,0.0,0.0,0.0,0.0,0.0,0.0,0.0,0.0,0.0,0.0,0.0,0.0,0.0,0.0,0.0,0.0,0.0,0.0,0.0,0.0,0.0,0.0,0.0,0.0,0.0,0.0,0.0,0.0,0.0,0.0,0.0,0.0,0.0,0.0,0.0,0.0,0.0,0.0,0.0,0.0,0.0,0.0,0.0,0.0,0.0,0.0,0.0,0.0,0.0,0.0,0.0,0.0,0.0,0.0,0.0,0.0,0.0,0.0,0.0,0.0,0.0,0.0,0.0,0.0,0.0,0.0,0.0,0.0,0.0,0.0,0.0,0.0,0.0,0.0,0.0,0.0,0.0,0.0,0.0,0.0,0.0,0.0,0.0,0.0,0.0,0.0,0.0,0.0,0.0,0.0,0.0,0.0,0.0,0.0,0.0,0.0,0.0,0.0,0.0,0.0,0.0,0.0,0.0,0.0,0.0,0.0,0.0,0.0,0.0,0.0,0.0,0.0,0.0,0.0,0.0,0.0,0.0,0.0,0.0,0.0,0.0,0.0,0.0,0.0,0.0,0.0,0.0,0.0,0.0,0.0,0.0,0.0,0.0,0.0,0.0,0.0,0.0,0.0,0.0,0.0,0.0,0.0,0.0,0.0,0.0,0.0,0.0,0.0,0.0,0.0,0.0,0.0,0.0,0.0,0.0,0.0,0.0,0.0,0.0,0.0,0.0,0.0,0.0,0.0,0.0,0.0,0.0,0.0,0.0,0.0,0.0,0.0,0.0,0.0,0.0,0.0,0.0,0.0,0.0,0.0,0.0,0.0,0.0,0.0,0.0,0.0,0.0,0.0,0.0,0.0,0.0,0.0,0.0,0.0,0.0,0.0,0.0,0.0,0.0,0.0,0.0,0.0,0.0,0.0,0.0,0.0,0.0,0.0,0.0,0.0,0.0,0.0,0.0,0.0,0.0,0.0,0.0,0.0,0.0,0.0,0.0,0.0,0.0,0.0,0.0,0.0,0.0,0.0,0.0,0.0,0.0,0.0,0.0,0.0,0.0,0.0,0.0,0.0,0.0,0.0,0.0,0.0,0.0,0.0,0.0,0.0,0.0,0.0,0.0,0.0,0.0,0.0,0.0,0.0,0.0,0.0,0.0,0.0,0.0,0.0,0.0,0.0,0.0,0.0,0.0,0.0,0.0,0.0,0.0,0.0,0.0,0.0,0.0,0.0,0.0,0.0,0.0,0.0,0.0,0.0,0.0,0.0,0.0,0.0,0.0,0.0,0.0,0.0,0.0,0.0,0.0,0.0,0.0,0.0,0.0,0.0,0.0,0.0,0.0,0.0,0.0,0.0,0.0,0.0,0.0,0.0,0.0,0.0,0.0,0.0,0.0,0.0,0.0,0.0,0.0,0.0,0.0,0.0,0.0,0.0,0.0,0.0,0.0,0.0,0.0,0.0,0.0,0.0,0.0,0.0,0.0,0.0,0.0,0.0,0.0,0.0,0.0,0.0,0.0,0.0,0.0,0.0,0.0,0.0,0.0,0.0,0.0,0.0,0.0,0.0,0.0,0.0,0.0,0.0,0.0,0.0,0.0,0.0,0.0,0.0,0.0,0.0,0.0,0.0,0.0,0.0,0.0,0.0,0.0,0.0,0.0,0.0,0.0,0.0,0.0,0.0,0.0,0.0,0.0,0.0,0.0,0.0,0.0,0.0,0.0,0.0,0.0,0.0,0.0,0.0,0.0,0.0,0.0,0.0,0.0,0.0,0.0,0.0,0.0,0.0,0.0,0.0,0.0,0.0,0.0,0.0,0.0,0.0,0.0,0.0,0.0,0.0,0.0,0.0,0.0,0.0,0.0,0.0,0.0,0.0,0.0,0.0,0.0,0.0,0.0,0.0,0.0,0.0,0.0,0.0,0.0,0.0,0.0,0.0,0.0,0.0,0.0,0.0,0.0,0.0,0.0,0.0,0.0,0.0,0.0,0.0,0.0,0.0,0.0,0.0,0.0,0.0,0.0,0.0,0.0,0.0,0.0,0.0,0.0,0.0,0.0,0.0,0.0,0.0,0.0,0.0,0.0,0.0,0.0,0.0,0.0,0.0,0.0,0.0,0.0,0.0,0.0,0.0,0.0,0.0,0.0,0.0,0.0,0.0,0.0,0.0,0.0,0.0,0.0,0.0,0.0,0.0,0.0,0.0,0.0,0.0,0.0,0.0,0.0,0.0,0.0,0.0,0.0,0.0,0.0,0.0,0.0,0.0,0.0,0.0,0.0,0.0,0.0,0.0,0.0,0.0,0.0,0.0,0.0,0.0,0.0,0.0,0.0,0.0,0.0,0.0,0.0,0.0,0.0,0.0,0.0,0.0,0.0,0.0,0.0,0.0,0.0,0.0,0.0,0.0,0.0,0.0,0.0,0.0,0.0,0.0,0.0,0.0,0.0,0.0,0.0,0.0,0.0,0.0,0.0,0.0,0.0,0.0,0.0,0.0,0.0,0.0,0.0,0.0,0.0,0.0,0.0,0.0,0.0,0.0,0.0,0.0,0.0,0.0,0.0,0.0,0.0,0.0,0.0,0.0,0.0,0.0,0.0,0.0,0.0,0.0,0.0,0.0,0.0,0.0,0.0,0.0,0.0,0.0,0.0,0.0,0.0,0.0,0.0,0.0,0.0,0.0,0.0,0.0,0.0,0.0,0.0,0.0,0.0,0.0,0.0,0.0,0.0,0.0,0.0,0.0,0.0,0.0,0.0,0.0,0.0,0.0,0.0,0.0,0.0,0.0,0.0,0.0,0.0,0.0,0.0,0.0,0.0,0.0,0.0,0.0,0.0,0.0,0.0,0.0,0.0,0.0,0.0,0.0,0.0,0.0,0.0,0.0,0.0,0.0,0.0,0.0,0.0,0.0,0.0,0.0,0.0,0.0,0.0,0.0,0.0,0.0,0.0,0.0,0.0,0.0,0.0,0.0,0.0,0.0,0.0,0.0,0.0,0.0,0.0,0.0,0.0,0.0,0.0,0.0,0.0,0.0,0.0,0.0,0.0,0.0,0.0,0.0,0.0,0.0,0.0,0.0,0.0,0.0,0.0,0.0,0.0,0.0,0.0,0.0,0.0,0.0,0.0,0.0,0.0,0.0,0.0,0.0,0.0,0.0,0.0,0.0,0.0,0.0,0.0,0.0,0.0,0.0,0.0,0.0,0.0,0.0,0.0,0.0,0.0,0.0,0.0,0.0,0.0,0.0,0.0,0.0,0.0,0.0,0.0,0.0,0.0,0.0,0.0,0.0,0.0,0.0,0.0,0.0,0.0,0.0,0.0,0.0,0.0,0.0,0.0,0.0,0.0,0.0,0.0,0.0,0.0,0.0,0.0,0.0,0.0,0.0,0.0,0.0,0.0,0.0,0.0,0.0,0.0,0.0,0.0,0.0,0.0,0.0,0.0,0.0,0.0,0.0,0.0,0.0,0.0,0.0,0.0,0.0,0.0,0.0,0.0,0.0,0.0,0.0,0.0,0.0,0.0,0.0,0.0,0.0,0.0,0.0,0.0,0.0,0.0,0.0,0.0,0.0,0.0,0.0,0.0,0.0,0.0,0.0,0.0,0.0,0.0,0.0,0.0,0.0,0.0,0.0,0.0,0.0,0.0,0.0,0.0,0.0,0.0,0.0,0.0,0.0,0.0,0.0,0.0,0.0,0.0,0.0,0.0,0.0,0.0,0.0,0.0,0.0,0.0,0.0,0.0,0.0,0.0,0.0,0.0,0.0,0.0,0.0,0.0,0.0,0.0,0.0,0.0,0.0,0.0,0.0,0.0,0.0,0.0,0.0,0.0,0.0,0.0,0.0,0.0,0.0,0.0,0.0,0.0,0.0,0.0,0.0,0.0,0.0,0.0,0.0,0.0,0.0,0.0,0.0,-0.5515,0.0,0.0,0.0,0.0,0.0,0.0,0.0,0.0,0.0,0.0,0.0,0.0,0.0,0.0,0.0,0.0,0.0,0.0,0.0,0.0,0.0,0.0,0.0,0.0,0.0,0.0,0.0,0.0,0.0,0.0,0.0,0.0,0.0,0.0,0.0,0.0,0.0,0.0,0.0,0.0,0.0,0.0,0.0,0.0,0.0,0.0,0.0,0.0,0.0,0.0,0.0,0.0,0.0,0.0,0.0,0.0,0.0,0.0,0.0,0.0,0.0,0.0,0.0,0.0,0.0,0.0,0.0,0.0,0.0,0.0,0.0,0.0,0.0,0.0,0.0,0.0,0.0,0.0,0.0,0.0,0.0,0.0,0.0,0.0,0.0,0.0,0.0,0.0,0.0,0.0,0.0,0.0,0.0,0.0,0.0,0.0,0.0,0.0,0.0,0.0,0.0,0.0,0.0,0.0,0.0,0.0,0.0,0.0,0.0,0.0,-0.2019,-0.2456,-0.4524,-0.5777,-0.6126,0.0,0.0,0.0,0.0,0.0,0.0,0.0,0.0,0.0,0.0,0.0,0.0,0.0,0.0,0.0,0.0,0.0,0.0,0.0,0.0,0.0,0.0,0.0,0.0,0.0,0.0,0.0,0.0,0.0,0.0,0.0,0.0,0.0,0.0,0.0,0.0,0.0,0.0,0.0,0.0,0.0,0.0,0.0,0.0,0.0,0.0,0.0,0.0,0.0,0.0,0.0,0.0,0.0,0.0,0.0,0.0,0.0,0.0,0.0,0.0,0.0,0.0,0.0,0.0,0.0,0.0,0.0,0.0,0.0,0.0,0.0,0.0,0.0,0.0,0.0,0.0,0.0,0.0,0.0,0.0,0.0,0.0,0.0,0.0,0.0,0.0,0.0,0.0,0.0,0.0,0.0,0.0,0.0,0.0,0.0,0.0,0.0,0.0,0.0,0.0,0.0,0.0,0.0,0.0,0.0,0.0,0.0,0.0,0.0,0.0,0.0,0.0,-0.5537,-0.6747,-0.6543,0.0,0.0,0.0,0.0,0.0,0.0,0.0,0.0,0.0,0.0,0.0,0.0,0.0,0.0,0.0,0.0,0.0,0.0,0.0,0.0,0.0,0.0,0.0,0.0,0.0,0.0,0.0,0.0,0.0,0.0,0.0,0.0,0.0,0.0,0.0,0.0,0.0,0.0,0.0,0.0,0.0,0.0,0.0,0.0,0.0,0.0,0.0,0.0,0.0,0.0,0.0,0.0,0.0,0.0,0.0,0.0,0.0,0.0,0.0,0.0,0.0,0.0,0.0,0.0,0.0,0.0,0.0,0.0,0.0,0.0,0.0,0.0,0.0,0.0,0.0,0.0,0.0,0.0,0.0,0.0,0.0,0.0,0.0,0.0,0.0,0.0,0.0,0.0,0.0,0.0,0.0,0.0,0.0,0.0,0.0,0.0,0.0,0.0,0.0,0.0,0.0,0.0,0.0,0.0,0.0,0.0,0.0,0.0,0.0,0.0,-0.2915,-0.3126,-0.5602,0.0,-0.6385,0.0,0.0,0.0,0.0,0.0,0.0,0.0,0.0,0.0,0.0,0.0,0.0,0.0,0.0,0.0,0.0,0.0,0.0,0.0,0.0,0.0,0.0,0.0,0.0,0.0,0.0,0.0,0.0,0.0,0.0,0.0,0.0,0.0,0.0,0.0,0.0,0.0,0.0,0.0,0.0,0.0,0.0,0.0,0.0,0.0,0.0,0.0,0.0,0.0,0.0,0.0,0.0,0.0,0.0,0.0,0.0,0.0,0.0,0.0,0.0,0.0,0.0,0.0,0.0,0.0,0.0,0.0,0.0,0.0,0.0,0.0,0.0,0.0,0.0,0.0,0.0,0.0,0.0,0.0,0.0,0.0,0.0,0.0,0.0,0.0,0.0,0.0,0.0,0.0,0.0,0.0,0.0,0.0,0.0,0.0,0.0,0.0,0.0,0.0,0.0,0.0,0.0,0.0,0.0,0.0,0.0,0.0,0.0,0.0,0.0,-0.2237,-0.3353,-0.5609,-0.6611,0.0,0.0,0.0,0.0,0.0,0.0,0.0,0.0,0.0,0.0,0.0,0.0,0.0,0.0,0.0,0.0,0.0,0.0,0.0,0.0,0.0,0.0,0.0,0.0,0.0,0.0,0.0,0.0,0.0,0.0,0.0,0.0,0.0,0.0,0.0,0.0,0.0,0.0,0.0,0.0,0.0,0.0,0.0,0.0,0.0,0.0,0.0,0.0,0.0,0.0,0.0,0.0,0.0,0.0,0.0,0.0,0.0,0.0,0.0,0.0,0.0,0.0,0.0,0.0,0.0,0.0,0.0,0.0,0.0,0.0,0.0,0.0,0.0,0.0,0.0,0.0,0.0,0.0,0.0,0.0,0.0,0.0,0.0,0.0,0.0,0.0,0.0,0.0,0.0,0.0,0.0,0.0,0.0,0.0,0.0,0.0,0.0,0.0,0.0,0.0,0.0,0.0,0.0,0.0,0.0,0.0,0.0,0.0,0.0,0.0,-0.0327,-0.1879,-0.3962,-0.5824,-0.6659,-0.6374,0.0,0.0,0.0,0.0,0.0,0.0,0.0,0.0,0.0,0.0,0.0,0.0,0.0,0.0,0.0,0.0,0.0,0.0,0.0,0.0,0.0,0.0,0.0,0.0,0.0,0.0,0.0,0.0,0.0,0.0,0.0,0.0,0.0,0.0,0.0,0.0,0.0,0.0,0.0,0.0,0.0,0.0,0.0,0.0,0.0,0.0,0.0,0.0,0.0,0.0,0.0,0.0,0.0,0.0,0.0,0.0,0.0,0.0,0.0,0.0,0.0,0.0,0.0,0.0,0.0,0.0,0.0,0.0,0.0,0.0,0.0,0.0,0.0,0.0,0.0,0.0,0.0,0.0,0.0,0.0,0.0,0.0,0.0,0.0,0.0,0.0,0.0,0.0,0.0,0.0,0.0,0.0,0.0,0.0,0.0,0.0,0.0,0.0,0.0,0.0,0.0,0.0,0.0,0.0,0.0,0.0,0.0,0.0,0.0763,-0.0333,-0.2291,-0.4977,-0.6468,-0.6965,0.0,0.0,0.0,0.0,0.0,0.0,0.0,0.0,0.0,0.0,0.0,0.0,0.0,0.0,0.0,0.0,0.0,0.0,0.0,0.0,0.0,0.0,0.0,0.0,0.0,0.0,0.0,0.0,0.0,0.0,0.0,0.0,0.0,0.0,0.0,0.0,0.0,0.0,0.0,0.0,0.0,0.0,0.0,0.0,0.0,0.0,0.0,0.0,0.0,0.0,0.0,0.0,0.0,0.0,0.0,0.0,0.0,0.0,0.0,0.0,0.0,0.0,0.0,0.0,0.0,0.0,0.0,0.0,0.0,0.0,0.0,0.0,0.0,0.0,0.0,0.0,0.0,0.0,0.0,0.0,0.0,0.0,0.0,0.0,0.0,0.0,0.0,0.0,0.0,0.0,0.0,0.0,0.0,0.0,0.0,0.0,0.0,0.0,0.0,0.0,0.0,0.0,0.0,0.0,0.0,0.0,0.0,0.0,0.0,0.0753,-0.1435,-0.3132,-0.4191,-0.6067,-0.6938,0.0,0.0,0.0,0.0,0.0,0.0,0.0,0.0,0.0,0.0,0.0,0.0,0.0,0.0,0.0,0.0,0.0,0.0,0.0,0.0,0.0,0.0,0.0,0.0,0.0,0.0,0.0,0.0,0.0,0.0,0.0,0.0,0.0,0.0,0.0,0.0,0.0,0.0,0.0,0.0,0.0,0.0,0.0,0.0,0.0,0.0,0.0,0.0,0.0,0.0,0.0,0.0,0.0,0.0,0.0,0.0,0.0,0.0,0.0,0.0,0.0,0.0,0.0,0.0,0.0,0.0,0.0,0.0,0.0,0.0,0.0,0.0,0.0,0.0,0.0,0.0,0.0,0.0,0.0,0.0,0.0,0.0,0.0,0.0,0.0,0.0,0.0,0.0,0.0,0.0,0.0,0.0,0.0,0.0,0.0,0.0,0.0,0.0,0.0,0.0,0.0,0.0,0.0,0.0,0.0,0.0,0.0,0.0,0.0,0.0759,0.0,-0.3656,-0.3742,-0.5915,-0.7113,0.0,0.0,0.0,0.0,0.0,0.0,0.0,0.0,0.0,0.0,0.0,0.0,0.0,0.0,0.0,0.0,0.0,0.0,0.0,0.0,0.0,0.0,0.0,0.0,0.0,0.0,0.0,0.0,0.0,0.0,0.0,0.0,0.0,0.0,0.0,0.0,0.0,0.0,0.0,0.0,0.0,0.0,0.0,0.0,0.0,0.0,0.0,0.0,0.0,0.0,0.0,0.0,0.0,0.0,0.0,0.0,0.0,0.0,0.0,0.0,0.0,0.0,0.0,0.0,0.0,0.0,0.0,0.0,0.0,0.0,0.0,0.0,0.0,0.0,0.0,0.0,0.0,0.0,0.0,0.0,0.0,0.0,0.0,0.0,0.0,0.0,0.0,0.0,0.0,0.0,0.0,0.0,0.0,0.0,0.0,0.0,0.0,0.0,0.0,0.0,0.0,0.0,0.0,0.0,0.0,0.0,0.0,0.0,0.1385,0.0782,-0.2043,-0.3692,-0.3855,-0.6146,-0.744,0.0,0.0,0.0,0.0,0.0,0.0,0.0,0.0,0.0,0.0,0.0,0.0,0.0,0.0,0.0,0.0,0.0,0.0,0.0,0.0,0.0,0.0,0.0,0.0,0.0,0.0,0.0,0.0,0.0,0.0,0.0,0.0,0.0,0.0,0.0,0.0,0.0,0.0,0.0,0.0,0.0,0.0,0.0,0.0,0.0,0.0,0.0,0.0,0.0,0.0,0.0,0.0,0.0,0.0,0.0,0.0,0.0,0.0,0.0,0.0,0.0,0.0,0.0,0.0,0.0,0.0,0.0,0.0,0.0,0.0,0.0,0.0,0.0,0.0,0.0,0.0,0.0,0.0,0.0,0.0,0.0,0.0,0.0,0.0,0.0,0.0,0.0,0.0,0.0,0.0,0.0,0.0,0.0,0.0,0.0,0.0,0.0,0.0,0.0,0.0,0.0,0.0,0.0,0.0,0.0,0.0,0.0,0.0,0.0,-0.0432,-0.25,-0.4126,-0.5277,-0.6779,-0.7651,0.0,0.0,0.0,0.0,0.0,0.0,0.0,0.0,0.0,0.0,0.0,0.0,0.0,0.0,0.0,0.0,0.0,0.0,0.0,0.0,0.0,0.0,0.0,0.0,0.0,0.0,0.0,0.0,0.0,0.0,0.0,0.0,0.0,0.0,0.0,0.0,0.0,0.0,0.0,0.0,0.0,0.0,0.0,0.0,0.0,0.0,0.0,0.0,0.0,0.0,0.0,0.0,0.0,0.0,0.0,0.0,0.0,0.0,0.0,0.0,0.0,0.0,0.0,0.0,0.0,0.0,0.0,0.0,0.0,0.0,0.0,0.0,0.0,0.0,0.0,0.0,0.0,0.0,0.0,0.0,0.0,0.0,0.0,0.0,0.0,0.0,0.0,0.0,0.0,0.0,0.0,0.0,0.0,0.0,0.0,0.0,0.0,0.0,0.0,0.0,0.0,0.0,0.0,0.0,0.0,0.0,0.0,0.0,0.0,-0.2296,-0.3628,-0.4876,-0.6125,-0.7136,-0.8011,-0.8783,0.0,0.0,0.0,0.0,0.0,0.0,0.0,0.0,0.0,0.0,0.0,0.0,0.0,0.0,0.0,0.0,0.0,0.0,0.0,0.0,0.0,0.0,0.0,0.0,0.0,0.0,0.0,0.0,0.0,0.0,0.0,0.0,0.0,0.0,0.0,0.0,0.0,0.0,0.0,0.0,0.0,0.0,0.0,0.0,0.0,0.0,0.0,0.0,0.0,0.0,0.0,0.0,0.0,0.0,0.0,0.0,0.0,0.0,0.0,0.0,0.0,0.0,0.0,0.0,0.0,0.0,0.0,0.0,0.0,0.0,0.0,0.0,0.0,0.0,0.0,0.0,0.0,0.0,0.0,0.0,0.0,0.0,0.0,0.0,0.0,0.0,0.0,0.0,0.0,0.0,0.0,0.0,0.0,0.0,0.0,0.0,0.0,0.0,0.0,0.0,0.0,0.0,0.0,0.0,0.0,0.0,0.0,0.0,-0.4416,-0.5224,-0.5917,-0.6553,-0.739,-0.8535,0.0,0.0,0.0,0.0,0.0,0.0,0.0,0.0,0.0,0.0,0.0,0.0,0.0,0.0,0.0,0.0,0.0,0.0,0.0,0.0,0.0,0.0,0.0,0.0,0.0,0.0,0.0,0.0,0.0,0.0,0.0,0.0,0.0,0.0,0.0,0.0,0.0,0.0,0.0,0.0,0.0,0.0,0.0,0.0,0.0,0.0,0.0,0.0,0.0,0.0,0.0,0.0,0.0,0.0,0.0,0.0,0.0,0.0,0.0,0.0,0.0,0.0,0.0,0.0,0.0,0.0,0.0,0.0,0.0,0.0,0.0,0.0,0.0,0.0,0.0,0.0,0.0,0.0,0.0,0.0,0.0,0.0,0.0,0.0,0.0,0.0,0.0,0.0,0.0,0.0,0.0,0.0,0.0,0.0,0.0,0.0,0.0,0.0,0.0,0.0,0.0,0.0,0.0,0.0,0.0,0.0,0.0,0.0,0.0,-0.4719,-0.6257,-0.7466,-0.8196,-0.8064,-0.8739,0.0,0.0,0.0,0.0,0.0,0.0,0.0,0.0,0.0,0.0,0.0,0.0,0.0,0.0,0.0,0.0,0.0,0.0,0.0,0.0,0.0,0.0,0.0,0.0,0.0,0.0,0.0,0.0,0.0,0.0,0.0,0.0,0.0,0.0,0.0,0.0,0.0,0.0,0.0,0.0,0.0,0.0,0.0,0.0,0.0,0.0,0.0,0.0,0.0,0.0,0.0,0.0,0.0,0.0,0.0,0.0,0.0,0.0,0.0,0.0,0.0,0.0,0.0,0.0,0.0,0.0,0.0,0.0,0.0,0.0,0.0,0.0,0.0,0.0,0.0,0.0,0.0,0.0,0.0,0.0,0.0,0.0,0.0,0.0,0.0,0.0,0.0,0.0,0.0,0.0,0.0,0.0,0.0,0.0,0.0,0.0,0.0,0.0,0.0,0.0,0.0,0.0,0.0,0.0,0.0,0.0,0.0,0.0,-0.5291,-0.5513,-0.6988,-0.8135,-0.8937,-0.8414,-0.9111,0.0,0.0,0.0,0.0,0.0,0.0,0.0,0.0,0.0,0.0,0.0,0.0,0.0,0.0,0.0,0.0,0.0,0.0,0.0,0.0,0.0,0.0,0.0,0.0,0.0,0.0,0.0,0.0,0.0,0.0,0.0,0.0,0.0,0.0,0.0,0.0,0.0,0.0,0.0,0.0,0.0,0.0,0.0,0.0,0.0,0.0,0.0,0.0,0.0,0.0,0.0,0.0,0.0,0.0,0.0,0.0,0.0,0.0,0.0,0.0,0.0,0.0,0.0,0.0,0.0,0.0,0.0,0.0,0.0,0.0,0.0,0.0,0.0,0.0,0.0,0.0,0.0,0.0,0.0,0.0,0.0,0.0,0.0,0.0,0.0,0.0,0.0,0.0,0.0,0.0,0.0,0.0,0.0,0.0,0.0,0.0,0.0,0.0,0.0,0.0,0.0,0.0,0.0,0.0,0.0,0.0,0.0,0.0,-0.6239,-0.6494,-0.7385,-0.8237,-0.8975,-0.8608,-0.9574,0.0,0.0,0.0,0.0,0.0,0.0,0.0,0.0,0.0,0.0,0.0,0.0,0.0,0.0,0.0,0.0,0.0,0.0,0.0,0.0,0.0,0.0,0.0,0.0,0.0,0.0,0.0,0.0,0.0,0.0,0.0,0.0,0.0,0.0,0.0,0.0,0.0,0.0,0.0,0.0,0.0,0.0,0.0,0.0,0.0,0.0,0.0,0.0,0.0,0.0,0.0,0.0,0.0,0.0,0.0,0.0,0.0,0.0,0.0,0.0,0.0,0.0,0.0,0.0,0.0,0.0,0.0,0.0,0.0,0.0,0.0,0.0,0.0,0.0,0.0,0.0,0.0,0.0,0.0,0.0,0.0,0.0,0.0,0.0,0.0,0.0,0.0,0.0,0.0,0.0,0.0,0.0,0.0,0.0,0.0,0.0,0.0,0.0,0.0,0.0,0.0,0.0,0.0,0.0,0.0,0.0,0.0,0.0,-0.664,-0.709,-0.7628,-0.8301,-0.9056,-0.8608,-0.9578,0.0,0.0,0.0,0.0,0.0,0.0,0.0,0.0,0.0,0.0,0.0,0.0,0.0,0.0,0.0,0.0,0.0,0.0,0.0,0.0,0.0,0.0,0.0,0.0,0.0,0.0,0.0,0.0,0.0,0.0,0.0,0.0,0.0,0.0,0.0,0.0,0.0,0.0,0.0,0.0,0.0,0.0,0.0,0.0,0.0,0.0,0.0,0.0,-0.7436,0.0,0.0,0.0,0.0,0.0,0.0,0.0,0.0,0.0,0.0,0.0,0.0,0.0,0.0,0.0,0.0,0.0,0.0,0.0,0.0,0.0,0.0,0.0,0.0,0.0,0.0,0.0,0.0,0.0,0.0,0.0,0.0,0.0,0.0,0.0,0.0,0.0,0.0,0.0,0.0,0.0,0.0,0.0,0.0,0.0,0.0,0.0,0.0,0.0,0.0,0.0,0.0,0.0,0.0,0.0,0.0,0.0,0.0,0.0,-0.7036,-0.7274,-0.7688,-0.8273,-0.8952,-0.8633,-0.9676,0.0,0.0,0.0,0.0,0.0,0.0,0.0,0.0,0.0,0.0,0.0,0.0,0.0,0.0,0.0,0.0,0.0,0.0,0.0,0.0,0.0,0.0,0.0,0.0,0.0,0.0,0.0,0.0,0.0,0.0,0.0,0.0,0.0,0.0,0.0,0.0,0.0,0.0,0.0,0.0,0.0,0.0,0.0,0.0,0.0,0.0,0.0,0.0,0.0,0.0,0.0,0.0,0.0,0.0,0.0,0.0,0.0,0.0,0.0,0.0,0.0,0.0,0.0,0.0,0.0,0.0,0.0,0.0,0.0,0.0,0.0,0.0,0.0,0.0,0.0,0.0,0.0,0.0,0.0,0.0,0.0,0.0,0.0,0.0,0.0,0.0,0.0,0.0,0.0,0.0,0.0,0.0,0.0,0.0,0.0,0.0,0.0,0.0,0.0,0.0,0.0,0.0,0.0,0.0,0.0,0.0,0.0,-0.6807,-0.7311,-0.7365,-0.7696,-0.8238,-0.8912,-0.8919,-0.9982,-1.2191,0.0,0.0,0.0,0.0,0.0,0.0,0.0,0.0,0.0,0.0,0.0,0.0,0.0,0.0,0.0,0.0,0.0,0.0,0.0,0.0,0.0,0.0,0.0,0.0,0.0,0.0,0.0,0.0,0.0,0.0,0.0,0.0,0.0,0.0,0.0,0.0,0.0,0.0,0.046,-0.1439,0.0,0.0,0.0,0.0,0.0,0.0,0.0,0.0,-0.7768,0.0,0.0,0.0,0.0,0.0,0.0,0.0,0.0,0.0,0.0,0.0,0.0,0.0,0.0,0.0,0.0,0.0,0.0,0.0,0.0,0.0,0.0,0.0,0.0,0.0,0.0,0.0,0.0,0.0,0.0,0.0,0.0,0.0,0.0,0.0,0.0,0.0,0.0,0.0,0.0,0.0,0.0,0.0,0.0,0.0,0.0,0.0,0.0,0.0,0.0,0.0,0.0,0.0,0.0,0.0,0.0,-0.6792,-0.6894,-0.725,-0.7773,-0.7861,-0.8238,-0.8915,-0.9909,-1.0977,-1.2073,0.0,0.0,0.0,0.0,0.0,0.0,0.0,0.0,0.0,0.0,0.0,0.0,0.0,0.0,0.0,0.0,0.0,0.0,0.0,0.0,0.0,0.0,0.0,0.0,0.0,0.0,0.0,0.0,0.0,0.0,0.0,0.0,0.0,0.0,0.0,0.0,0.0,0.0,0.0,-0.1001,-0.2848,0.0,0.0,0.0,0.0,0.0,0.0,0.0,0.0,-0.841,0.0,0.0,0.0,0.0,0.0,0.0,0.0,0.0,0.0,0.0,0.0,0.0,0.0,0.0,0.0,0.0,0.0,0.0,0.0,0.0,0.0,0.0,0.0,0.0,0.0,0.0,0.0,0.0,0.0,0.0,0.0,0.0,0.0,0.0,0.0,0.0,0.0,0.0,0.0,0.0,0.0,0.0,0.0,0.0,0.0,0.0,0.0,0.0,0.0,0.0,0.0,0.0,0.0,0.0,0.0,-0.6865,-0.7174,-0.7522,-0.7861,-0.7933,-0.8238,-0.8912,-0.9842,-1.0928,0.0,0.0,0.0,0.0,0.0,0.0,0.0,0.0,0.0,0.0,0.0,0.0,0.0,0.0,0.0,0.0,0.0,0.0,0.0,0.0,0.0,0.0,0.0,0.0,0.0,0.0,0.0,0.0,0.0,0.0,0.0,0.0,0.0,0.0,0.0,0.0,0.0,0.0,0.0,0.0,-0.1763,-0.3609,-0.3051,0.0,0.0,0.0,0.0,0.0,0.0,-0.8362,-0.9255,0.0,0.0,0.0,0.0,0.0,0.0,0.0,0.0,0.0,0.0,0.0,0.0,0.0,0.0,0.0,0.0,0.0,0.0,0.0,0.0,0.0,0.0,0.0,0.0,0.0,0.0,0.0,0.0,0.0,0.0,0.0,0.0,0.0,0.0,0.0,0.0,0.0,0.0,0.0,0.0,0.0,0.0,0.0,0.0,0.0,0.0,0.0,0.0,0.0,0.0,0.0,0.0,0.0,0.0,0.0,-0.6884,-0.7351,-0.7706,-0.7861,-0.7933,-0.8227,-0.8872,-0.9887,-1.0944,0.0,0.0,0.0,0.0,0.0,0.0,0.0,0.0,0.0,0.0,0.0,0.0,0.0,0.0,0.0,0.0,0.0,0.0,0.0,0.0,0.0,0.0,0.0,0.0,0.0,0.0,0.0,0.0,0.0,0.0,0.0,0.0,0.0,0.0,0.0,0.0,0.0,0.0,0.0,0.0,0.0,-0.4407,-0.363,-0.5787,0.0,0.0,0.0,0.0,-0.8124,-0.8992,0.0,0.0,0.0,0.0,0.0,0.0,0.0,0.0,0.0,0.0,0.0,0.0,0.0,0.0,0.0,0.0,0.0,0.0,0.0,0.0,0.0,0.0,0.0,0.0,0.0,0.0,0.0,0.0,0.0,0.0,0.0,0.0,0.0,0.0,0.0,0.0,0.0,0.0,0.0,0.0,0.0,0.0,0.0,0.0,0.0,0.0,0.0,0.0,0.0,0.0,0.0,0.0,0.0,0.0,0.0,0.0,-0.7143,-0.7301,-0.7538,-0.785,-0.7933,-0.8124,-0.8614,-1.0808,-1.1964,0.0,0.0,0.0,0.0,0.0,0.0,0.0,0.0,0.0,0.0,0.0,0.0,0.0,0.0,0.0,0.0,0.0,0.0,0.0,0.0,0.0,0.0,0.0,0.0,0.0,0.0,0.0,0.0,0.0,0.0,0.0,0.0,0.0,0.0,0.0,0.0,0.0,0.0,0.0,0.0,0.0,-0.4777,-0.4121,-0.5998,-0.747,0.0,0.0,-0.8052,-0.8396,-0.9761,0.0,0.0,0.0,0.0,0.0,0.0,0.0,0.0,0.0,0.0,0.0,0.0,0.0,0.0,0.0,0.0,0.0,0.0,0.0,0.0,0.0,0.0,0.0,0.0,0.0,0.0,0.0,0.0,0.0,0.0,0.0,0.0,0.0,0.0,0.0,0.0,0.0,0.0,0.0,0.0,0.0,0.0,0.0,0.0,0.0,0.0,0.0,0.0,0.0,0.0,0.0,0.0,0.0,0.0,0.0,-0.673,-0.7054,-0.7241,-0.7445,-0.7663,-0.7671,-0.7943,-0.8475,-0.9834,-1.0887,0.0,0.0,0.0,0.0,0.0,0.0,0.0,0.0,0.0,0.0,0.0,0.0,0.0,0.0,0.0,0.0,0.0,0.0,0.0,0.0,0.0,0.0,0.0,0.0,0.0,0.0,0.0,0.0,0.0,0.0,0.0,0.0,0.0,0.0,0.0,0.0,0.0,0.0,0.0,0.0,0.0,0.0,-0.4843,-0.6444,0.0,0.0,0.0,-0.8384,-0.9422,0.0,0.0,0.0,0.0,0.0,0.0,0.0,0.0,0.0,0.0,0.0,0.0,0.0,0.0,0.0,0.0,0.0,0.0,0.0,0.0,0.0,0.0,0.0,0.0,0.0,0.0,0.0,0.0,0.0,0.0,0.0,0.0,0.0,0.0,0.0,0.0,0.0,0.0,0.0,0.0,0.0,0.0,0.0,0.0,0.0,0.0,0.0,0.0,0.0,0.0,0.0,0.0,0.0,0.0,0.0,0.0,0.0,-0.694,-0.7201,-0.7336,-0.7513,-0.7519,-0.7721,-0.8223,-0.8982,0.0,0.0,0.0,0.0,0.0,0.0,0.0,0.0,0.0,0.0,0.0,0.0,0.0,0.0,0.0,0.0,0.0,0.0,0.0,0.0,0.0,0.0,0.0,0.0,0.0,0.0,0.0,-0.5691,0.0,0.0,0.0,0.0,0.0,0.0,0.0,0.0,0.0,0.0,0.0,0.0,0.0,0.0,-0.6538,-0.5649,-0.6907,-0.8022,0.0,0.0,-0.9241,-1.0876,-1.2302,-1.3474,0.0,0.0,0.0,0.0,0.0,0.0,0.0,0.0,0.0,0.0,0.0,0.0,0.0,0.0,0.0,0.0,0.0,0.0,0.0,0.0,0.0,0.0,0.0,0.0,0.0,0.0,0.0,0.0,0.0,0.0,0.0,0.0,0.0,0.0,0.0,0.0,0.0,0.0,0.0,0.0,0.0,0.0,0.0,0.0,0.0,0.0,0.0,0.0,0.0,0.0,0.0,0.0,0.0,0.0,0.0,-0.682,-0.7157,-0.7388,-0.751,-0.7519,-0.7525,-0.7639,-0.8975,-0.9951,0.0,0.0,0.0,0.0,0.0,0.0,0.0,0.0,0.0,0.0,0.0,0.0,0.0,0.0,0.0,0.0,0.0,0.0,0.0,0.0,0.0,0.0,0.0,0.0,0.0,0.0,0.0,0.0,0.0,0.0,0.0,0.0,0.0,0.0,0.0,0.0,0.0,0.0,0.0,0.0,0.0,-0.6961,-0.647,-0.7295,-0.8413,0.0,0.0,-1.1158,-1.2777,-1.444,-1.5237,-1.4173,0.0,0.0,0.0,0.0,0.0,0.0,0.0,0.0,0.0,0.0,0.0,0.0,0.0,0.0,0.0,0.0,0.0,0.0,0.0,0.0,0.0,0.0,0.0,0.0,0.0,0.0,0.0,0.0,0.0,0.0,0.0,0.0,0.0,0.0,0.0,0.0,0.0,0.0,0.0,0.0,0.0,0.0,0.0,0.0,0.0,0.0,0.0,0.0,0.0,0.0,0.0,0.0,0.0,-0.6737,-0.6788,-0.7236,-0.7414,-0.7344,-0.7292,-0.7302,-0.7367,-0.7821,-0.8772,0.0,0.0,0.0,0.0,0.0,0.0,0.0,0.0,0.0,0.0,0.0,0.0,0.0,0.0,0.0,0.0,0.0,0.0,0.0,0.0,0.0,0.0,0.0,0.0,0.0,0.0,0.0,0.0,-0.6021,-0.6029,-0.6119,0.0,0.0,0.0,0.0,0.0,0.0,0.0,0.0,0.0,0.0,-0.7464,-0.7965,-0.8813,0.0,0.0,-1.1698,-1.2636,-1.3937,-1.4722,-1.5091,-1.4944,-1.5192,0.0,0.0,0.0,0.0,0.0,0.0,0.0,0.0,0.0,0.0,0.0,0.0,0.0,0.0,0.0,0.0,0.0,0.0,0.0,0.0,0.0,0.0,0.0,0.0,0.0,0.0,0.0,0.0,0.0,0.0,0.0,0.0,0.0,0.0,0.0,0.0,0.0,0.0,0.0,0.0,0.0,0.0,0.0,0.0,0.0,0.0,0.0,0.0,0.0,0.0,0.0,0.0,-0.6889,-0.6889,-0.7337,-0.7489,-0.722,-0.722,-0.7147,-0.7006,-0.6978,-0.7811,0.0,0.0,0.0,0.0,0.0,0.0,0.0,0.0,0.0,0.0,0.0,0.0,0.0,0.0,0.0,0.0,0.0,0.0,0.0,0.0,0.0,0.0,0.0,0.0,0.0,0.0,0.0,0.0,-0.613,-0.6121,-0.6154,0.0,0.0,0.0,0.0,0.0,0.0,0.0,0.0,0.0,0.0,-0.807,-0.9387,-1.0098,-1.0975,-1.2281,-1.2988,-1.3803,-1.5009,-1.5274,-1.5421,-1.5468,0.0,0.0,0.0,0.0,0.0,0.0,0.0,0.0,0.0,0.0,0.0,0.0,0.0,0.0,0.0,0.0,0.0,0.0,0.0,0.0,0.0,0.0,0.0,0.0,0.0,0.0,0.0,0.0,0.0,0.0,-0.6276,0.0,0.0,0.0,0.0,0.0,0.0,0.0,0.0,0.0,0.0,0.0,0.0,0.0,0.0,0.0,0.0,0.0,0.0,0.0,0.0,0.0,0.0,-0.7003,-0.7009,-0.7386,-0.7481,-0.7211,-0.7217,-0.7049,-0.6678,-0.6881,-0.7311,-0.8042,0.0,0.0,0.0,0.0,0.0,0.0,0.0,0.0,0.0,0.0,0.0,0.0,0.0,0.0,0.0,0.0,0.0,0.0,0.0,0.0,0.0,0.0,0.0,0.0,0.0,0.0,-0.592,-0.5817,-0.5801,0.0,0.0,0.0,0.0,0.0,0.0,0.0,0.0,0.0,0.0,-0.8181,-0.8869,-1.0503,-1.0923,-1.1791,-1.3895,-1.4236,-1.4722,-1.6014,-1.6458,-1.6367,0.0,0.0,0.0,0.0,0.0,0.0,0.0,0.0,0.0,0.0,0.0,0.0,0.0,0.0,0.0,0.0,0.0,0.0,0.0,0.0,0.0,0.0,0.0,0.0,0.0,0.0,0.0,-0.4427,-0.6331,0.0,0.0,0.0,0.0,0.0,0.0,0.0,0.0,0.0,0.0,0.0,-0.6257,-0.6257,0.0,0.0,0.0,0.0,0.0,0.0,0.0,0.0,0.0,0.0,0.0,0.0,-0.7143,-0.7159,-0.7614,-0.7633,-0.722,-0.722,-0.6994,-0.6499,-0.655,-0.6888,-0.7612,0.0,0.0,0.0,0.0,0.0,0.0,0.0,0.0,0.0,0.0,0.0,0.0,0.0,0.0,0.0,0.0,0.0,0.0,0.0,0.0,0.0,0.0,0.0,0.0,0.0,-0.6024,0.0,0.0,0.0,0.0,0.0,0.0,0.0,0.0,0.0,0.0,0.0,-0.7633,-0.8744,-0.9338,-1.0162,-1.1439,-1.2525,-1.3705,0.0,0.0,0.0,0.0,0.0,0.0,0.0,0.0,0.0,0.0,0.0,0.0,0.0,0.0,-1.5052,-1.4883,-1.4702,-1.4473,-1.4238,0.0,0.0,0.0,0.0,0.0,0.0,0.0,0.0,0.0,0.0,0.0,0.0,0.0,0.0,-0.4412,0.0,-0.6301,0.0,0.0,0.0,0.0,0.0,0.0,0.0,0.0,-0.6427,-0.6439,-0.6328,-0.6325,-0.6285,0.0,-0.6208,-0.6146,0.0,0.0,0.0,0.0,0.0,0.0,0.0,0.0,-0.7167,-0.7083,-0.7492,-0.7464,-0.702,-0.6975,-0.6755,-0.6314,-0.6314,-0.6681,-0.7533,-0.9335,-1.0241,0.0,0.0,0.0,0.0,0.0,0.0,0.0,0.0,0.0,0.0,0.0,0.0,0.0,0.0,0.0,0.0,0.0,0.0,0.0,0.0,0.0,0.0,0.0,-0.6053,0.0,0.0,0.0,0.0,0.0,0.0,0.0,0.0,0.0,-0.7894,-0.8083,-0.8628,-0.9662,-1.0352,-1.1225,-1.2491,0.0,0.0,0.0,0.0,0.0,0.0,0.0,-1.5415,-1.5149,-1.4968,-1.4823,-1.4733,-1.4932,-1.5077,-1.4986,0.0,0.0,-1.4883,-1.4781,-1.466,-1.4479,-1.4588,-1.4679,-1.4683,-1.475,-1.4977,0.0,0.0,0.0,0.0,0.0,0.0,0.0,0.0,-0.3228,-0.4392,0.0,-0.6322,0.0,0.0,0.0,0.0,0.0,-0.6505,0.0,0.0,-0.6554,-0.6545,-0.6431,-0.6376,-0.6376,-0.6376,-0.6365,-0.6358,-0.6246,-0.6018,0.0,0.0,0.0,0.0,0.0,0.0,-0.7067,-0.6788,-0.7011,-0.6979,-0.6691,-0.6575,-0.6369,-0.6139,-0.6083,-0.6591,-0.7697,-0.8558,-0.9504,-1.0428,-1.1341,0.0,0.0,0.0,0.0,0.0,0.0,0.0,0.0,0.0,0.0,0.0,0.0,0.0,0.0,0.0,0.0,0.0,0.0,0.0,0.0,-0.6078,0.0,0.0,0.0,0.0,0.0,0.0,0.0,0.0,0.0,0.0,-0.7902,-0.8794,-0.9864,-1.0639,0.0,0.0,0.0,0.0,-1.4521,-1.5359,-1.5487,-1.5493,-1.5487,-1.5481,-1.5378,-1.5131,0.0,0.0,-1.4775,-1.4938,-1.501,-1.4719,-1.4914,-1.5083,-1.5059,-1.4877,-1.4733,-1.4708,-1.4708,-1.4857,-1.529,-1.5505,-1.5831,0.0,0.0,0.0,0.0,0.0,0.0,-0.1291,-0.3335,-0.3236,-0.4369,-0.6382,-0.6304,0.0,0.0,0.0,0.0,0.0,0.0,-0.6422,-0.6389,-0.6422,-0.6426,-0.6314,-0.6317,-0.6271,-0.6187,-0.6187,-0.6168,-0.613,-0.598,-0.6084,-0.6496,0.0,0.0,0.0,0.0,-0.6931,-0.675,-0.6876,-0.6801,-0.656,-0.6525,-0.6367,-0.6086,-0.5999,-0.6091,-0.6458,-0.7507,-0.8097,-0.8106,-0.9143,0.0,0.0,0.0,0.0,0.0,0.0,0.0,0.0,0.0,0.0,0.0,0.0,0.0,0.0,0.0,0.0,0.0,0.0,0.0,-0.5783,-0.5907,-0.6076,0.0,0.0,0.0,0.0,0.0,0.0,0.0,0.0,0.0,-0.9983,-1.0017,-1.064,0.0,0.0,-1.318,-1.3802,-1.442,-1.4928,-1.5215,-1.5221,0.0,0.0,-1.5065,-1.4914,-1.4841,-1.4829,-1.4859,-1.498,-1.4908,-1.4805,-1.4721,-1.4612,-1.4527,-1.4545,-1.4799,-1.4902,-1.4769,-1.4714,-1.4869,-1.5271,-1.5395,-1.5738,0.0,0.0,0.0,0.0,0.0,0.0,-0.1026,-0.2712,-0.3022,-0.4172,-0.5782,-0.6166,-0.6268,-0.6162,-0.6236,0.0,0.0,0.0,-0.6344,-0.6298,-0.6298,-0.626,-0.62,-0.6246,-0.6159,-0.6089,-0.6086,-0.6086,-0.6086,-0.5964,-0.609,-0.645,0.0,0.0,-0.6532,-0.6666,-0.6594,-0.6411,-0.6441,-0.6432,-0.629,-0.6198,-0.6149,-0.6007,-0.5896,-0.5855,-0.5901,-0.6892,-0.7402,-0.7263,-0.8168,-0.8886,0.0,0.0,0.0,0.0,0.0,0.0,0.0,0.0,0.0,0.0,0.0,-0.5426,-0.535,0.0,0.0,0.0,-0.5673,-0.5871,-0.613,-0.6238,0.0,0.0,0.0,0.0,0.0,0.0,0.0,-1.1072,-1.1637,-1.1842,-1.15,-1.1201,-1.1486,-1.2724,-1.3314,-1.3713,-1.3866,0.0,-1.4823,-1.4938,-1.495,-1.4986,-1.5089,-1.489,-1.4684,-1.457,-1.4461,-1.4491,-1.4727,-1.4491,-1.4286,-1.4334,-1.4171,-1.3984,-1.399,-1.4262,-1.4479,-1.4407,-1.4395,-1.4544,-1.4978,-1.5239,-1.5788,0.0,0.0,0.0,0.0,0.0,0.0,-0.0606,-0.1664,-0.2624,-0.3682,-0.4734,-0.5784,-0.6275,-0.6268,-0.6306,0.0,-0.6092,-0.6203,-0.6243,-0.6086,-0.6086,-0.6081,-0.607,-0.6072,-0.6067,-0.6059,-0.6056,-0.6056,-0.6051,-0.5942,-0.5985,-0.6259,-0.6143,-0.6086,-0.6091,-0.6246,-0.6122,-0.589,-0.5888,-0.589,-0.5888,-0.5787,-0.5782,-0.5885,-0.579,-0.5784,-0.588,-0.6598,-0.7105,-0.7353,-0.7947,-0.8325,-0.8444,0.0,0.0,0.0,0.0,0.0,0.0,0.0,0.0,0.0,0.0,0.0,0.0,0.0,0.0,0.0,-0.5775,0.0,-0.6745,-0.6988,0.0,0.0,0.0,-0.9358,-0.9574,-1.0855,-1.1739,-1.1753,0.0,0.0,-1.2361,0.0,-1.2327,-1.303,-1.3542,-1.3859,-1.3931,-1.4172,-1.4389,-1.4648,-1.4684,-1.4757,-1.4896,-1.4727,-1.4473,-1.4244,-1.4032,-1.3984,-1.4159,-1.3888,-1.3658,-1.3851,-1.3682,-1.3525,-1.3474,-1.3574,-1.3586,-1.3815,-1.387,-1.4035,-1.4553,-1.5122,-1.5881,0.0,0.0,0.0,0.0,0.0,0.0,-0.0614,-0.1615,-0.1842,-0.2603,-0.3626,-0.4732,-0.5579,-0.6263,-0.617,-0.6113,-0.6089,-0.6116,-0.6113,-0.6089,-0.6086,-0.6034,-0.5947,-0.5945,-0.5901,-0.5822,-0.5817,-0.5772,-0.5817,-0.5787,-0.5773,-0.5818,-0.5836,-0.5908,-0.6086,-0.6114,-0.6039,-0.5773,-0.5729,-0.5773,-0.5726,-0.5702,-0.5702,-0.5726,-0.5702,-0.5699,-0.5771,-0.6012,-0.6181,-0.6136,-0.6272,-0.6626,-0.72,-0.701,0.0,0.0,0.0,0.0,0.0,0.0,0.0,0.0,0.0,-0.5181,-0.5067,0.0,-0.5309,0.0,-0.6129,-0.6637,-0.6782,-0.748,0.0,0.0,-0.9527,-1.017,-1.1328,-1.1791,-1.1999,-1.2007,-1.2181,-1.2294,-1.2163,-1.245,-1.2749,-1.3159,-1.3409,-1.3738,-1.4118,-1.425,-1.4316,-1.437,-1.4383,-1.4346,-1.422,-1.3972,-1.3751,-1.3719,-1.3646,-1.3634,-1.3694,-1.3604,-1.3544,-1.3598,-1.3568,-1.3519,-1.3456,-1.3468,-1.3402,-1.3363,-1.3465,-1.382,-1.4469,-1.5072,-1.5763,0.0,0.0,0.0,0.0,0.0,0.0,-0.0306,-0.0909,-0.1376,-0.1934,-0.2567,-0.3593,-0.4626,-0.5554,-0.5493,-0.5675,-0.6007,-0.6005,-0.5977,-0.5928,-0.5928,-0.5893,-0.5828,-0.5783,-0.5748,-0.5686,-0.5637,-0.5607,-0.5607,-0.5607,-0.5607,-0.561,-0.5661,-0.5774,-0.5908,-0.5908,-0.5866,-0.5688,-0.5688,-0.5688,-0.5688,-0.5688,-0.5664,-0.561,-0.5607,-0.5583,-0.5575,-0.5632,-0.5635,-0.5575,-0.557,-0.5729,-0.6056,-0.5947,-0.5842,0.0,0.0,0.0,0.0,0.0,0.0,0.0,0.0,0.0,0.0,0.0,-0.5708,-0.5936,-0.648,-0.7085,-0.779,-0.8321,-0.902,-0.9974,-1.0298,-1.0751,-1.1697,-1.1867,-1.1989,-1.21,-1.2093,-1.2069,-1.2071,-1.2273,-1.2566,-1.295,-1.3194,-1.3463,-1.3841,-1.3954,-1.3948,-1.3948,-1.3954,-1.3906,-1.3749,-1.3616,-1.3468,-1.3501,-1.3417,-1.3375,-1.3483,-1.3308,-1.3188,-1.3302,-1.3242,-1.3157,-1.3157,-1.3157,-1.3097,-1.3012,-1.3049,-1.3271,-1.368,-1.4249,-1.4866,0.0,0.0,0.0,0.0,0.0,0.0,0.0,0.0,-0.1008,-0.146,-0.1655,-0.2552,-0.3513,-0.4497,-0.4579,-0.4999,-0.57,-0.5837,-0.5828,-0.5691,-0.5688,-0.5688,-0.5688,-0.5688,-0.5688,-0.5683,-0.5564,-0.5505,-0.5505,-0.5491,-0.5483,-0.5489,-0.5635,-0.5642,-0.5642,-0.5642,-0.5687,-0.5642,-0.5687,-0.5687,-0.5642,-0.5642,-0.5591,-0.5491,-0.5483,-0.5477,-0.5418,-0.5413,-0.5413,-0.5413,-0.5413,-0.532,-0.5254,-0.5197,-0.5143,0.0,-0.5026,0.0,0.0,0.0,0.0,0.0,0.0,0.0,0.0,-0.6344,-0.6432,-0.6728,-0.6957,-0.7698,-0.9056,-0.9323,-0.9772,-1.0681,-1.0958,-1.1182,-1.1452,-1.1631,-1.1774,-1.2029,-1.1768,-1.1695,-1.1844,-1.1901,-1.2126,-1.2534,-1.2841,-1.3081,-1.3324,-1.3489,-1.3556,-1.3468,-1.3483,-1.3489,-1.3453,-1.3387,-1.3326,-1.335,-1.3163,-1.3115,-1.3338,-1.3025,-1.2795,-1.2982,-1.285,-1.2674,-1.265,-1.2638,-1.2602,-1.2584,-1.2602,-1.262,-1.2747,-1.3262,-1.3664,0.0,0.0,0.0,0.0,0.0,0.0,0.0,0.0,-0.0201,-0.08,-0.1573,-0.1708,-0.2329,-0.3335,-0.4059,-0.4473,-0.4638,-0.5405,-0.571,-0.5688,-0.5688,-0.5688,-0.5688,-0.5688,-0.5688,-0.568,-0.5567,-0.5505,-0.5505,-0.545,-0.5404,-0.5404,-0.5428,-0.5479,-0.5481,0.0,0.0,0.0,-0.5479,-0.5436,-0.5479,-0.5439,-0.547,-0.5446,-0.5404,0.0,-0.5413,-0.5413,-0.5413,-0.5413,-0.5413,0.0,0.0,0.0,0.0,0.0,0.0,0.0,0.0,0.0,0.0,0.0,-0.5659,-0.6269,-0.7139,-0.7473,-0.7616,-0.7517,-0.8261,-0.8882,-0.9187,-1.012,-1.0814,-1.1214,-1.1457,-1.1681,-1.1946,-1.1806,-1.172,-1.1752,-1.1386,-1.1165,-1.1207,-1.1326,-1.1531,-1.1893,-1.2268,-1.2623,-1.28,-1.3173,-1.345,-1.3456,-1.3252,-1.3188,-1.3149,-1.2782,-1.2662,-1.2759,-1.2644,-1.259,-1.2789,-1.2795,-1.2699,-1.2771,-1.2566,-1.2391,-1.2391,-1.2175,-1.2119,-1.2042,-1.2089,-1.2137,-1.2337,-1.2918,-1.3526,0.0192,0.0,0.0047,0.0,0.0,0.0,0.0,0.0,0.0,-0.0294,-0.0809,-0.0746,-0.124,-0.2228,-0.2655,-0.3136,-0.3628,-0.4076,-0.4344,-0.4344,-0.4792,-0.5015,-0.5015,-0.5463,-0.5659,-0.5594,-0.5478,-0.5386,-0.533,-0.5309,-0.5279,-0.532,-0.538,-0.5413,-0.541,-0.535,-0.5306,-0.5413,-0.5413,-0.5413,-0.5413,-0.5413,-0.5383,-0.5322,0.0,0.0,0.0,0.0,0.0,0.0,0.0,0.0,0.0,0.0,0.0,-0.5099,-0.5048,-0.5018,-0.5018,-0.5018,-0.5132,-0.544,-0.624,-0.6774,-0.6887,-0.7524,-0.7931,-0.7985,-0.8705,-0.9458,-1.0033,-1.0651,-1.1098,-1.134,-1.1438,-1.1537,-1.1554,-1.1424,-1.13,-1.1176,-1.0961,-1.081,-1.0816,-1.1016,-1.118,-1.1349,-1.161,-1.191,-1.2159,-1.2691,-1.3073,-1.2946,-1.2705,-1.2494,-1.2512,-1.2295,-1.2115,-1.2264,-1.2204,-1.218,-1.2288,-1.2312,-1.2318,-1.2306,-1.2204,-1.2119,-1.2125,-1.2101,-1.2119,-1.2131,-1.2216,-1.2282,-1.233,-1.2842,-1.3265,0.0426,0.0424,0.0232,0.0092,0.0046,0.0046,0.0047,0.0,0.0,0.0,0.0,0.0,-0.041,-0.1166,-0.1301,-0.1838,-0.2643,-0.2823,-0.2911,-0.2956,-0.3673,-0.4032,-0.4074,-0.4819,-0.5205,-0.5244,-0.5152,-0.5161,-0.5189,-0.5167,-0.5154,-0.5167,-0.526,-0.5347,-0.5298,-0.5208,-0.5205,-0.5344,-0.5309,-0.5306,-0.5347,-0.535,-0.526,-0.5199,-0.5156,-0.5113,-0.5021,-0.5018,-0.5018,-0.5018,-0.5018,-0.5018,-0.5018,-0.5018,-0.5018,-0.5018,-0.5018,-0.5018,-0.5018,-0.5018,-0.521,-0.5709,-0.6584,-0.6921,-0.6476,-0.7275,-0.7926,-0.8194,-0.8793,-0.9665,-1.0763,-1.0945,-1.109,-1.1257,-1.1311,-1.1219,-1.1031,-1.0939,-1.0864,-1.063,-1.0528,-1.049,-1.0528,-1.074,-1.09,-1.094,-1.1157,-1.1324,-1.1612,-1.2182,-1.2464,-1.2318,-1.2149,-1.1928,-1.1892,-1.185,-1.1878,-1.1904,-1.1902,-1.1826,-1.1868,-1.1886,-1.1886,-1.1928,-1.1902,-1.182,-1.1826,-1.1938,-1.2079,-1.2127,-1.2343,-1.2451,-1.2342,-1.2811,-1.3158,0.0644,0.0633,0.0631,0.0495,0.0361,0.0321,0.0232,0.0,0.0,0.0,0.0,0.0,-0.009,-0.0225,-0.1032,-0.148,-0.1659,-0.2509,-0.2911,0.0,-0.3045,-0.309,-0.3133,-0.321,-0.3655,-0.4237,-0.4196,-0.447,-0.5138,-0.5089,-0.5003,-0.5003,-0.5059,-0.5072,-0.5064,-0.505,-0.5048,-0.5067,-0.5067,-0.5067,-0.5067,-0.5064,-0.5019,-0.5042,-0.5042,-0.5034,-0.5018,-0.5018,-0.5018,-0.5018,-0.5018,-0.5018,-0.5018,-0.4979,-0.5018,-0.5018,-0.5018,-0.5018,-0.5018,-0.5018,-0.5057,-0.5137,-0.536,-0.5956,-0.6976,-0.7509,-0.7956,-0.8338,-0.8802,-0.9483,-1.0285,-1.0705,-1.1006,-1.1235,-1.1267,-1.1209,-1.1009,-1.081,-1.0635,-1.0581,-1.0227,-1.0088,-1.0304,-1.0381,-1.0454,-1.0628,-1.0852,-1.1135,-1.1444,-1.1813,-1.1976,-1.1986,-1.191,-1.1886,-1.1808,-1.1682,-1.1639,-1.185,-1.1676,-1.1609,-1.1784,-1.1814,-1.182,-1.1868,-1.1676,-1.1561,-1.1543,-1.1363,-1.1492,-1.1609,-1.1781,-1.1784,-1.1974,-1.2672,-1.3312,0.1672,0.1613,0.0986,0.0628,0.0539,0.0459,0.023,0.0,0.0,0.0,0.0,0.0,0.0,0.0,-0.0449,-0.0628,-0.0673,-0.1122,-0.1346,-0.1389,-0.1861,-0.207,-0.2155,-0.2626,-0.3048,-0.3343,-0.3277,-0.3423,-0.3736,-0.413,-0.4345,-0.4384,-0.4779,-0.5018,-0.5018,-0.5018,-0.4985,-0.4884,-0.4982,-0.5018,-0.5018,-0.5018,-0.5018,-0.5018,-0.5018,-0.5018,-0.5018,-0.4898,-0.4859,-0.4859,-0.474,-0.4662,-0.4662,-0.4662,-0.474,-0.482,-0.482,-0.4859,-0.5018,-0.5018,-0.5018,-0.5021,-0.5061,-0.5328,-0.5956,-0.664,-0.718,-0.7514,-0.8045,-0.8615,-0.9227,-0.9803,-1.0229,-1.0539,-1.0868,-1.108,-1.0973,-1.0778,-1.0589,-1.0444,-1.0143,-0.9932,-1.0078,-1.0089,-1.0089,-1.0242,-1.0429,-1.064,-1.0834,-1.1144,-1.1391,-1.1621,-1.1549,-1.1492,-1.1486,-1.1357,-1.1327,-1.1473,-1.1345,-1.1359,-1.1473,-1.1486,-1.1453,-1.1486,-1.1339,-1.1317,-1.131,-1.1341,-1.1395,-1.1486,-1.1627,-1.1754,-1.196,-1.254,-1.3347,0.2908,0.2774,0.1657,0.1031,0.0808,0.0547,0.0364,0.018,0.0,0.0137,0.0135,0.0045,0.0,0.0,0.0,0.0,0.0,0.0,0.0,0.0,-0.0739,-0.1078,-0.1162,-0.1896,-0.227,-0.2354,-0.238,-0.243,-0.2586,-0.3207,-0.348,-0.3519,-0.407,-0.4453,-0.4549,-0.4572,-0.4594,-0.4624,-0.4762,-0.4848,-0.4936,-0.4961,-0.4936,-0.4936,-0.4897,-0.491,-0.4935,-0.4717,-0.4627,-0.4627,-0.4467,-0.4387,-0.4351,-0.4411,-0.4462,-0.4621,-0.4623,-0.4701,-0.4859,-0.4898,-0.494,-0.494,-0.4979,-0.5018,-0.507,-0.566,-0.6226,-0.659,-0.7101,-0.762,-0.8184,-0.8689,-0.9154,-0.9515,-1.0201,-1.0559,-1.0596,-1.0536,-1.0471,-1.032,-1.0073,-0.9884,-0.9884,-0.9884,-0.9895,-0.9933,-1.0067,-1.0175,-1.0255,-1.0519,-1.0918,-1.1164,-1.1212,-1.1154,-1.1117,-1.1129,-1.1135,-1.1117,-1.1129,-1.1148,-1.116,-1.1135,-1.1123,-1.1154,-1.1141,-1.1141,-1.1141,-1.1268,-1.1381,-1.1471,-1.1621,-1.1778,-1.1902,-1.224,-1.3068,0.4156,0.3978,0.3087,0.2061,0.1077,0.081,0.0674,0.0628,0.0629,0.0629,0.0583,0.018,0.0,0.0,0.0,0.0,0.0,0.0,0.0,0.0,-0.0085,-0.0127,-0.0169,-0.0247,-0.0651,-0.1335,-0.1431,-0.173,-0.227,-0.2542,-0.2543,-0.2386,-0.2425,-0.2747,-0.3159,-0.3251,-0.356,-0.4135,-0.4308,-0.45,-0.47,-0.4792,-0.4814,-0.4812,-0.4621,-0.4596,-0.4717,-0.4492,-0.4327,-0.4327,-0.4289,-0.4286,-0.4296,-0.4332,-0.4419,-0.4419,-0.4421,-0.4423,-0.4462,-0.4623,-0.474,-0.474,-0.4859,-0.4979,-0.4979,-0.5079,-0.54,-0.5879,-0.6217,-0.6688,-0.7449,-0.7809,-0.8069,-0.8396,-0.9112,-0.9545,-0.9606,-1.0004,-1.0311,-1.032,-0.9946,-0.9884,-0.9852,-0.9884,-0.9884,-0.9884,-1.003,-1.0143,-1.0175,-1.0368,-1.0599,-1.0822,-1.0968,-1.108,-1.1111,-1.1117,-1.1117,-1.1117,-1.1117,-1.1117,-1.1117,-1.1117,-1.1117,-1.1117,-1.1117,-1.1117,-1.1117,-1.1154,-1.125,-1.1375,-1.1495,-1.1585,-1.1796,-1.1945,-1.239,0.5139,0.5048,0.4113,0.3042,0.1926,0.121,0.0852,0.0718,0.0718,0.0718,0.0673,0.0494,0.0404,0.0404,0.0266,0.0219,0.0218,0.0086,0.0085,0.0168,0.0166,0.0247,0.0329,0.0363,0.0159,-0.0159,-0.0158,-0.0353,-0.0706,-0.1135,-0.1604,-0.1994,-0.2033,-0.2163,-0.2344,-0.236,-0.2503,-0.2743,-0.2881,-0.2933,-0.2977,-0.3869,-0.4397,-0.436,-0.4323,-0.4306,-0.4306,-0.4124,-0.4029,-0.3992,-0.3884,-0.3849,-0.3812,-0.3848,-0.3905,-0.4054,-0.4225,-0.4361,-0.438,-0.4465,-0.4504,-0.4504,-0.4582,-0.4701,-0.482,-0.482,-0.5015,-0.5287,-0.5437,-0.5686,-0.6125,-0.6584,-0.7002,-0.7465,-0.8058,-0.8539,-0.8875,-0.8916,-0.9032,-0.9401,-0.9375,-0.9453,-0.9656,-0.9846,-0.9884,-0.9884,-0.9992,-0.9992,-1.003,-1.018,-1.0331,-1.0475,-1.07,-1.0962,-1.1074,-1.1117,-1.1117,-1.1117,-1.1117,-1.1117,-1.1117,-1.1117,-1.1117,-1.1117,-1.1117,-1.1117,-1.1117,-1.1117,-1.1166,-1.1292,-1.1274,-1.1286,-1.1194,-1.1297,-1.1562,0.6054,0.5899,0.5036,0.4022,0.2953,0.2283,0.1702,0.1345,0.13,0.1165,0.0896,0.0892,0.0889,0.0843,0.0613,0.0476,0.0427,0.0252,0.0249,0.0372,0.0365,0.0443,0.0603,0.0594,0.0629,0.0629,0.0589,0.0589,0.055,0.0039,-0.0587,-0.1056,-0.1127,-0.1186,-0.1347,-0.1381,-0.1493,-0.1603,-0.1705,-0.1689,-0.1664,-0.2651,-0.3432,-0.3669,-0.3707,-0.3756,-0.3928,-0.3797,-0.3674,-0.3674,-0.357,-0.3462,-0.3465,-0.3485,-0.3582,-0.3752,-0.3966,-0.4163,-0.4219,-0.4307,-0.4309,-0.4309,-0.4345,-0.4462,-0.4582,-0.4621,-0.4662,-0.4818,-0.4859,-0.5017,-0.5201,-0.5573,-0.6025,-0.6453,-0.698,-0.7567,-0.818,-0.818,-0.8533,-0.9064,-0.9323,-0.9174,-0.9334,-0.9392,-0.9425,-0.9506,-0.9695,-0.9846,-0.9884,-1.003,-1.0148,-1.0186,-1.0481,-1.07,-1.0962,-1.1074,-1.1074,-1.1117,-1.1117,-1.1117,-1.1117,-1.1117,-1.1117,-1.1117,-1.1117,-1.1117,-1.1117,-1.1117,-1.1105,-1.1111,-1.1111,-1.1075,-1.1009,-1.1039,-1.1033,0.6974,0.6754,0.5984,0.5048,0.42,0.4109,0.3576,0.2731,0.2776,0.2284,0.1473,0.1403,0.1392,0.1303,0.091,0.0638,0.0615,0.0571,0.0564,0.0594,0.0592,0.0591,0.059,0.0629,0.0629,0.0668,0.0668,0.0668,0.0629,0.0588,0.0628,0.0705,0.0652,0.0449,0.0,-0.0182,-0.0498,-0.0954,-0.1074,-0.1142,-0.108,-0.1181,-0.1712,-0.2481,-0.2662,-0.294,-0.3389,-0.3445,-0.3404,-0.3404,-0.3404,-0.3406,-0.3412,-0.3446,-0.3522,-0.3595,-0.3618,-0.3701,-0.3857,-0.3997,-0.4116,-0.4116,-0.427,-0.4384,-0.4384,-0.4384,-0.4423,-0.4423,-0.4621,-0.4787,-0.4956,-0.5123,-0.5168,-0.5283,-0.5867,-0.6704,-0.7653,-0.8028,-0.8991,-0.9488,-0.9553,-0.934,-0.8842,-0.8594,-0.8742,-0.8932,-0.9279,-0.9657,-0.9809,-0.9879,-0.9916,-1.0105,-1.0255,-1.0363,-1.0738,-1.0887,-1.0999,-1.1062,-1.1013,-1.1099,-1.1111,-1.1117,-1.1099,-1.1111,-1.1117,-1.1117,-1.1117,-1.1105,-1.1093,-1.1093,-1.1105,-1.1014,-1.084,-1.1021,-1.1039,0.6984,0.6933,0.6057,0.5494,0.5137,0.4556,0.4111,0.3794,0.3705,0.3158,0.2405,0.223,0.1856,0.1334,0.1168,0.0992,0.0854,0.0681,0.0673,0.0786,0.0786,0.0864,0.1022,0.1061,0.1061,0.1061,0.1022,0.1061,0.1019,0.1006,0.0998,0.107,0.1085,0.0948,0.0785,0.0711,0.0523,0.0338,0.0272,0.0272,0.0269,0.0302,-0.0034,-0.0715,-0.133,-0.1884,-0.2456,-0.257,-0.2761,-0.3139,-0.3207,-0.3277,-0.3279,-0.3305,-0.333,-0.345,-0.3514,-0.3583,-0.3667,-0.3809,-0.3921,-0.3921,-0.3958,-0.4075,-0.4194,-0.4194,-0.427,-0.4384,-0.4462,-0.4582,-0.4779,-0.4937,-0.5045,-0.5147,-0.5297,-0.5673,-0.6113,-0.6402,-0.6748,-0.7452,-0.8151,-0.8659,-0.8584,-0.8746,-0.9051,-0.9203,-0.9051,-0.9122,-0.9506,-0.9425,-0.9349,-0.9765,-1.003,-1.0255,-1.0331,-1.0594,-1.0732,-1.0791,-1.0842,-1.0898,-1.0935,-1.0863,-1.0821,-1.1033,-1.1069,-1.1093,-1.1087,-1.1069,-1.1051,-1.0924,-1.0912,-1.087,-1.0665,-1.0852,-1.0924,0.697,0.6997,0.6428,0.6163,0.6074,0.5492,0.5026,0.4726,0.4576,0.4015,0.3208,0.2766,0.2264,0.1708,0.1413,0.1248,0.1085,0.091,0.0904,0.1022,0.1022,0.114,0.1297,0.1297,0.1297,0.1297,0.1297,0.1292,0.128,0.1221,0.1207,0.1196,0.1167,0.1142,0.1088,0.1112,0.1095,0.1112,0.1109,0.1076,0.1109,0.1109,0.0941,0.0538,-0.0067,-0.0773,-0.1479,-0.1746,-0.198,-0.2351,-0.2487,-0.2621,-0.2855,-0.3058,-0.3233,-0.3358,-0.3455,-0.3509,-0.3574,-0.3683,-0.3771,-0.38,-0.3802,-0.3882,-0.3999,-0.3999,-0.4077,-0.419,-0.4268,-0.4387,-0.4506,-0.4665,-0.4891,-0.5071,-0.5064,-0.5176,-0.556,-0.5598,-0.5919,-0.6617,-0.709,-0.7458,-0.7668,-0.7936,-0.828,-0.8732,-0.8475,-0.8627,-0.9241,-0.9273,-0.9084,-0.9544,-0.9884,-1.003,-1.0105,-1.0218,-1.0384,-1.0469,-1.051,-1.0614,-1.0652,-1.0569,-1.0677,-1.0869,-1.1009,-1.1039,-1.1045,-1.1021,-1.0906,-1.0743,-1.0689,-1.0641,-1.061,-1.0641,-1.0695,0.697,0.7088,0.7095,0.7,0.6943,0.6851,0.6433,0.5585,0.5478,0.485,0.3849,0.3071,0.2752,0.2379,0.1748,0.1338,0.1261,0.1219,0.1258,0.1258,0.1258,0.1297,0.1297,0.1297,0.1297,0.1297,0.1297,0.1281,0.1217,0.1209,0.1194,0.1202,0.1136,0.1119,0.1084,0.1093,0.1111,0.1109,0.1109,0.1109,0.1109,0.1109,0.1076,0.1042,0.0974,0.0403,-0.0706,-0.0974,-0.1143,-0.1176,-0.121,-0.1478,-0.2147,-0.2653,-0.3059,-0.3267,-0.3365,-0.345,-0.3585,-0.3588,-0.3677,-0.3771,-0.3798,-0.3802,-0.3841,-0.3841,-0.3841,-0.388,-0.3997,-0.4118,-0.4155,-0.4309,-0.4587,-0.4901,-0.4943,-0.5227,-0.5824,-0.6101,-0.6461,-0.6911,-0.6642,-0.6057,-0.6128,-0.6475,-0.6819,-0.7395,-0.7702,-0.8127,-0.8784,-0.8894,-0.9311,-0.9463,-0.9387,-0.9344,-0.9609,-0.9868,-0.9988,-1.0123,-1.0153,-1.021,-1.0249,-1.0242,-1.0432,-1.0635,-1.0834,-1.0864,-1.0822,-1.0749,-1.0647,-1.0509,-1.0466,-1.0406,-1.0377,-1.0407,-1.0479,0.7055,0.7092,0.7095,0.7041,0.6957,0.6953,0.6692,0.6338,0.6245,0.5639,0.4814,0.4395,0.364,0.2692,0.2203,0.1806,0.1335,0.1297,0.1297,0.1297,0.1297,0.1297,0.1297,0.1297,0.1297,0.1297,0.1297,0.1242,0.1213,0.1191,0.1201,0.1135,0.1105,0.1091,0.1091,0.1113,0.1109,0.1109,0.1109,0.1109,0.1109,0.1109,0.1109,0.1109,0.1109,0.0873,0.0504,-0.0034,-0.0504,-0.084,-0.1041,-0.121,-0.1512,-0.195,-0.2328,-0.2586,-0.2982,-0.3272,-0.3446,-0.3558,-0.3596,-0.3675,-0.3762,-0.3798,-0.3802,-0.3802,-0.3802,-0.3802,-0.3882,-0.3921,-0.4079,-0.4157,-0.4311,-0.4582,-0.4582,-0.475,-0.5179,-0.5348,-0.546,-0.5731,-0.585,-0.5941,-0.6051,-0.617,-0.6591,-0.6934,-0.6896,-0.7011,-0.7625,-0.774,-0.751,-0.7817,-0.808,-0.8575,-0.8846,-0.9016,-0.9148,-0.9421,-0.9619,-0.9842,-0.9869,-0.9868,-1.0101,-1.0343,-1.0539,-1.0593,-1.0545,-1.0449,-1.0306,-1.0263,-1.0185,-1.0115,-1.0069,-1.0058,-1.0146,0.7095,0.7092,0.7038,0.6967,0.6879,0.6832,0.6756,0.6617,0.6555,0.6161,0.5628,0.516,0.4421,0.3524,0.3134,0.251,0.1805,0.1728,0.157,0.1336,0.1297,0.1297,0.1297,0.1297,0.1297,0.1297,0.1297,0.1274,0.1196,0.1175,0.1182,0.1106,0.1084,0.1109,0.1109,0.1109,0.1109,0.1109,0.1109,0.1109,0.1109,0.1109,0.1109,0.1109,0.1109,0.1109,0.1042,0.0638,0.0235,-0.0134,-0.0571,-0.0873,-0.1041,-0.1681,-0.222,-0.2527,-0.2831,-0.3186,-0.3371,-0.3501,-0.3595,-0.3632,-0.3712,-0.38,-0.3802,-0.3802,-0.3802,-0.3802,-0.3802,-0.3841,-0.396,-0.3999,-0.4038,-0.4151,-0.4345,-0.4462,-0.4662,-0.482,-0.494,-0.514,-0.5365,-0.5515,-0.5709,-0.586,-0.6363,-0.6514,-0.6247,-0.617,-0.678,-0.6857,-0.6934,-0.7088,-0.7506,-0.7889,-0.8046,-0.8163,-0.8303,-0.8641,-0.9026,-0.9327,-0.9542,-0.9399,-0.9449,-0.9823,-1.0096,-1.0166,-1.0137,-0.9996,-0.9867,-0.987,-0.9851,-0.9702,-0.9606,-0.9616,-0.9663,0.7139,0.7122,0.7,0.6949,0.6909,0.6776,0.663,0.6532,0.6494,0.6383,0.6087,0.5518,0.5043,0.4768,0.4107,0.3404,0.2704,0.2588,0.2275,0.1805,0.1649,0.1608,0.1328,0.1288,0.1288,0.129,0.1287,0.1257,0.121,0.1162,0.117,0.1084,0.1111,0.1109,0.1109,0.1109,0.1109,0.1109,0.1109,0.1109,0.1143,0.1143,0.1143,0.1143,0.1176,0.1176,0.1176,0.1076,0.1042,0.0941,0.0101,-0.037,-0.0773,-0.1681,-0.2185,-0.2485,-0.2788,-0.2999,-0.3246,-0.3398,-0.3489,-0.3601,-0.3687,-0.3802,-0.38,-0.3802,-0.3802,-0.3802,-0.3802,-0.3802,-0.3841,-0.3841,-0.3841,-0.3841,-0.4151,-0.4426,-0.4623,-0.4662,-0.4781,-0.494,-0.4979,-0.5018,-0.5096,-0.5132,-0.5401,-0.5709,-0.5825,-0.6054,-0.6363,-0.6514,-0.6896,-0.6973,-0.6815,-0.7007,-0.7092,-0.7349,-0.7491,-0.7935,-0.8239,-0.8472,-0.8914,-0.886,-0.881,-0.9208,-0.9559,-0.965,-0.9691,-0.953,-0.9465,-0.947,-0.9373,-0.9205,-0.9182,-0.9221,-0.9271,0.737,0.7411,0.7328,0.7161,0.6915,0.6766,0.6651,0.6504,0.6402,0.6379,0.6261,0.6064,0.5589,0.5002,0.4807,0.4222,0.3638,0.3482,0.3404,0.3209,0.3169,0.2325,0.1457,0.1225,0.1224,0.1222,0.1283,0.1218,0.1202,0.1216,0.1183,0.1111,0.1243,0.1142,0.1109,0.1143,0.1109,0.1109,0.121,0.1244,0.1277,0.1412,0.1479,0.1479,0.1445,0.1445,0.1445,0.1311,0.121,0.1109,0.0873,0.0672,0.0437,-0.0168,-0.0739,-0.1041,-0.1613,-0.2154,-0.2521,-0.2931,-0.3261,-0.3491,-0.3584,-0.3691,-0.3798,-0.3802,-0.3802,-0.3802,-0.3802,-0.3802,-0.3802,-0.3802,-0.3802,-0.3841,-0.4036,-0.4194,-0.4311,-0.4506,-0.474,-0.4781,-0.4898,-0.4979,-0.5018,-0.5018,-0.5093,-0.5246,-0.5323,-0.5365,-0.5712,-0.575,-0.5938,-0.567,-0.5592,-0.5902,-0.6131,-0.6395,-0.672,-0.7221,-0.741,-0.7404,-0.7847,-0.8152,-0.8186,-0.8418,-0.879,-0.8986,-0.9103,-0.9098,-0.9087,-0.8969,-0.9066,-0.8999,-0.895,-0.8977,-0.8988,0.7683,0.7672,0.7559,0.7393,0.7154,0.6943,0.684,0.6737,0.6634,0.6563,0.6563,0.6563,0.6286,0.5815,0.5819,0.5351,0.4649,0.4569,0.4336,0.4062,0.3984,0.3205,0.2096,0.1604,0.1371,0.1381,0.1373,0.1537,0.1794,0.1761,0.1863,0.2124,0.2114,0.1913,0.1577,0.1612,0.1478,0.1277,0.1311,0.1412,0.1445,0.1547,0.158,0.158,0.158,0.158,0.158,0.1412,0.1244,0.1076,0.0907,0.0773,0.0706,0.0269,-0.0101,-0.0336,-0.0974,-0.1412,-0.1755,-0.2309,-0.2727,-0.3018,-0.3282,-0.3593,-0.3779,-0.3802,-0.3802,-0.3802,-0.3802,-0.3802,-0.3802,-0.3802,-0.3802,-0.3841,-0.3921,-0.3999,-0.4079,-0.4272,-0.4506,-0.4662,-0.4781,-0.4898,-0.4979,-0.4979,-0.5018,-0.5018,-0.5057,-0.5057,-0.5096,-0.5018,-0.501,-0.5002,-0.5002,-0.5345,-0.5526,-0.5713,-0.5797,-0.6266,-0.6334,-0.6339,-0.6793,-0.7252,-0.7368,-0.7516,-0.7967,-0.8282,-0.8382,-0.8463,-0.8452,-0.8473,-0.8635,-0.8802,-0.877,-0.877,-0.8765,0.794,0.7933,0.7731,0.7668,0.7584,0.7286,0.713,0.7114,0.6947,0.6865,0.6865,0.6865,0.6788,0.6903,0.6633,0.6433,0.5699,0.5661,0.5309,0.4955,0.4634,0.4006,0.3195,0.2439,0.2142,0.2081,0.1818,0.2179,0.2611,0.2652,0.2919,0.3167,0.3351,0.305,0.2514,0.248,0.2149,0.1847,0.1847,0.1915,0.1849,0.1816,0.1782,0.1748,0.1748,0.1715,0.1648,0.1479,0.1344,0.1176,0.0638,0.0538,0.0403,-0.0067,-0.0269,-0.037,-0.047,-0.0706,-0.0977,-0.1441,-0.1939,-0.2247,-0.2824,-0.3398,-0.354,-0.3645,-0.3763,-0.3802,-0.3802,-0.3802,-0.3802,-0.3802,-0.3802,-0.3802,-0.3802,-0.3882,-0.3999,-0.4079,-0.4233,-0.4582,-0.4623,-0.4779,-0.4859,-0.494,-0.4898,-0.4779,-0.4813,-0.4797,-0.4838,-0.4877,-0.4902,-0.4925,-0.4928,-0.4936,-0.5005,-0.5035,-0.5032,-0.5147,-0.5118,-0.5228,-0.5765,-0.6129,-0.6308,-0.6555,-0.7082,-0.7394,-0.7565,-0.7624,-0.7749,-0.8139,-0.8501,-0.8544,-0.8549,-0.8608,-0.8608,0.8157,0.8109,0.8074,0.7971,0.7791,0.7499,0.7349,0.7319,0.7027,0.6942,0.6903,0.6903,0.6899,0.6903,0.6942,0.6784,0.6591,0.6591,0.6514,0.6356,0.558,0.5287,0.4764,0.399,0.3485,0.3287,0.3218,0.3354,0.3528,0.3517,0.3502,0.3687,0.388,0.3578,0.3413,0.338,0.3378,0.3145,0.2948,0.2785,0.2621,0.2388,0.2186,0.2052,0.2052,0.1985,0.1849,0.1782,0.1681,0.1479,0.1176,0.0907,0.0873,0.0773,0.0706,0.0638,0.037,0.0202,0.0067,-0.0475,-0.0935,-0.1265,-0.1906,-0.247,-0.2771,-0.3214,-0.3526,-0.3724,-0.3802,-0.3645,-0.3684,-0.3763,-0.3763,-0.3763,-0.3802,-0.3841,-0.3882,-0.3999,-0.4118,-0.4233,-0.4387,-0.4462,-0.4543,-0.4582,-0.4543,-0.4543,-0.4564,-0.4575,-0.4655,-0.4701,-0.4752,-0.4765,-0.4783,-0.4786,-0.4743,-0.4733,-0.4664,-0.4577,-0.4443,-0.439,-0.4912,-0.5239,-0.5443,-0.5823,-0.6256,-0.6479,-0.6585,-0.7101,-0.7293,-0.7814,-0.8209,-0.8214,-0.822,-0.8317,-0.8479,0.8771,0.8384,0.8384,0.8289,0.8053,0.7807,0.7648,0.7535,0.7297,0.7173,0.7169,0.7211,0.7173,0.7173,0.7173,0.7173,0.7173,0.7173,0.7173,0.7034,0.6561,0.6311,0.6187,0.5573,0.4952,0.4219,0.3908,0.4075,0.4388,0.4453,0.4553,0.4842,0.4845,0.4643,0.4312,0.4312,0.4112,0.3846,0.3782,0.3654,0.3556,0.3157,0.2656,0.2356,0.2221,0.2153,0.2052,0.1951,0.1849,0.1715,0.1479,0.1344,0.1344,0.1344,0.1378,0.1344,0.121,0.1008,0.0873,0.0472,0.0,-0.0217,-0.0872,-0.1348,-0.17,-0.2115,-0.235,-0.2546,-0.2626,-0.2704,-0.2979,-0.3136,-0.3253,-0.3604,-0.3724,-0.3802,-0.3802,-0.3882,-0.3999,-0.4077,-0.4194,-0.4309,-0.4348,-0.4345,-0.4384,-0.4423,-0.4462,-0.4477,-0.4452,-0.4529,-0.4515,-0.4538,-0.4596,-0.4589,-0.4535,-0.4465,-0.4402,-0.4308,-0.42,-0.412,-0.4284,-0.4519,-0.4663,-0.5027,-0.5305,-0.5403,-0.5583,-0.6178,-0.6666,-0.6896,-0.719,-0.7559,-0.7787,-0.7819,-0.8047,0.9471,0.878,0.8627,0.8477,0.8268,0.8061,0.789,0.7792,0.7604,0.7442,0.7518,0.7518,0.7442,0.748,0.748,0.748,0.748,0.748,0.7433,0.7285,0.7155,0.6924,0.6766,0.6441,0.5904,0.4682,0.4633,0.4971,0.5316,0.5415,0.5517,0.6079,0.6181,0.5683,0.5216,0.5183,0.505,0.4649,0.455,0.4483,0.4384,0.392,0.3357,0.2757,0.2522,0.2354,0.222,0.2052,0.1951,0.1918,0.1782,0.1715,0.1681,0.1614,0.1614,0.1614,0.158,0.158,0.155,0.1254,0.0901,0.0688,0.0183,-0.0262,-0.0581,-0.094,-0.1214,-0.1332,-0.1488,-0.1723,-0.1998,-0.2234,-0.2586,-0.2938,-0.329,-0.3409,-0.3448,-0.3487,-0.3606,-0.3999,-0.4038,-0.4116,-0.4192,-0.419,-0.4268,-0.4304,-0.4304,-0.4295,-0.4269,-0.4279,-0.4273,-0.434,-0.4392,-0.441,-0.4323,-0.4226,-0.4158,-0.4046,-0.3902,-0.383,-0.3756,-0.3856,-0.4024,-0.4032,-0.4205,-0.4459,-0.4791,-0.5315,-0.5712,-0.591,-0.6338,-0.683,-0.7097,-0.7293,-0.7587,0.9816,0.9632,0.8738,0.8316,0.8286,0.7988,0.7829,0.7771,0.7557,0.7522,0.7518,0.7518,0.7518,0.7518,0.7518,0.7518,0.7518,0.746,0.7399,0.7297,0.7163,0.7029,0.6786,0.6688,0.6372,0.6195,0.5896,0.5951,0.6098,0.6218,0.6152,0.6321,0.6354,0.6152,0.6086,0.6148,0.5987,0.5683,0.5481,0.5282,0.5113,0.4652,0.4056,0.3389,0.3155,0.2887,0.2488,0.2287,0.2153,0.2153,0.2119,0.2085,0.1985,0.1782,0.1715,0.1816,0.1849,0.1884,0.1954,0.1891,0.1798,0.1598,0.1111,0.0644,0.0272,-0.0157,-0.0392,-0.0705,-0.0979,-0.1254,-0.141,-0.141,-0.1528,-0.1684,-0.1802,-0.188,-0.1919,-0.2233,-0.2821,-0.337,-0.3645,-0.3763,-0.368,-0.3634,-0.3548,-0.3583,-0.3657,-0.3724,-0.3778,-0.3874,-0.3962,-0.411,-0.4222,-0.419,-0.415,-0.4006,-0.3888,-0.3777,-0.3628,-0.3494,-0.3423,-0.3353,-0.336,-0.356,-0.3761,-0.4059,-0.4359,-0.4622,-0.4984,-0.5345,-0.5774,-0.6174,-0.6338,-0.6502,-0.7031,1.1068,1.0524,0.9464,0.8981,0.877,0.8072,0.7743,0.761,0.7559,0.7518,0.7518,0.7518,0.7518,0.7518,0.7518,0.7518,0.7464,0.7374,0.7305,0.7171,0.7037,0.6883,0.6698,0.6607,0.6513,0.6403,0.6387,0.642,0.642,0.6387,0.642,0.642,0.642,0.642,0.642,0.6354,0.642,0.6317,0.6152,0.5984,0.5848,0.5319,0.4686,0.4189,0.3887,0.3654,0.342,0.3021,0.282,0.2686,0.2455,0.2288,0.2153,0.2052,0.1951,0.2018,0.2052,0.2085,0.2164,0.2142,0.2091,0.211,0.1791,0.1643,0.14,0.1097,0.0666,0.051,0.0353,0.0078,-0.0078,-0.0274,-0.047,-0.0744,-0.0861,-0.094,-0.1097,-0.1332,-0.1841,-0.2468,-0.2626,-0.2741,-0.2813,-0.2768,-0.2719,-0.2829,-0.2981,-0.3081,-0.3177,-0.3221,-0.327,-0.3448,-0.3546,-0.3579,-0.3591,-0.3625,-0.3564,-0.3443,-0.3406,-0.3275,-0.3256,-0.3234,-0.3259,-0.3393,-0.3594,-0.3727,-0.3794,-0.4028,-0.4422,-0.4749,-0.4848,-0.5017,-0.5382,-0.5778,-0.6272,1.2242,1.1406,1.0322,0.9771,0.9435,0.8638,0.816,0.7996,0.7825,0.7787,0.771,0.7595,0.7599,0.771,0.7744,0.7655,0.7465,0.724,0.7155,0.7033,0.6855,0.6696,0.6599,0.6518,0.6428,0.6432,0.642,0.642,0.642,0.642,0.642,0.642,0.642,0.642,0.642,0.642,0.642,0.642,0.642,0.642,0.6251,0.5881,0.5348,0.4858,0.4622,0.4453,0.422,0.3854,0.3451,0.3186,0.2822,0.2488,0.2288,0.2221,0.2188,0.2188,0.2188,0.2188,0.2201,0.221,0.2192,0.2232,0.2343,0.2323,0.2205,0.1988,0.1961,0.1925,0.169,0.1374,0.102,0.0941,0.0666,0.0353,0.0078,-0.0118,-0.0235,-0.0392,-0.047,-0.098,-0.1412,-0.1722,-0.1874,-0.2047,-0.2037,-0.2037,-0.2187,-0.221,-0.2269,-0.2188,-0.2273,-0.253,-0.2707,-0.2814,-0.2942,-0.3168,-0.3122,-0.3124,-0.3159,-0.3177,-0.3169,-0.3194,-0.3226,-0.3259,-0.3293,-0.3426,-0.3395,-0.3464,-0.3828,-0.3992,-0.3825,-0.399,-0.4553,-0.4984,-0.5415,1.2481,1.2088,1.0955,1.0354,1.0097,0.975,0.9592,0.9448,0.8813,0.8589,0.8513,0.794,0.8016,0.8428,0.8537,0.8067,0.7547,0.7257,0.7137,0.6958,0.6773,0.6595,0.6448,0.6444,0.642,0.642,0.642,0.642,0.642,0.642,0.642,0.642,0.642,0.642,0.642,0.642,0.642,0.642,0.642,0.642,0.6387,0.6284,0.5918,0.5583,0.5315,0.5084,0.4755,0.4456,0.4087,0.362,0.3286,0.2887,0.2455,0.2255,0.2221,0.2188,0.2188,0.2188,0.2196,0.221,0.2212,0.2248,0.2353,0.2371,0.2331,0.2252,0.2119,0.1926,0.1887,0.1847,0.1766,0.1728,0.1689,0.1571,0.1335,0.1295,0.1139,0.0588,0.051,0.0392,-0.0078,-0.0665,-0.1014,-0.1231,-0.1369,-0.137,-0.1406,-0.1395,-0.1417,-0.1352,-0.1215,-0.1443,-0.1782,-0.1898,-0.2026,-0.231,-0.2537,-0.2626,-0.2723,-0.2889,-0.3025,-0.3025,-0.3125,-0.3125,-0.3125,-0.3159,-0.3228,-0.3295,-0.3362,-0.3429,-0.3527,-0.3661,-0.3859,-0.4256,-0.4655,1.3128,1.294,1.1655,1.102,1.085,1.0187,0.989,0.982,0.9523,0.9372,0.9334,0.9031,0.9069,0.9266,0.9217,0.8911,0.8422,0.7807,0.7447,0.7155,0.6857,0.6535,0.6444,0.642,0.642,0.6519,0.642,0.642,0.642,0.642,0.642,0.642,0.642,0.642,0.642,0.642,0.642,0.642,0.642,0.642,0.642,0.6387,0.6321,0.605,0.598,0.5818,0.5587,0.5219,0.4915,0.455,0.4251,0.3856,0.3489,0.3155,0.2887,0.2753,0.2455,0.2288,0.2228,0.2211,0.2198,0.2224,0.2285,0.2343,0.2344,0.228,0.2235,0.2238,0.212,0.2119,0.2198,0.2238,0.2238,0.2239,0.2159,0.2077,0.192,0.1765,0.149,0.1374,0.1176,0.0504,0.0038,0.0,-0.0188,-0.0377,-0.0374,-0.0405,-0.0547,-0.0647,-0.0491,-0.0308,-0.0648,-0.0951,-0.1084,-0.1289,-0.1698,-0.1847,-0.1983,-0.2218,-0.2688,-0.2824,-0.2788,-0.2855,-0.2889,-0.2922,-0.3058,-0.3159,-0.3295,-0.3295,-0.3328,-0.346,-0.356,-0.3661,-0.4092,1.3493,1.34,1.2297,1.1775,1.1662,1.0839,1.0533,1.0496,1.0271,1.0196,1.0196,1.0153,1.0056,0.9893,0.9736,0.9563,0.9188,0.8393,0.803,0.7683,0.7324,0.7086,0.7101,0.7036,0.7003,0.6872,0.6839,0.6778,0.6679,0.6519,0.642,0.642,0.642,0.642,0.642,0.642,0.6416,0.6482,0.6548,0.6548,0.6548,0.6548,0.6552,0.6519,0.6519,0.6519,0.642,0.6115,0.5811,0.5418,0.5054,0.4686,0.4384,0.3982,0.3682,0.3518,0.3253,0.2989,0.2767,0.2563,0.2284,0.2209,0.2261,0.2327,0.2381,0.228,0.2313,0.2433,0.233,0.2377,0.2464,0.246,0.2417,0.2422,0.2431,0.2345,0.2218,0.2015,0.1805,0.1598,0.1479,0.1518,0.1168,0.1239,0.1085,0.0746,0.0627,0.0542,0.0392,0.0176,0.0381,0.0609,0.0237,-0.0034,-0.0067,-0.0302,-0.0705,-0.104,-0.1209,-0.1512,-0.1982,-0.2185,-0.2185,-0.2319,-0.2485,-0.2654,-0.2725,-0.2993,-0.3192,-0.3228,-0.3261,-0.3228,-0.3295,-0.3362,-0.3496,1.324,1.3213,1.2841,1.2465,1.2234,1.217,1.2077,1.1855,1.1292,1.1031,1.0993,1.0981,1.053,1.0017,1.0276,1.0008,0.896,0.8771,0.8622,0.8489,0.8371,0.8166,0.8069,0.8069,0.8166,0.8102,0.7712,0.7456,0.7265,0.6811,0.6585,0.642,0.642,0.642,0.6453,0.6486,0.6548,0.6646,0.6745,0.6815,0.6811,0.6811,0.6815,0.6815,0.6848,0.6811,0.6712,0.6576,0.6346,0.5951,0.5719,0.5481,0.5209,0.4776,0.4511,0.4348,0.4151,0.3951,0.3699,0.3034,0.2397,0.2263,0.2398,0.2631,0.2754,0.2616,0.2539,0.2718,0.2711,0.2564,0.2539,0.2469,0.2489,0.2459,0.2422,0.2336,0.2248,0.2165,0.1992,0.1771,0.1692,0.1701,0.17,0.1621,0.1539,0.1206,0.1252,0.1191,0.1211,0.1093,0.1327,0.1414,0.1043,0.0875,0.1009,0.0705,0.0168,-0.0101,-0.0302,-0.0739,-0.1209,-0.1344,-0.1311,-0.1782,-0.1982,-0.222,-0.2456,-0.2691,-0.2924,-0.3125,-0.3192,-0.3192,-0.3192,-0.3261,-0.3295,1.319,1.3047,1.2787,1.2516,1.2305,1.2305,1.2305,1.2268,1.1966,1.1855,1.1811,1.1805,1.1511,1.1162,1.1071,1.0904,1.0128,0.956,0.9362,0.9007,0.878,0.8554,0.8522,0.8619,0.8517,0.8613,0.8323,0.7939,0.7582,0.7358,0.6843,0.6618,0.6552,0.6519,0.6552,0.6651,0.6745,0.6811,0.6876,0.6913,0.6913,0.6913,0.6913,0.6913,0.6913,0.6876,0.6843,0.6843,0.6679,0.6548,0.6412,0.6276,0.6108,0.5708,0.5411,0.518,0.4981,0.4779,0.4514,0.3851,0.352,0.3511,0.3576,0.3537,0.3481,0.3659,0.3697,0.3651,0.3346,0.3166,0.3051,0.275,0.2523,0.2433,0.2439,0.2471,0.2457,0.252,0.2316,0.2201,0.1989,0.1855,0.1851,0.1844,0.1796,0.1676,0.1741,0.1808,0.1759,0.1788,0.1891,0.1919,0.158,0.1513,0.1648,0.1344,0.1008,0.0806,0.0605,0.0134,-0.0302,-0.0202,-0.0269,-0.0873,-0.1412,-0.1513,-0.1782,-0.2287,-0.2622,-0.2891,-0.3092,-0.3192,-0.3192,-0.3192,-0.3192,1.3234,1.3048,1.2797,1.2526,1.2305,1.2305,1.2305,1.2305,1.2268,1.2342,1.2402,1.2284,1.2155,1.1934,1.1703,1.1402,1.0855,1.0431,1.0155,0.9901,0.9614,0.9294,0.9262,0.9358,0.9576,0.9378,0.9116,0.8833,0.8549,0.8221,0.7864,0.7419,0.6999,0.7003,0.6712,0.6909,0.6979,0.6979,0.704,0.7073,0.7073,0.7106,0.7106,0.7106,0.7106,0.7073,0.704,0.7007,0.7012,0.6946,0.6942,0.7012,0.6876,0.6675,0.6342,0.6042,0.5774,0.5474,0.5209,0.468,0.445,0.42,0.4296,0.4325,0.4426,0.4468,0.4278,0.4341,0.4058,0.3853,0.3718,0.3439,0.3306,0.3374,0.3349,0.3341,0.3298,0.3271,0.2926,0.2682,0.2616,0.2742,0.2599,0.2624,0.2327,0.2181,0.1963,0.1993,0.1963,0.1963,0.2077,0.21,0.2018,0.2052,0.2153,0.1816,0.1547,0.1547,0.1311,0.1008,0.0773,0.0806,0.0538,-0.0101,-0.0538,-0.0739,-0.1008,-0.1344,-0.2016,-0.269,-0.2891,-0.3058,-0.3192,-0.3192,-0.3192,1.3303,1.3275,1.2989,1.2673,1.2342,1.2298,1.2342,1.2372,1.2308,1.2405,1.251,1.2256,1.206,1.1915,1.1636,1.1404,1.116,1.0985,1.0895,1.0769,1.0611,1.08,1.0807,1.0706,1.051,1.0769,1.0345,0.992,0.9767,0.9212,0.8892,0.8608,0.8129,0.7712,0.6868,0.7068,0.7232,0.7265,0.7461,0.7493,0.7428,0.7396,0.7396,0.7396,0.7396,0.7297,0.7232,0.7204,0.7204,0.7204,0.7204,0.7269,0.733,0.7199,0.7036,0.697,0.6839,0.6778,0.6712,0.5543,0.5044,0.4885,0.5055,0.4937,0.4648,0.4586,0.4778,0.5044,0.4661,0.4529,0.4439,0.4371,0.427,0.4171,0.4113,0.4103,0.4012,0.3948,0.3641,0.3419,0.3811,0.4069,0.3768,0.348,0.3088,0.2733,0.2342,0.2183,0.2206,0.2199,0.2278,0.2206,0.2188,0.2188,0.2188,0.2188,0.2085,0.2119,0.1985,0.1614,0.1412,0.1344,0.1008,0.0538,0.0302,0.0101,-0.0134,-0.037,-0.1142,-0.1915,-0.2621,-0.2924,-0.3092,-0.3125,-0.2991,1.3357,1.3232,1.3126,1.2936,1.2709,1.2673,1.2673,1.2668,1.2509,1.2413,1.2379,1.2123,1.1853,1.1703,1.1661,1.1461,1.1164,1.1216,1.1216,1.1122,1.1129,1.1097,1.1129,1.1153,1.1153,1.1146,1.0881,1.0566,1.0148,0.992,0.9468,0.909,0.9058,0.8576,0.8258,0.8323,0.8619,0.8296,0.8199,0.8009,0.7694,0.7591,0.7526,0.7526,0.7493,0.7461,0.7391,0.7363,0.7363,0.7363,0.7396,0.7428,0.7493,0.7396,0.733,0.7302,0.7204,0.7297,0.7265,0.6732,0.647,0.6197,0.5992,0.5944,0.5948,0.6037,0.6037,0.5855,0.5555,0.5484,0.5454,0.5045,0.4845,0.4645,0.4586,0.4583,0.4552,0.4546,0.4397,0.4255,0.445,0.4616,0.4483,0.445,0.4092,0.3666,0.3321,0.2845,0.2732,0.2559,0.2531,0.2363,0.2255,0.2221,0.2188,0.2255,0.2221,0.2154,0.2153,0.2052,0.1918,0.1816,0.158,0.1176,0.1041,0.0907,0.0538,0.0134,-0.0437,-0.1109,-0.1781,-0.2414,-0.2674,-0.2648,-0.2523,1.3804,1.3724,1.3977,1.3825,1.3433,1.3076,1.29,1.2865,1.2676,1.2543,1.2466,1.2143,1.1909,1.1767,1.1679,1.1617,1.1286,1.1341,1.1404,1.1279,1.1279,1.1317,1.1317,1.1279,1.1341,1.1365,1.1365,1.1146,1.0825,1.0787,1.037,0.9958,0.9888,0.9799,0.9544,0.9422,0.9262,0.8935,0.8742,0.8393,0.8047,0.7787,0.7559,0.7526,0.7493,0.7493,0.7493,0.7493,0.7493,0.7493,0.7493,0.7493,0.7493,0.7493,0.7428,0.7396,0.7396,0.7493,0.7461,0.7428,0.7134,0.704,0.7073,0.6942,0.6806,0.668,0.6709,0.6601,0.6474,0.6379,0.6181,0.5734,0.5639,0.5451,0.5488,0.5491,0.5524,0.5528,0.5395,0.5246,0.5276,0.5312,0.5279,0.5249,0.5166,0.4761,0.4325,0.3823,0.333,0.307,0.2863,0.269,0.2557,0.2522,0.2421,0.2322,0.2288,0.2221,0.2287,0.2354,0.2287,0.2186,0.1983,0.1816,0.1681,0.1445,0.1008,0.0538,0.0202,-0.0269,-0.0907,-0.1539,-0.2128,-0.2233,-0.2143,1.4601,1.4744,1.5384,1.5207,1.4458,1.3397,1.2973,1.2929,1.2901,1.2784,1.267,1.2292,1.203,1.192,1.1706,1.1589,1.1536,1.1567,1.156,1.156,1.1498,1.1536,1.1536,1.1529,1.1529,1.156,1.156,1.1498,1.1529,1.1397,1.1083,1.0958,1.1014,1.0888,1.051,1.0161,0.9837,0.9614,0.932,0.9,0.8651,0.8209,0.7977,0.7847,0.7749,0.7652,0.7587,0.7493,0.7493,0.7493,0.7493,0.7493,0.7493,0.7493,0.7493,0.7493,0.7493,0.7493,0.7493,0.7493,0.7493,0.7363,0.7302,0.7106,0.7007,0.6975,0.7007,0.6975,0.6843,0.6909,0.6806,0.6773,0.6741,0.6712,0.6712,0.6745,0.6745,0.6646,0.6482,0.6408,0.6478,0.6478,0.6239,0.6174,0.6042,0.5712,0.5282,0.4821,0.4306,0.3646,0.343,0.3127,0.2991,0.2889,0.2757,0.2658,0.2557,0.2522,0.2622,0.2688,0.2622,0.2555,0.2453,0.2353,0.2253,0.1985,0.1513,0.1244,0.1042,0.0538,-0.0034,-0.073,-0.1348,-0.1819,-0.1891,1.4922,1.5392,1.5604,1.5278,1.453,1.3695,1.3309,1.3288,1.3078,1.2817,1.2533,1.2181,1.2028,1.1723,1.1628,1.163,1.1622,1.1591,1.1591,1.1591,1.1622,1.1622,1.1591,1.1591,1.1591,1.1591,1.1591,1.1591,1.1591,1.1591,1.156,1.1435,1.1529,1.1435,1.1303,1.1083,1.0762,1.0415,1.0091,0.9709,0.9384,0.9005,0.871,0.8452,0.8194,0.8037,0.7754,0.7559,0.7526,0.7493,0.7493,0.7493,0.7493,0.7493,0.7493,0.7493,0.7493,0.7493,0.7493,0.7526,0.7559,0.7587,0.7521,0.7297,0.7199,0.7232,0.7297,0.7171,0.7171,0.7204,0.7232,0.7237,0.7237,0.7237,0.7269,0.7302,0.733,0.7297,0.7101,0.6975,0.711,0.7106,0.6933,0.6999,0.6835,0.6572,0.6243,0.5782,0.5233,0.4616,0.4154,0.3873,0.3625,0.3589,0.3257,0.3092,0.2958,0.2857,0.2989,0.3023,0.2958,0.2924,0.2922,0.2822,0.2589,0.2354,0.2052,0.1816,0.1614,0.1344,0.0805,0.0099,-0.0555,-0.102,-0.1464,1.5772,1.6202,1.6515,1.6026,1.4977,1.4119,1.3573,1.3293,1.3089,1.2733,1.2328,1.2377,1.2236,1.2088,1.2266,1.2413,1.2413,1.2128,1.2004,1.1973,1.1747,1.1622,1.1591,1.1591,1.1591,1.1591,1.1591,1.1591,1.1591,1.1622,1.1591,1.1654,1.1685,1.1747,1.1716,1.1685,1.1591,1.124,1.0863,1.0446,1.0129,0.9805,0.9416,0.9128,0.8839,0.8458,0.8047,0.7814,0.7591,0.7526,0.7493,0.7493,0.7587,0.7717,0.7912,0.7977,0.8037,0.8037,0.8004,0.8037,0.7972,0.7977,0.8102,0.8264,0.7972,0.7842,0.7554,0.733,0.7428,0.7493,0.7493,0.7493,0.7493,0.7493,0.7591,0.7689,0.7717,0.7749,0.7624,0.7433,0.7433,0.7498,0.7526,0.7657,0.7657,0.7456,0.7158,0.6798,0.621,0.5538,0.5156,0.4867,0.4556,0.4353,0.4023,0.3758,0.3625,0.3491,0.3391,0.3424,0.3293,0.3259,0.3291,0.309,0.2857,0.2622,0.2421,0.2288,0.2085,0.1849,0.1673,0.1186,0.0491,-0.0198,-0.0613,1.6932,1.701,1.7623,1.6938,1.5678,1.4637,1.3793,1.3103,1.3147,1.2728,1.2337,1.2732,1.2783,1.2691,1.3017,1.3238,1.3078,1.2765,1.2451,1.2473,1.2042,1.1771,1.1622,1.1591,1.1591,1.1591,1.1591,1.1622,1.1622,1.1654,1.1716,1.184,1.184,1.1903,1.2003,1.2003,1.1934,1.1809,1.1365,1.0926,1.0636,1.025,0.9837,0.9608,0.932,0.8935,0.8581,0.8194,0.7712,0.7647,0.759,0.7645,0.8004,0.8174,0.8436,0.8549,0.8628,0.8613,0.8629,0.8683,0.8678,0.8812,0.9134,0.9198,0.8871,0.8458,0.8166,0.8069,0.8199,0.8199,0.8231,0.8037,0.7977,0.7944,0.7982,0.8014,0.8047,0.8079,0.8019,0.7862,0.7824,0.7889,0.7954,0.8019,0.7987,0.8042,0.7907,0.7549,0.7195,0.6474,0.6017,0.5752,0.5355,0.5054,0.4987,0.4722,0.442,0.4253,0.4123,0.3923,0.3923,0.3789,0.3656,0.3424,0.3159,0.2958,0.2788,0.2656,0.2589,0.2549,0.2365,0.2203,0.1639,0.082,0.0129,1.7217,1.7691,1.7329,1.6732,1.5999,1.5223,1.4455,1.3786,1.3761,1.3381,1.286,1.2941,1.3159,1.3354,1.3563,1.3722,1.3563,1.3442,1.2978,1.2665,1.2305,1.1895,1.1685,1.1591,1.1591,1.1591,1.1591,1.1654,1.1716,1.1778,1.1864,1.2027,1.2027,1.2058,1.2127,1.2127,1.2127,1.212,1.1872,1.1553,1.1397,1.1334,1.1139,1.0742,1.0357,1.004,0.9578,0.8817,0.8472,0.827,0.8228,0.8487,0.9014,0.8923,0.9029,0.9186,0.9153,0.9176,0.9247,0.9358,0.9352,0.932,0.9486,0.9582,0.9486,0.9198,0.9037,0.9005,0.8941,0.8935,0.8903,0.8646,0.8458,0.8398,0.8366,0.8404,0.8409,0.8382,0.8414,0.8317,0.8247,0.8279,0.8312,0.8344,0.8312,0.8242,0.8204,0.8009,0.7944,0.7489,0.6769,0.6412,0.5954,0.5719,0.5752,0.565,0.5315,0.5216,0.5153,0.4888,0.4556,0.4289,0.4056,0.3758,0.3527,0.3324,0.3159,0.3058,0.3023,0.305,0.2988,0.2787,0.2481,0.1796,0.1073,1.7613,1.793,1.7579,1.6915,1.6209,1.5644,1.4867,1.4087,1.3842,1.3788,1.3771,1.3762,1.3874,1.4181,1.438,1.4469,1.441,1.4172,1.3704,1.3213,1.2665,1.2097,1.1825,1.1685,1.1654,1.1685,1.1778,1.1872,1.1903,1.1934,1.2027,1.2212,1.2212,1.2243,1.2274,1.2313,1.2313,1.2305,1.2243,1.2112,1.1988,1.1895,1.1697,1.1352,1.1102,1.0864,1.0383,0.9618,0.9219,0.9041,0.8969,0.9,0.9412,0.9605,0.975,0.9895,0.9901,0.9831,0.9945,1.0028,1.0053,1.0085,1.0433,1.0755,1.0951,1.0661,1.0117,1.0021,0.9608,0.9544,0.9544,0.9378,0.9134,0.9011,0.9043,0.9107,0.8952,0.8797,0.8732,0.8608,0.8544,0.8511,0.8571,0.87,0.87,0.8791,0.8689,0.8495,0.8436,0.8306,0.7652,0.7129,0.6741,0.6576,0.6671,0.6474,0.6145,0.6115,0.605,0.5653,0.5219,0.4788,0.4459,0.4259,0.3995,0.3694,0.356,0.3429,0.3426,0.3456,0.3414,0.3333,0.3019,0.2722,0.2114,1.7974,1.8008,1.7906,1.7288,1.6331,1.5956,1.5232,1.4285,1.393,1.4189,1.4743,1.4803,1.4863,1.5137,1.5527,1.5759,1.5643,1.501,1.443,1.3786,1.3183,1.2765,1.2351,1.1988,1.2104,1.2135,1.2205,1.2205,1.2205,1.2297,1.2421,1.2451,1.2482,1.2521,1.259,1.259,1.256,1.2498,1.2428,1.2297,1.2243,1.2166,1.1936,1.1654,1.15,1.1368,1.0964,1.0506,1.004,0.9894,0.9831,0.9996,1.0147,1.0459,1.06,1.0732,1.0764,1.0746,1.0811,1.0919,1.0944,1.1094,1.1608,1.1872,1.1996,1.1771,1.1202,1.0912,1.0496,1.0307,1.03,1.0148,0.9901,0.9684,0.9779,0.9652,0.9402,0.9183,0.9022,0.8899,0.8867,0.8835,0.8899,0.9022,0.9075,0.9204,0.9172,0.9017,0.8861,0.8662,0.8274,0.7949,0.7657,0.7591,0.7461,0.7162,0.6769,0.6736,0.6605,0.628,0.5888,0.5422,0.509,0.4858,0.4592,0.4195,0.393,0.3763,0.3794,0.3825,0.3757,0.3702,0.365,0.3355,0.3077,1.8008,1.7978,1.7656,1.7158,1.6562,1.6201,1.5696,1.5182,1.5048,1.5245,1.543,1.5614,1.5672,1.5672,1.5788,1.5914,1.5914,1.5527,1.5108,1.4499,1.4043,1.3614,1.3252,1.2917,1.3,1.2948,1.2864,1.2895,1.2895,1.2995,1.3177,1.3351,1.329,1.3117,1.2775,1.2775,1.2713,1.2683,1.2558,1.2419,1.22,1.2187,1.2243,1.2197,1.2266,1.2205,1.192,1.13,1.0977,1.0795,1.0766,1.0968,1.1176,1.1314,1.1383,1.1441,1.1468,1.1483,1.1518,1.1577,1.1608,1.167,1.2027,1.2089,1.2189,1.2251,1.1926,1.2027,1.1701,1.1545,1.1445,1.1163,1.0888,1.0699,1.0667,1.0072,0.96,0.9446,0.9318,0.9285,0.9253,0.9253,0.9253,0.9306,0.9244,0.9302,0.9291,0.9143,0.9151,0.899,0.8861,0.8635,0.8441,0.809,0.7731,0.7559,0.7297,0.726,0.7162,0.6839,0.6478,0.6053,0.5723,0.5355,0.5024,0.4658,0.4428,0.4033,0.41,0.4084,0.4059,0.4001,0.4022,0.3937,0.3593]}]]